<?xml version="1.0" encoding="UTF-8" standalone="no" ?>
<gpx xmlns="http://www.topografix.com/GPX/1/1" xmlns:xsi="http://www.w3.org/2001/XMLSchema-instance" xsi:schemaLocation="http://www.topografix.com/GPX/1/1 http://www.topografix.com/GPX/1/1/gpx.xsd" version="1.1" creator="VisuGPX - https://www.visugpx.com">
  <metadata>
    <name>Belley / Pierre Besse2</name>
    <desc><![CDATA[Ain - Bugey.
boucle au départ de Belley.
passage à Vieugey, Thoys, Fontaine Valin, Corne-Boeuf, Pierre Besse, lac d'Armaille, Le Trappon, Bognens, Bilignin.]]></desc>
  </metadata>
  <trk>
    <name><![CDATA[20180917165101-QRzU1]]></name>
    <trkseg>
      <trkpt lat="45.75804" lon="5.68941">
        <ele>320.74</ele>
        <time>2016-11-23T12:52:20Z</time>
      </trkpt>
      <trkpt lat="45.75811" lon="5.68923">
        <ele>319.3</ele>
        <time>2016-11-23T12:53:10Z</time>
      </trkpt>
      <trkpt lat="45.75809" lon="5.6891">
        <ele>318.33</ele>
        <time>2016-11-23T12:53:18Z</time>
      </trkpt>
      <trkpt lat="45.758" lon="5.68906">
        <ele>319.78</ele>
        <time>2016-11-23T12:53:25Z</time>
      </trkpt>
      <trkpt lat="45.75791" lon="5.68906">
        <ele>320.26</ele>
        <time>2016-11-23T12:53:31Z</time>
      </trkpt>
      <trkpt lat="45.75783" lon="5.689">
        <ele>320.26</ele>
        <time>2016-11-23T12:53:35Z</time>
      </trkpt>
      <trkpt lat="45.75785" lon="5.68882">
        <ele>320.26</ele>
        <time>2016-11-23T12:53:40Z</time>
      </trkpt>
      <trkpt lat="45.7578" lon="5.68869">
        <ele>319.3</ele>
        <time>2016-11-23T12:53:44Z</time>
      </trkpt>
      <trkpt lat="45.75781" lon="5.68854">
        <ele>319.78</ele>
        <time>2016-11-23T12:53:48Z</time>
      </trkpt>
      <trkpt lat="45.75785" lon="5.68842">
        <ele>318.81</ele>
        <time>2016-11-23T12:53:51Z</time>
      </trkpt>
      <trkpt lat="45.75788" lon="5.6882">
        <ele>316.89</ele>
        <time>2016-11-23T12:54:47Z</time>
      </trkpt>
      <trkpt lat="45.7578" lon="5.68817">
        <ele>316.89</ele>
        <time>2016-11-23T12:54:52Z</time>
      </trkpt>
      <trkpt lat="45.75771" lon="5.68811">
        <ele>317.37</ele>
        <time>2016-11-23T12:54:57Z</time>
      </trkpt>
      <trkpt lat="45.75763" lon="5.68803">
        <ele>318.33</ele>
        <time>2016-11-23T12:55:01Z</time>
      </trkpt>
      <trkpt lat="45.75752" lon="5.68797">
        <ele>317.85</ele>
        <time>2016-11-23T12:55:05Z</time>
      </trkpt>
      <trkpt lat="45.75742" lon="5.68791">
        <ele>319.3</ele>
        <time>2016-11-23T12:55:09Z</time>
      </trkpt>
      <trkpt lat="45.75731" lon="5.68781">
        <ele>319.78</ele>
        <time>2016-11-23T12:55:13Z</time>
      </trkpt>
      <trkpt lat="45.7572" lon="5.68774">
        <ele>319.78</ele>
        <time>2016-11-23T12:55:16Z</time>
      </trkpt>
      <trkpt lat="45.7571" lon="5.68767">
        <ele>320.26</ele>
        <time>2016-11-23T12:55:19Z</time>
      </trkpt>
      <trkpt lat="45.75699" lon="5.68761">
        <ele>320.74</ele>
        <time>2016-11-23T12:55:22Z</time>
      </trkpt>
      <trkpt lat="45.75689" lon="5.68754">
        <ele>321.22</ele>
        <time>2016-11-23T12:55:25Z</time>
      </trkpt>
      <trkpt lat="45.7568" lon="5.68746">
        <ele>321.22</ele>
        <time>2016-11-23T12:55:28Z</time>
      </trkpt>
      <trkpt lat="45.75671" lon="5.68738">
        <ele>322.18</ele>
        <time>2016-11-23T12:55:31Z</time>
      </trkpt>
      <trkpt lat="45.75663" lon="5.68729">
        <ele>322.18</ele>
        <time>2016-11-23T12:55:34Z</time>
      </trkpt>
      <trkpt lat="45.75654" lon="5.68721">
        <ele>322.66</ele>
        <time>2016-11-23T12:55:37Z</time>
      </trkpt>
      <trkpt lat="45.75644" lon="5.68713">
        <ele>322.66</ele>
        <time>2016-11-23T12:55:40Z</time>
      </trkpt>
      <trkpt lat="45.75635" lon="5.68703">
        <ele>323.14</ele>
        <time>2016-11-23T12:55:43Z</time>
      </trkpt>
      <trkpt lat="45.75627" lon="5.68691">
        <ele>324.1</ele>
        <time>2016-11-23T12:55:46Z</time>
      </trkpt>
      <trkpt lat="45.75618" lon="5.68683">
        <ele>325.06</ele>
        <time>2016-11-23T12:55:49Z</time>
      </trkpt>
      <trkpt lat="45.75609" lon="5.68673">
        <ele>324.58</ele>
        <time>2016-11-23T12:55:52Z</time>
      </trkpt>
      <trkpt lat="45.75602" lon="5.68662">
        <ele>325.54</ele>
        <time>2016-11-23T12:55:55Z</time>
      </trkpt>
      <trkpt lat="45.75596" lon="5.6865">
        <ele>326.02</ele>
        <time>2016-11-23T12:55:58Z</time>
      </trkpt>
      <trkpt lat="45.75591" lon="5.68635">
        <ele>326.99</ele>
        <time>2016-11-23T12:56:02Z</time>
      </trkpt>
      <trkpt lat="45.75587" lon="5.68621">
        <ele>327.47</ele>
        <time>2016-11-23T12:56:11Z</time>
      </trkpt>
      <trkpt lat="45.75583" lon="5.68607">
        <ele>327.95</ele>
        <time>2016-11-23T12:56:15Z</time>
      </trkpt>
      <trkpt lat="45.75579" lon="5.68593">
        <ele>328.43</ele>
        <time>2016-11-23T12:56:18Z</time>
      </trkpt>
      <trkpt lat="45.75576" lon="5.68578">
        <ele>328.43</ele>
        <time>2016-11-23T12:56:21Z</time>
      </trkpt>
      <trkpt lat="45.75571" lon="5.68563">
        <ele>328.43</ele>
        <time>2016-11-23T12:56:24Z</time>
      </trkpt>
      <trkpt lat="45.75567" lon="5.68548">
        <ele>328.91</ele>
        <time>2016-11-23T12:56:27Z</time>
      </trkpt>
      <trkpt lat="45.75563" lon="5.68533">
        <ele>329.39</ele>
        <time>2016-11-23T12:56:30Z</time>
      </trkpt>
      <trkpt lat="45.7556" lon="5.68518">
        <ele>329.87</ele>
        <time>2016-11-23T12:56:33Z</time>
      </trkpt>
      <trkpt lat="45.75557" lon="5.68502">
        <ele>329.87</ele>
        <time>2016-11-23T12:56:36Z</time>
      </trkpt>
      <trkpt lat="45.75554" lon="5.68487">
        <ele>329.87</ele>
        <time>2016-11-23T12:56:39Z</time>
      </trkpt>
      <trkpt lat="45.75553" lon="5.68472">
        <ele>329.39</ele>
        <time>2016-11-23T12:56:42Z</time>
      </trkpt>
      <trkpt lat="45.75554" lon="5.68456">
        <ele>329.39</ele>
        <time>2016-11-23T12:56:45Z</time>
      </trkpt>
      <trkpt lat="45.75557" lon="5.68441">
        <ele>329.87</ele>
        <time>2016-11-23T12:56:48Z</time>
      </trkpt>
      <trkpt lat="45.75561" lon="5.68425">
        <ele>328.91</ele>
        <time>2016-11-23T12:56:51Z</time>
      </trkpt>
      <trkpt lat="45.75564" lon="5.68407">
        <ele>328.91</ele>
        <time>2016-11-23T12:56:54Z</time>
      </trkpt>
      <trkpt lat="45.75568" lon="5.6839">
        <ele>328.43</ele>
        <time>2016-11-23T12:56:57Z</time>
      </trkpt>
      <trkpt lat="45.75574" lon="5.68378">
        <ele>328.43</ele>
        <time>2016-11-23T12:57:00Z</time>
      </trkpt>
      <trkpt lat="45.75578" lon="5.68364">
        <ele>327.47</ele>
        <time>2016-11-23T12:57:03Z</time>
      </trkpt>
      <trkpt lat="45.75577" lon="5.68347">
        <ele>328.43</ele>
        <time>2016-11-23T12:57:06Z</time>
      </trkpt>
      <trkpt lat="45.75577" lon="5.68329">
        <ele>327.95</ele>
        <time>2016-11-23T12:57:09Z</time>
      </trkpt>
      <trkpt lat="45.7558" lon="5.68312">
        <ele>328.91</ele>
        <time>2016-11-23T12:57:12Z</time>
      </trkpt>
      <trkpt lat="45.75583" lon="5.68293">
        <ele>328.43</ele>
        <time>2016-11-23T12:57:15Z</time>
      </trkpt>
      <trkpt lat="45.75586" lon="5.68275">
        <ele>328.43</ele>
        <time>2016-11-23T12:57:18Z</time>
      </trkpt>
      <trkpt lat="45.7559" lon="5.68256">
        <ele>328.91</ele>
        <time>2016-11-23T12:57:21Z</time>
      </trkpt>
      <trkpt lat="45.75592" lon="5.68238">
        <ele>328.91</ele>
        <time>2016-11-23T12:57:24Z</time>
      </trkpt>
      <trkpt lat="45.75595" lon="5.68221">
        <ele>329.39</ele>
        <time>2016-11-23T12:57:27Z</time>
      </trkpt>
      <trkpt lat="45.75598" lon="5.68204">
        <ele>329.87</ele>
        <time>2016-11-23T12:57:30Z</time>
      </trkpt>
      <trkpt lat="45.75601" lon="5.68188">
        <ele>329.87</ele>
        <time>2016-11-23T12:57:33Z</time>
      </trkpt>
      <trkpt lat="45.75604" lon="5.68173">
        <ele>330.35</ele>
        <time>2016-11-23T12:57:37Z</time>
      </trkpt>
      <trkpt lat="45.75606" lon="5.68159">
        <ele>330.35</ele>
        <time>2016-11-23T12:58:03Z</time>
      </trkpt>
      <trkpt lat="45.7561" lon="5.68145">
        <ele>330.35</ele>
        <time>2016-11-23T12:58:06Z</time>
      </trkpt>
      <trkpt lat="45.75615" lon="5.68128">
        <ele>329.87</ele>
        <time>2016-11-23T12:58:09Z</time>
      </trkpt>
      <trkpt lat="45.7562" lon="5.68116">
        <ele>329.39</ele>
        <time>2016-11-23T12:58:11Z</time>
      </trkpt>
      <trkpt lat="45.75626" lon="5.68104">
        <ele>329.39</ele>
        <time>2016-11-23T12:58:13Z</time>
      </trkpt>
      <trkpt lat="45.75633" lon="5.68092">
        <ele>329.39</ele>
        <time>2016-11-23T12:58:15Z</time>
      </trkpt>
      <trkpt lat="45.7564" lon="5.6808">
        <ele>327.95</ele>
        <time>2016-11-23T12:58:17Z</time>
      </trkpt>
      <trkpt lat="45.75647" lon="5.68069">
        <ele>327.95</ele>
        <time>2016-11-23T12:58:19Z</time>
      </trkpt>
      <trkpt lat="45.75654" lon="5.68058">
        <ele>328.43</ele>
        <time>2016-11-23T12:58:21Z</time>
      </trkpt>
      <trkpt lat="45.75661" lon="5.68047">
        <ele>327.95</ele>
        <time>2016-11-23T12:58:23Z</time>
      </trkpt>
      <trkpt lat="45.75667" lon="5.68035">
        <ele>327.47</ele>
        <time>2016-11-23T12:58:25Z</time>
      </trkpt>
      <trkpt lat="45.75674" lon="5.68023">
        <ele>327.47</ele>
        <time>2016-11-23T12:58:27Z</time>
      </trkpt>
      <trkpt lat="45.75681" lon="5.68011">
        <ele>326.99</ele>
        <time>2016-11-23T12:58:29Z</time>
      </trkpt>
      <trkpt lat="45.75687" lon="5.67999">
        <ele>327.47</ele>
        <time>2016-11-23T12:58:31Z</time>
      </trkpt>
      <trkpt lat="45.75694" lon="5.67987">
        <ele>326.99</ele>
        <time>2016-11-23T12:58:33Z</time>
      </trkpt>
      <trkpt lat="45.75701" lon="5.67975">
        <ele>326.99</ele>
        <time>2016-11-23T12:58:35Z</time>
      </trkpt>
      <trkpt lat="45.75707" lon="5.67963">
        <ele>326.99</ele>
        <time>2016-11-23T12:58:37Z</time>
      </trkpt>
      <trkpt lat="45.75714" lon="5.67951">
        <ele>328.43</ele>
        <time>2016-11-23T12:58:39Z</time>
      </trkpt>
      <trkpt lat="45.7572" lon="5.67939">
        <ele>327.95</ele>
        <time>2016-11-23T12:58:41Z</time>
      </trkpt>
      <trkpt lat="45.75726" lon="5.67928">
        <ele>327.47</ele>
        <time>2016-11-23T12:58:43Z</time>
      </trkpt>
      <trkpt lat="45.75731" lon="5.67916">
        <ele>326.5</ele>
        <time>2016-11-23T12:58:45Z</time>
      </trkpt>
      <trkpt lat="45.75737" lon="5.67906">
        <ele>327.47</ele>
        <time>2016-11-23T12:58:47Z</time>
      </trkpt>
      <trkpt lat="45.75743" lon="5.67895">
        <ele>326.99</ele>
        <time>2016-11-23T12:58:49Z</time>
      </trkpt>
      <trkpt lat="45.75749" lon="5.67885">
        <ele>327.47</ele>
        <time>2016-11-23T12:58:51Z</time>
      </trkpt>
      <trkpt lat="45.75755" lon="5.67875">
        <ele>326.99</ele>
        <time>2016-11-23T12:58:53Z</time>
      </trkpt>
      <trkpt lat="45.75763" lon="5.67863">
        <ele>328.43</ele>
        <time>2016-11-23T12:58:56Z</time>
      </trkpt>
      <trkpt lat="45.75772" lon="5.67853">
        <ele>328.43</ele>
        <time>2016-11-23T12:58:59Z</time>
      </trkpt>
      <trkpt lat="45.75784" lon="5.67855">
        <ele>329.39</ele>
        <time>2016-11-23T12:59:02Z</time>
      </trkpt>
      <trkpt lat="45.75794" lon="5.67867">
        <ele>329.87</ele>
        <time>2016-11-23T12:59:05Z</time>
      </trkpt>
      <trkpt lat="45.75804" lon="5.6788">
        <ele>329.39</ele>
        <time>2016-11-23T12:59:08Z</time>
      </trkpt>
      <trkpt lat="45.75813" lon="5.67893">
        <ele>329.39</ele>
        <time>2016-11-23T12:59:11Z</time>
      </trkpt>
      <trkpt lat="45.75823" lon="5.67906">
        <ele>328.91</ele>
        <time>2016-11-23T12:59:14Z</time>
      </trkpt>
      <trkpt lat="45.75831" lon="5.67915">
        <ele>328.43</ele>
        <time>2016-11-23T12:59:16Z</time>
      </trkpt>
      <trkpt lat="45.75839" lon="5.67925">
        <ele>327.95</ele>
        <time>2016-11-23T12:59:18Z</time>
      </trkpt>
      <trkpt lat="45.75847" lon="5.67934">
        <ele>327.95</ele>
        <time>2016-11-23T12:59:20Z</time>
      </trkpt>
      <trkpt lat="45.75856" lon="5.67944">
        <ele>326.99</ele>
        <time>2016-11-23T12:59:22Z</time>
      </trkpt>
      <trkpt lat="45.75865" lon="5.67954">
        <ele>326.5</ele>
        <time>2016-11-23T12:59:24Z</time>
      </trkpt>
      <trkpt lat="45.75874" lon="5.67964">
        <ele>326.99</ele>
        <time>2016-11-23T12:59:26Z</time>
      </trkpt>
      <trkpt lat="45.75883" lon="5.67975">
        <ele>326.99</ele>
        <time>2016-11-23T12:59:28Z</time>
      </trkpt>
      <trkpt lat="45.75892" lon="5.67985">
        <ele>326.99</ele>
        <time>2016-11-23T12:59:30Z</time>
      </trkpt>
      <trkpt lat="45.75901" lon="5.67997">
        <ele>327.47</ele>
        <time>2016-11-23T12:59:32Z</time>
      </trkpt>
      <trkpt lat="45.7591" lon="5.68008">
        <ele>326.99</ele>
        <time>2016-11-23T12:59:34Z</time>
      </trkpt>
      <trkpt lat="45.75918" lon="5.68019">
        <ele>326.02</ele>
        <time>2016-11-23T12:59:36Z</time>
      </trkpt>
      <trkpt lat="45.75927" lon="5.68029">
        <ele>326.5</ele>
        <time>2016-11-23T12:59:38Z</time>
      </trkpt>
      <trkpt lat="45.75935" lon="5.6804">
        <ele>326.5</ele>
        <time>2016-11-23T12:59:40Z</time>
      </trkpt>
      <trkpt lat="45.75943" lon="5.68052">
        <ele>325.54</ele>
        <time>2016-11-23T12:59:42Z</time>
      </trkpt>
      <trkpt lat="45.7595" lon="5.68062">
        <ele>326.02</ele>
        <time>2016-11-23T12:59:44Z</time>
      </trkpt>
      <trkpt lat="45.75958" lon="5.68072">
        <ele>325.54</ele>
        <time>2016-11-23T12:59:46Z</time>
      </trkpt>
      <trkpt lat="45.75966" lon="5.68083">
        <ele>325.54</ele>
        <time>2016-11-23T12:59:48Z</time>
      </trkpt>
      <trkpt lat="45.75974" lon="5.68093">
        <ele>325.54</ele>
        <time>2016-11-23T12:59:50Z</time>
      </trkpt>
      <trkpt lat="45.75982" lon="5.68103">
        <ele>326.02</ele>
        <time>2016-11-23T12:59:52Z</time>
      </trkpt>
      <trkpt lat="45.7599" lon="5.68112">
        <ele>325.06</ele>
        <time>2016-11-23T12:59:54Z</time>
      </trkpt>
      <trkpt lat="45.75998" lon="5.68122">
        <ele>326.02</ele>
        <time>2016-11-23T12:59:56Z</time>
      </trkpt>
      <trkpt lat="45.76005" lon="5.68132">
        <ele>325.54</ele>
        <time>2016-11-23T12:59:58Z</time>
      </trkpt>
      <trkpt lat="45.76013" lon="5.68141">
        <ele>325.54</ele>
        <time>2016-11-23T13:00:00Z</time>
      </trkpt>
      <trkpt lat="45.76021" lon="5.68151">
        <ele>325.54</ele>
        <time>2016-11-23T13:00:02Z</time>
      </trkpt>
      <trkpt lat="45.76028" lon="5.6816">
        <ele>325.54</ele>
        <time>2016-11-23T13:00:04Z</time>
      </trkpt>
      <trkpt lat="45.76036" lon="5.6817">
        <ele>326.02</ele>
        <time>2016-11-23T13:00:06Z</time>
      </trkpt>
      <trkpt lat="45.76043" lon="5.68179">
        <ele>326.02</ele>
        <time>2016-11-23T13:00:08Z</time>
      </trkpt>
      <trkpt lat="45.7605" lon="5.68187">
        <ele>326.02</ele>
        <time>2016-11-23T13:00:10Z</time>
      </trkpt>
      <trkpt lat="45.76057" lon="5.68196">
        <ele>326.02</ele>
        <time>2016-11-23T13:00:12Z</time>
      </trkpt>
      <trkpt lat="45.76064" lon="5.68205">
        <ele>326.02</ele>
        <time>2016-11-23T13:00:14Z</time>
      </trkpt>
      <trkpt lat="45.76071" lon="5.68214">
        <ele>327.47</ele>
        <time>2016-11-23T13:00:16Z</time>
      </trkpt>
      <trkpt lat="45.76081" lon="5.68225">
        <ele>326.5</ele>
        <time>2016-11-23T13:00:19Z</time>
      </trkpt>
      <trkpt lat="45.7609" lon="5.68237">
        <ele>326.99</ele>
        <time>2016-11-23T13:00:22Z</time>
      </trkpt>
      <trkpt lat="45.76097" lon="5.6825">
        <ele>326.99</ele>
        <time>2016-11-23T13:00:25Z</time>
      </trkpt>
      <trkpt lat="45.76105" lon="5.68246">
        <ele>326.5</ele>
        <time>2016-11-23T13:00:28Z</time>
      </trkpt>
      <trkpt lat="45.7611" lon="5.68235">
        <ele>327.47</ele>
        <time>2016-11-23T13:00:31Z</time>
      </trkpt>
      <trkpt lat="45.76116" lon="5.68225">
        <ele>328.43</ele>
        <time>2016-11-23T13:00:34Z</time>
      </trkpt>
      <trkpt lat="45.76123" lon="5.68213">
        <ele>329.39</ele>
        <time>2016-11-23T13:00:38Z</time>
      </trkpt>
      <trkpt lat="45.76129" lon="5.68202">
        <ele>329.39</ele>
        <time>2016-11-23T13:00:42Z</time>
      </trkpt>
      <trkpt lat="45.76135" lon="5.68192">
        <ele>330.83</ele>
        <time>2016-11-23T13:00:46Z</time>
      </trkpt>
      <trkpt lat="45.76142" lon="5.68182">
        <ele>331.79</ele>
        <time>2016-11-23T13:00:51Z</time>
      </trkpt>
      <trkpt lat="45.76148" lon="5.6817">
        <ele>332.75</ele>
        <time>2016-11-23T13:00:56Z</time>
      </trkpt>
      <trkpt lat="45.76153" lon="5.68159">
        <ele>334.2</ele>
        <time>2016-11-23T13:01:01Z</time>
      </trkpt>
      <trkpt lat="45.76159" lon="5.68147">
        <ele>335.64</ele>
        <time>2016-11-23T13:01:07Z</time>
      </trkpt>
      <trkpt lat="45.76161" lon="5.68134">
        <ele>337.08</ele>
        <time>2016-11-23T13:01:35Z</time>
      </trkpt>
      <trkpt lat="45.76158" lon="5.6815">
        <ele>333.23</ele>
        <time>2016-11-23T13:03:14Z</time>
      </trkpt>
      <trkpt lat="45.76149" lon="5.68164">
        <ele>331.79</ele>
        <time>2016-11-23T13:03:17Z</time>
      </trkpt>
      <trkpt lat="45.76142" lon="5.68176">
        <ele>331.79</ele>
        <time>2016-11-23T13:03:19Z</time>
      </trkpt>
      <trkpt lat="45.76135" lon="5.6819">
        <ele>330.35</ele>
        <time>2016-11-23T13:03:21Z</time>
      </trkpt>
      <trkpt lat="45.76127" lon="5.68204">
        <ele>329.39</ele>
        <time>2016-11-23T13:03:23Z</time>
      </trkpt>
      <trkpt lat="45.7612" lon="5.68217">
        <ele>327.47</ele>
        <time>2016-11-23T13:03:25Z</time>
      </trkpt>
      <trkpt lat="45.76113" lon="5.68229">
        <ele>325.54</ele>
        <time>2016-11-23T13:03:27Z</time>
      </trkpt>
      <trkpt lat="45.76106" lon="5.68239">
        <ele>324.1</ele>
        <time>2016-11-23T13:03:29Z</time>
      </trkpt>
      <trkpt lat="45.76095" lon="5.68241">
        <ele>323.62</ele>
        <time>2016-11-23T13:03:32Z</time>
      </trkpt>
      <trkpt lat="45.76085" lon="5.6823">
        <ele>322.66</ele>
        <time>2016-11-23T13:03:35Z</time>
      </trkpt>
      <trkpt lat="45.76076" lon="5.68217">
        <ele>322.66</ele>
        <time>2016-11-23T13:03:38Z</time>
      </trkpt>
      <trkpt lat="45.76068" lon="5.68208">
        <ele>322.18</ele>
        <time>2016-11-23T13:03:40Z</time>
      </trkpt>
      <trkpt lat="45.7606" lon="5.68198">
        <ele>322.18</ele>
        <time>2016-11-23T13:03:42Z</time>
      </trkpt>
      <trkpt lat="45.76052" lon="5.68188">
        <ele>322.66</ele>
        <time>2016-11-23T13:03:44Z</time>
      </trkpt>
      <trkpt lat="45.76043" lon="5.68177">
        <ele>322.18</ele>
        <time>2016-11-23T13:03:46Z</time>
      </trkpt>
      <trkpt lat="45.76035" lon="5.68165">
        <ele>322.66</ele>
        <time>2016-11-23T13:03:48Z</time>
      </trkpt>
      <trkpt lat="45.76027" lon="5.68153">
        <ele>322.18</ele>
        <time>2016-11-23T13:03:50Z</time>
      </trkpt>
      <trkpt lat="45.76017" lon="5.68142">
        <ele>321.7</ele>
        <time>2016-11-23T13:03:52Z</time>
      </trkpt>
      <trkpt lat="45.76008" lon="5.68131">
        <ele>321.7</ele>
        <time>2016-11-23T13:03:54Z</time>
      </trkpt>
      <trkpt lat="45.75999" lon="5.68119">
        <ele>321.7</ele>
        <time>2016-11-23T13:03:56Z</time>
      </trkpt>
      <trkpt lat="45.75989" lon="5.68107">
        <ele>321.22</ele>
        <time>2016-11-23T13:03:58Z</time>
      </trkpt>
      <trkpt lat="45.75979" lon="5.68095">
        <ele>321.22</ele>
        <time>2016-11-23T13:04:00Z</time>
      </trkpt>
      <trkpt lat="45.75969" lon="5.68083">
        <ele>321.22</ele>
        <time>2016-11-23T13:04:02Z</time>
      </trkpt>
      <trkpt lat="45.7596" lon="5.68071">
        <ele>321.22</ele>
        <time>2016-11-23T13:04:04Z</time>
      </trkpt>
      <trkpt lat="45.7595" lon="5.68059">
        <ele>321.22</ele>
        <time>2016-11-23T13:04:06Z</time>
      </trkpt>
      <trkpt lat="45.75941" lon="5.68047">
        <ele>320.74</ele>
        <time>2016-11-23T13:04:08Z</time>
      </trkpt>
      <trkpt lat="45.75932" lon="5.68034">
        <ele>320.74</ele>
        <time>2016-11-23T13:04:10Z</time>
      </trkpt>
      <trkpt lat="45.75923" lon="5.68021">
        <ele>320.26</ele>
        <time>2016-11-23T13:04:12Z</time>
      </trkpt>
      <trkpt lat="45.75913" lon="5.68009">
        <ele>320.26</ele>
        <time>2016-11-23T13:04:14Z</time>
      </trkpt>
      <trkpt lat="45.75904" lon="5.67998">
        <ele>320.74</ele>
        <time>2016-11-23T13:04:16Z</time>
      </trkpt>
      <trkpt lat="45.75895" lon="5.67987">
        <ele>320.74</ele>
        <time>2016-11-23T13:04:18Z</time>
      </trkpt>
      <trkpt lat="45.75887" lon="5.67976">
        <ele>320.74</ele>
        <time>2016-11-23T13:04:20Z</time>
      </trkpt>
      <trkpt lat="45.75878" lon="5.67966">
        <ele>321.22</ele>
        <time>2016-11-23T13:04:22Z</time>
      </trkpt>
      <trkpt lat="45.75869" lon="5.67955">
        <ele>321.7</ele>
        <time>2016-11-23T13:04:24Z</time>
      </trkpt>
      <trkpt lat="45.7586" lon="5.67946">
        <ele>321.7</ele>
        <time>2016-11-23T13:04:26Z</time>
      </trkpt>
      <trkpt lat="45.75852" lon="5.67937">
        <ele>322.18</ele>
        <time>2016-11-23T13:04:28Z</time>
      </trkpt>
      <trkpt lat="45.75845" lon="5.67928">
        <ele>322.66</ele>
        <time>2016-11-23T13:04:30Z</time>
      </trkpt>
      <trkpt lat="45.75837" lon="5.67918">
        <ele>323.14</ele>
        <time>2016-11-23T13:04:32Z</time>
      </trkpt>
      <trkpt lat="45.75829" lon="5.67908">
        <ele>322.66</ele>
        <time>2016-11-23T13:04:34Z</time>
      </trkpt>
      <trkpt lat="45.75822" lon="5.67899">
        <ele>322.66</ele>
        <time>2016-11-23T13:04:36Z</time>
      </trkpt>
      <trkpt lat="45.75814" lon="5.6789">
        <ele>322.66</ele>
        <time>2016-11-23T13:04:38Z</time>
      </trkpt>
      <trkpt lat="45.75807" lon="5.6788">
        <ele>322.66</ele>
        <time>2016-11-23T13:04:40Z</time>
      </trkpt>
      <trkpt lat="45.758" lon="5.67871">
        <ele>323.14</ele>
        <time>2016-11-23T13:04:42Z</time>
      </trkpt>
      <trkpt lat="45.75793" lon="5.67861">
        <ele>323.14</ele>
        <time>2016-11-23T13:04:44Z</time>
      </trkpt>
      <trkpt lat="45.75785" lon="5.67851">
        <ele>323.14</ele>
        <time>2016-11-23T13:04:46Z</time>
      </trkpt>
      <trkpt lat="45.75778" lon="5.67842">
        <ele>323.14</ele>
        <time>2016-11-23T13:04:48Z</time>
      </trkpt>
      <trkpt lat="45.75768" lon="5.67845">
        <ele>323.62</ele>
        <time>2016-11-23T13:04:51Z</time>
      </trkpt>
      <trkpt lat="45.75762" lon="5.67856">
        <ele>322.66</ele>
        <time>2016-11-23T13:04:53Z</time>
      </trkpt>
      <trkpt lat="45.75756" lon="5.67868">
        <ele>322.66</ele>
        <time>2016-11-23T13:04:55Z</time>
      </trkpt>
      <trkpt lat="45.75749" lon="5.6788">
        <ele>322.18</ele>
        <time>2016-11-23T13:04:57Z</time>
      </trkpt>
      <trkpt lat="45.75743" lon="5.67893">
        <ele>321.7</ele>
        <time>2016-11-23T13:04:59Z</time>
      </trkpt>
      <trkpt lat="45.75736" lon="5.67906">
        <ele>320.74</ele>
        <time>2016-11-23T13:05:01Z</time>
      </trkpt>
      <trkpt lat="45.75729" lon="5.67919">
        <ele>320.74</ele>
        <time>2016-11-23T13:05:03Z</time>
      </trkpt>
      <trkpt lat="45.75723" lon="5.67933">
        <ele>319.78</ele>
        <time>2016-11-23T13:05:05Z</time>
      </trkpt>
      <trkpt lat="45.75717" lon="5.67945">
        <ele>320.26</ele>
        <time>2016-11-23T13:05:07Z</time>
      </trkpt>
      <trkpt lat="45.75711" lon="5.67958">
        <ele>320.74</ele>
        <time>2016-11-23T13:05:09Z</time>
      </trkpt>
      <trkpt lat="45.75704" lon="5.6797">
        <ele>320.26</ele>
        <time>2016-11-23T13:05:11Z</time>
      </trkpt>
      <trkpt lat="45.75697" lon="5.67983">
        <ele>320.26</ele>
        <time>2016-11-23T13:05:13Z</time>
      </trkpt>
      <trkpt lat="45.7569" lon="5.67995">
        <ele>319.78</ele>
        <time>2016-11-23T13:05:15Z</time>
      </trkpt>
      <trkpt lat="45.75683" lon="5.68006">
        <ele>320.26</ele>
        <time>2016-11-23T13:05:17Z</time>
      </trkpt>
      <trkpt lat="45.75677" lon="5.68018">
        <ele>320.26</ele>
        <time>2016-11-23T13:05:19Z</time>
      </trkpt>
      <trkpt lat="45.75671" lon="5.68029">
        <ele>320.26</ele>
        <time>2016-11-23T13:05:21Z</time>
      </trkpt>
      <trkpt lat="45.75665" lon="5.68039">
        <ele>320.26</ele>
        <time>2016-11-23T13:05:23Z</time>
      </trkpt>
      <trkpt lat="45.75659" lon="5.6805">
        <ele>320.74</ele>
        <time>2016-11-23T13:05:25Z</time>
      </trkpt>
      <trkpt lat="45.75653" lon="5.6806">
        <ele>320.74</ele>
        <time>2016-11-23T13:05:27Z</time>
      </trkpt>
      <trkpt lat="45.75646" lon="5.68074">
        <ele>320.26</ele>
        <time>2016-11-23T13:05:30Z</time>
      </trkpt>
      <trkpt lat="45.75639" lon="5.68086">
        <ele>321.22</ele>
        <time>2016-11-23T13:05:33Z</time>
      </trkpt>
      <trkpt lat="45.75632" lon="5.68096">
        <ele>321.22</ele>
        <time>2016-11-23T13:05:36Z</time>
      </trkpt>
      <trkpt lat="45.75625" lon="5.68108">
        <ele>321.22</ele>
        <time>2016-11-23T13:05:39Z</time>
      </trkpt>
      <trkpt lat="45.75619" lon="5.68119">
        <ele>321.22</ele>
        <time>2016-11-23T13:05:42Z</time>
      </trkpt>
      <trkpt lat="45.75612" lon="5.68131">
        <ele>321.7</ele>
        <time>2016-11-23T13:05:45Z</time>
      </trkpt>
      <trkpt lat="45.75606" lon="5.68143">
        <ele>322.18</ele>
        <time>2016-11-23T13:05:48Z</time>
      </trkpt>
      <trkpt lat="45.756" lon="5.68155">
        <ele>321.7</ele>
        <time>2016-11-23T13:05:52Z</time>
      </trkpt>
      <trkpt lat="45.75599" lon="5.68155">
        <ele>321.22</ele>
        <time>2016-11-23T13:06:50Z</time>
      </trkpt>
      <trkpt lat="45.75589" lon="5.6815">
        <ele>321.7</ele>
        <time>2016-11-23T13:06:54Z</time>
      </trkpt>
      <trkpt lat="45.75578" lon="5.68143">
        <ele>321.22</ele>
        <time>2016-11-23T13:06:58Z</time>
      </trkpt>
      <trkpt lat="45.75568" lon="5.68136">
        <ele>322.18</ele>
        <time>2016-11-23T13:07:01Z</time>
      </trkpt>
      <trkpt lat="45.75558" lon="5.68127">
        <ele>321.7</ele>
        <time>2016-11-23T13:07:04Z</time>
      </trkpt>
      <trkpt lat="45.75546" lon="5.68116">
        <ele>322.18</ele>
        <time>2016-11-23T13:07:07Z</time>
      </trkpt>
      <trkpt lat="45.75539" lon="5.68108">
        <ele>321.7</ele>
        <time>2016-11-23T13:07:09Z</time>
      </trkpt>
      <trkpt lat="45.75531" lon="5.681">
        <ele>322.18</ele>
        <time>2016-11-23T13:07:11Z</time>
      </trkpt>
      <trkpt lat="45.75522" lon="5.68093">
        <ele>322.18</ele>
        <time>2016-11-23T13:07:13Z</time>
      </trkpt>
      <trkpt lat="45.75514" lon="5.68086">
        <ele>321.7</ele>
        <time>2016-11-23T13:07:15Z</time>
      </trkpt>
      <trkpt lat="45.75504" lon="5.68073">
        <ele>322.18</ele>
        <time>2016-11-23T13:07:18Z</time>
      </trkpt>
      <trkpt lat="45.75496" lon="5.68058">
        <ele>322.66</ele>
        <time>2016-11-23T13:07:21Z</time>
      </trkpt>
      <trkpt lat="45.75494" lon="5.68041">
        <ele>322.18</ele>
        <time>2016-11-23T13:07:24Z</time>
      </trkpt>
      <trkpt lat="45.75495" lon="5.68023">
        <ele>322.66</ele>
        <time>2016-11-23T13:07:27Z</time>
      </trkpt>
      <trkpt lat="45.75499" lon="5.68003">
        <ele>322.18</ele>
        <time>2016-11-23T13:07:30Z</time>
      </trkpt>
      <trkpt lat="45.755" lon="5.6799">
        <ele>322.66</ele>
        <time>2016-11-23T13:07:32Z</time>
      </trkpt>
      <trkpt lat="45.755" lon="5.67976">
        <ele>322.18</ele>
        <time>2016-11-23T13:07:34Z</time>
      </trkpt>
      <trkpt lat="45.75498" lon="5.67962">
        <ele>322.18</ele>
        <time>2016-11-23T13:07:36Z</time>
      </trkpt>
      <trkpt lat="45.75493" lon="5.67949">
        <ele>322.18</ele>
        <time>2016-11-23T13:07:38Z</time>
      </trkpt>
      <trkpt lat="45.75486" lon="5.67938">
        <ele>322.18</ele>
        <time>2016-11-23T13:07:40Z</time>
      </trkpt>
      <trkpt lat="45.75478" lon="5.67927">
        <ele>322.18</ele>
        <time>2016-11-23T13:07:42Z</time>
      </trkpt>
      <trkpt lat="45.75469" lon="5.67916">
        <ele>321.7</ele>
        <time>2016-11-23T13:07:44Z</time>
      </trkpt>
      <trkpt lat="45.7546" lon="5.67906">
        <ele>321.7</ele>
        <time>2016-11-23T13:07:46Z</time>
      </trkpt>
      <trkpt lat="45.7545" lon="5.67896">
        <ele>321.7</ele>
        <time>2016-11-23T13:07:48Z</time>
      </trkpt>
      <trkpt lat="45.75441" lon="5.67885">
        <ele>321.22</ele>
        <time>2016-11-23T13:07:50Z</time>
      </trkpt>
      <trkpt lat="45.75432" lon="5.67874">
        <ele>321.22</ele>
        <time>2016-11-23T13:07:52Z</time>
      </trkpt>
      <trkpt lat="45.75422" lon="5.67863">
        <ele>321.22</ele>
        <time>2016-11-23T13:07:54Z</time>
      </trkpt>
      <trkpt lat="45.75413" lon="5.67852">
        <ele>321.22</ele>
        <time>2016-11-23T13:07:56Z</time>
      </trkpt>
      <trkpt lat="45.75404" lon="5.6784">
        <ele>320.74</ele>
        <time>2016-11-23T13:07:58Z</time>
      </trkpt>
      <trkpt lat="45.75395" lon="5.67828">
        <ele>320.26</ele>
        <time>2016-11-23T13:08:00Z</time>
      </trkpt>
      <trkpt lat="45.75386" lon="5.67815">
        <ele>319.78</ele>
        <time>2016-11-23T13:08:02Z</time>
      </trkpt>
      <trkpt lat="45.75377" lon="5.67802">
        <ele>319.78</ele>
        <time>2016-11-23T13:08:04Z</time>
      </trkpt>
      <trkpt lat="45.75369" lon="5.6779">
        <ele>319.78</ele>
        <time>2016-11-23T13:08:06Z</time>
      </trkpt>
      <trkpt lat="45.7536" lon="5.67777">
        <ele>319.3</ele>
        <time>2016-11-23T13:08:08Z</time>
      </trkpt>
      <trkpt lat="45.75352" lon="5.67764">
        <ele>319.3</ele>
        <time>2016-11-23T13:08:10Z</time>
      </trkpt>
      <trkpt lat="45.75343" lon="5.67751">
        <ele>319.3</ele>
        <time>2016-11-23T13:08:12Z</time>
      </trkpt>
      <trkpt lat="45.75335" lon="5.67737">
        <ele>318.81</ele>
        <time>2016-11-23T13:08:14Z</time>
      </trkpt>
      <trkpt lat="45.75328" lon="5.67722">
        <ele>318.81</ele>
        <time>2016-11-23T13:08:16Z</time>
      </trkpt>
      <trkpt lat="45.75322" lon="5.67706">
        <ele>318.81</ele>
        <time>2016-11-23T13:08:18Z</time>
      </trkpt>
      <trkpt lat="45.75318" lon="5.6769">
        <ele>318.81</ele>
        <time>2016-11-23T13:08:20Z</time>
      </trkpt>
      <trkpt lat="45.75314" lon="5.67675">
        <ele>319.3</ele>
        <time>2016-11-23T13:08:22Z</time>
      </trkpt>
      <trkpt lat="45.7531" lon="5.67659">
        <ele>318.33</ele>
        <time>2016-11-23T13:08:24Z</time>
      </trkpt>
      <trkpt lat="45.75306" lon="5.67643">
        <ele>318.81</ele>
        <time>2016-11-23T13:08:26Z</time>
      </trkpt>
      <trkpt lat="45.75302" lon="5.67627">
        <ele>318.81</ele>
        <time>2016-11-23T13:08:28Z</time>
      </trkpt>
      <trkpt lat="45.75299" lon="5.67612">
        <ele>319.3</ele>
        <time>2016-11-23T13:08:30Z</time>
      </trkpt>
      <trkpt lat="45.75296" lon="5.67596">
        <ele>319.3</ele>
        <time>2016-11-23T13:08:32Z</time>
      </trkpt>
      <trkpt lat="45.75292" lon="5.67582">
        <ele>319.78</ele>
        <time>2016-11-23T13:08:34Z</time>
      </trkpt>
      <trkpt lat="45.75289" lon="5.67567">
        <ele>319.78</ele>
        <time>2016-11-23T13:08:36Z</time>
      </trkpt>
      <trkpt lat="45.75285" lon="5.67552">
        <ele>319.78</ele>
        <time>2016-11-23T13:08:38Z</time>
      </trkpt>
      <trkpt lat="45.75282" lon="5.67538">
        <ele>319.78</ele>
        <time>2016-11-23T13:08:40Z</time>
      </trkpt>
      <trkpt lat="45.7528" lon="5.67523">
        <ele>319.78</ele>
        <time>2016-11-23T13:08:42Z</time>
      </trkpt>
      <trkpt lat="45.75281" lon="5.67509">
        <ele>319.78</ele>
        <time>2016-11-23T13:08:44Z</time>
      </trkpt>
      <trkpt lat="45.75285" lon="5.67496">
        <ele>320.74</ele>
        <time>2016-11-23T13:08:46Z</time>
      </trkpt>
      <trkpt lat="45.75288" lon="5.67483">
        <ele>320.74</ele>
        <time>2016-11-23T13:08:48Z</time>
      </trkpt>
      <trkpt lat="45.75291" lon="5.6747">
        <ele>321.22</ele>
        <time>2016-11-23T13:08:50Z</time>
      </trkpt>
      <trkpt lat="45.75294" lon="5.67453">
        <ele>322.66</ele>
        <time>2016-11-23T13:08:53Z</time>
      </trkpt>
      <trkpt lat="45.75294" lon="5.67435">
        <ele>324.1</ele>
        <time>2016-11-23T13:08:56Z</time>
      </trkpt>
      <trkpt lat="45.75291" lon="5.67418">
        <ele>324.58</ele>
        <time>2016-11-23T13:08:59Z</time>
      </trkpt>
      <trkpt lat="45.7529" lon="5.67403">
        <ele>326.02</ele>
        <time>2016-11-23T13:09:02Z</time>
      </trkpt>
      <trkpt lat="45.75291" lon="5.67389">
        <ele>326.5</ele>
        <time>2016-11-23T13:09:05Z</time>
      </trkpt>
      <trkpt lat="45.75291" lon="5.67372">
        <ele>325.54</ele>
        <time>2016-11-23T13:09:09Z</time>
      </trkpt>
      <trkpt lat="45.75292" lon="5.67355">
        <ele>325.54</ele>
        <time>2016-11-23T13:09:12Z</time>
      </trkpt>
      <trkpt lat="45.75295" lon="5.67336">
        <ele>325.06</ele>
        <time>2016-11-23T13:09:15Z</time>
      </trkpt>
      <trkpt lat="45.75297" lon="5.67323">
        <ele>324.1</ele>
        <time>2016-11-23T13:09:17Z</time>
      </trkpt>
      <trkpt lat="45.753" lon="5.67306">
        <ele>323.62</ele>
        <time>2016-11-23T13:09:19Z</time>
      </trkpt>
      <trkpt lat="45.75302" lon="5.67286">
        <ele>322.18</ele>
        <time>2016-11-23T13:09:21Z</time>
      </trkpt>
      <trkpt lat="45.75305" lon="5.67266">
        <ele>322.18</ele>
        <time>2016-11-23T13:09:23Z</time>
      </trkpt>
      <trkpt lat="45.75307" lon="5.67245">
        <ele>321.7</ele>
        <time>2016-11-23T13:09:25Z</time>
      </trkpt>
      <trkpt lat="45.75307" lon="5.67224">
        <ele>321.7</ele>
        <time>2016-11-23T13:09:27Z</time>
      </trkpt>
      <trkpt lat="45.75308" lon="5.67205">
        <ele>321.22</ele>
        <time>2016-11-23T13:09:29Z</time>
      </trkpt>
      <trkpt lat="45.75305" lon="5.67186">
        <ele>322.18</ele>
        <time>2016-11-23T13:09:31Z</time>
      </trkpt>
      <trkpt lat="45.753" lon="5.67169">
        <ele>321.22</ele>
        <time>2016-11-23T13:09:33Z</time>
      </trkpt>
      <trkpt lat="45.75291" lon="5.67153">
        <ele>319.78</ele>
        <time>2016-11-23T13:09:35Z</time>
      </trkpt>
      <trkpt lat="45.75281" lon="5.67134">
        <ele>318.81</ele>
        <time>2016-11-23T13:09:37Z</time>
      </trkpt>
      <trkpt lat="45.75269" lon="5.67115">
        <ele>316.89</ele>
        <time>2016-11-23T13:09:39Z</time>
      </trkpt>
      <trkpt lat="45.75263" lon="5.67105">
        <ele>315.45</ele>
        <time>2016-11-23T13:09:40Z</time>
      </trkpt>
      <trkpt lat="45.75256" lon="5.67095">
        <ele>315.45</ele>
        <time>2016-11-23T13:09:41Z</time>
      </trkpt>
      <trkpt lat="45.7525" lon="5.67085">
        <ele>314.01</ele>
        <time>2016-11-23T13:09:42Z</time>
      </trkpt>
      <trkpt lat="45.75242" lon="5.67063">
        <ele>313.53</ele>
        <time>2016-11-23T13:09:44Z</time>
      </trkpt>
      <trkpt lat="45.75236" lon="5.67042">
        <ele>312.09</ele>
        <time>2016-11-23T13:09:46Z</time>
      </trkpt>
      <trkpt lat="45.75232" lon="5.67021">
        <ele>310.64</ele>
        <time>2016-11-23T13:09:48Z</time>
      </trkpt>
      <trkpt lat="45.75229" lon="5.66999">
        <ele>308.72</ele>
        <time>2016-11-23T13:09:50Z</time>
      </trkpt>
      <trkpt lat="45.75226" lon="5.66974">
        <ele>307.76</ele>
        <time>2016-11-23T13:09:52Z</time>
      </trkpt>
      <trkpt lat="45.75226" lon="5.66961">
        <ele>306.8</ele>
        <time>2016-11-23T13:09:53Z</time>
      </trkpt>
      <trkpt lat="45.75225" lon="5.66947">
        <ele>305.84</ele>
        <time>2016-11-23T13:09:54Z</time>
      </trkpt>
      <trkpt lat="45.75224" lon="5.66934">
        <ele>305.36</ele>
        <time>2016-11-23T13:09:55Z</time>
      </trkpt>
      <trkpt lat="45.75222" lon="5.6692">
        <ele>303.91</ele>
        <time>2016-11-23T13:09:56Z</time>
      </trkpt>
      <trkpt lat="45.75219" lon="5.66907">
        <ele>303.43</ele>
        <time>2016-11-23T13:09:57Z</time>
      </trkpt>
      <trkpt lat="45.7521" lon="5.66885">
        <ele>301.99</ele>
        <time>2016-11-23T13:09:59Z</time>
      </trkpt>
      <trkpt lat="45.75198" lon="5.66871">
        <ele>300.55</ele>
        <time>2016-11-23T13:10:01Z</time>
      </trkpt>
      <trkpt lat="45.75184" lon="5.66859">
        <ele>300.07</ele>
        <time>2016-11-23T13:10:03Z</time>
      </trkpt>
      <trkpt lat="45.75171" lon="5.66847">
        <ele>300.55</ele>
        <time>2016-11-23T13:10:05Z</time>
      </trkpt>
      <trkpt lat="45.75159" lon="5.66832">
        <ele>300.55</ele>
        <time>2016-11-23T13:10:07Z</time>
      </trkpt>
      <trkpt lat="45.75149" lon="5.66813">
        <ele>299.59</ele>
        <time>2016-11-23T13:10:09Z</time>
      </trkpt>
      <trkpt lat="45.7514" lon="5.6679">
        <ele>296.7</ele>
        <time>2016-11-23T13:10:11Z</time>
      </trkpt>
      <trkpt lat="45.75138" lon="5.66776">
        <ele>297.18</ele>
        <time>2016-11-23T13:10:12Z</time>
      </trkpt>
      <trkpt lat="45.75135" lon="5.66762">
        <ele>295.26</ele>
        <time>2016-11-23T13:10:13Z</time>
      </trkpt>
      <trkpt lat="45.75135" lon="5.66746">
        <ele>293.82</ele>
        <time>2016-11-23T13:10:14Z</time>
      </trkpt>
      <trkpt lat="45.75135" lon="5.6673">
        <ele>291.9</ele>
        <time>2016-11-23T13:10:15Z</time>
      </trkpt>
      <trkpt lat="45.75135" lon="5.66714">
        <ele>290.94</ele>
        <time>2016-11-23T13:10:16Z</time>
      </trkpt>
      <trkpt lat="45.75135" lon="5.66699">
        <ele>290.46</ele>
        <time>2016-11-23T13:10:17Z</time>
      </trkpt>
      <trkpt lat="45.75135" lon="5.66683">
        <ele>289.49</ele>
        <time>2016-11-23T13:10:18Z</time>
      </trkpt>
      <trkpt lat="45.75135" lon="5.66668">
        <ele>288.53</ele>
        <time>2016-11-23T13:10:19Z</time>
      </trkpt>
      <trkpt lat="45.75134" lon="5.66653">
        <ele>288.53</ele>
        <time>2016-11-23T13:10:20Z</time>
      </trkpt>
      <trkpt lat="45.75132" lon="5.66638">
        <ele>288.05</ele>
        <time>2016-11-23T13:10:21Z</time>
      </trkpt>
      <trkpt lat="45.7513" lon="5.66624">
        <ele>288.05</ele>
        <time>2016-11-23T13:10:22Z</time>
      </trkpt>
      <trkpt lat="45.75128" lon="5.66611">
        <ele>287.57</ele>
        <time>2016-11-23T13:10:23Z</time>
      </trkpt>
      <trkpt lat="45.75126" lon="5.66597">
        <ele>287.09</ele>
        <time>2016-11-23T13:10:24Z</time>
      </trkpt>
      <trkpt lat="45.75123" lon="5.66584">
        <ele>287.09</ele>
        <time>2016-11-23T13:10:25Z</time>
      </trkpt>
      <trkpt lat="45.75119" lon="5.6656">
        <ele>286.13</ele>
        <time>2016-11-23T13:10:27Z</time>
      </trkpt>
      <trkpt lat="45.75116" lon="5.66538">
        <ele>285.65</ele>
        <time>2016-11-23T13:10:29Z</time>
      </trkpt>
      <trkpt lat="45.75111" lon="5.66519">
        <ele>286.13</ele>
        <time>2016-11-23T13:10:31Z</time>
      </trkpt>
      <trkpt lat="45.75108" lon="5.66501">
        <ele>285.17</ele>
        <time>2016-11-23T13:10:33Z</time>
      </trkpt>
      <trkpt lat="45.75111" lon="5.66482">
        <ele>282.28</ele>
        <time>2016-11-23T13:10:35Z</time>
      </trkpt>
      <trkpt lat="45.75123" lon="5.66466">
        <ele>280.36</ele>
        <time>2016-11-23T13:10:37Z</time>
      </trkpt>
      <trkpt lat="45.75139" lon="5.66455">
        <ele>279.4</ele>
        <time>2016-11-23T13:10:39Z</time>
      </trkpt>
      <trkpt lat="45.75154" lon="5.66446">
        <ele>277.96</ele>
        <time>2016-11-23T13:10:41Z</time>
      </trkpt>
      <trkpt lat="45.75171" lon="5.66439">
        <ele>277</ele>
        <time>2016-11-23T13:10:43Z</time>
      </trkpt>
      <trkpt lat="45.75188" lon="5.66432">
        <ele>275.56</ele>
        <time>2016-11-23T13:10:45Z</time>
      </trkpt>
      <trkpt lat="45.75203" lon="5.66424">
        <ele>274.11</ele>
        <time>2016-11-23T13:10:47Z</time>
      </trkpt>
      <trkpt lat="45.75218" lon="5.66416">
        <ele>273.15</ele>
        <time>2016-11-23T13:10:49Z</time>
      </trkpt>
      <trkpt lat="45.75235" lon="5.66411">
        <ele>271.23</ele>
        <time>2016-11-23T13:10:51Z</time>
      </trkpt>
      <trkpt lat="45.75251" lon="5.66406">
        <ele>270.27</ele>
        <time>2016-11-23T13:10:53Z</time>
      </trkpt>
      <trkpt lat="45.75268" lon="5.66404">
        <ele>268.83</ele>
        <time>2016-11-23T13:10:55Z</time>
      </trkpt>
      <trkpt lat="45.75284" lon="5.66403">
        <ele>266.42</ele>
        <time>2016-11-23T13:10:57Z</time>
      </trkpt>
      <trkpt lat="45.75299" lon="5.66403">
        <ele>266.42</ele>
        <time>2016-11-23T13:10:59Z</time>
      </trkpt>
      <trkpt lat="45.75314" lon="5.66403">
        <ele>266.42</ele>
        <time>2016-11-23T13:11:01Z</time>
      </trkpt>
      <trkpt lat="45.75328" lon="5.66403">
        <ele>266.42</ele>
        <time>2016-11-23T13:11:03Z</time>
      </trkpt>
      <trkpt lat="45.7534" lon="5.66398">
        <ele>266.42</ele>
        <time>2016-11-23T13:11:05Z</time>
      </trkpt>
      <trkpt lat="45.75348" lon="5.66384">
        <ele>265.46</ele>
        <time>2016-11-23T13:11:07Z</time>
      </trkpt>
      <trkpt lat="45.75351" lon="5.66363">
        <ele>264.02</ele>
        <time>2016-11-23T13:11:09Z</time>
      </trkpt>
      <trkpt lat="45.75351" lon="5.66343">
        <ele>263.06</ele>
        <time>2016-11-23T13:11:11Z</time>
      </trkpt>
      <trkpt lat="45.75343" lon="5.66331">
        <ele>261.62</ele>
        <time>2016-11-23T13:11:13Z</time>
      </trkpt>
      <trkpt lat="45.75331" lon="5.66326">
        <ele>261.62</ele>
        <time>2016-11-23T13:11:15Z</time>
      </trkpt>
      <trkpt lat="45.7532" lon="5.66317">
        <ele>261.14</ele>
        <time>2016-11-23T13:11:17Z</time>
      </trkpt>
      <trkpt lat="45.75314" lon="5.663">
        <ele>261.62</ele>
        <time>2016-11-23T13:11:19Z</time>
      </trkpt>
      <trkpt lat="45.75314" lon="5.66281">
        <ele>260.65</ele>
        <time>2016-11-23T13:11:21Z</time>
      </trkpt>
      <trkpt lat="45.75316" lon="5.66262">
        <ele>260.65</ele>
        <time>2016-11-23T13:11:23Z</time>
      </trkpt>
      <trkpt lat="45.75319" lon="5.66244">
        <ele>259.69</ele>
        <time>2016-11-23T13:11:25Z</time>
      </trkpt>
      <trkpt lat="45.75322" lon="5.66228">
        <ele>259.69</ele>
        <time>2016-11-23T13:11:27Z</time>
      </trkpt>
      <trkpt lat="45.75325" lon="5.66213">
        <ele>259.69</ele>
        <time>2016-11-23T13:11:29Z</time>
      </trkpt>
      <trkpt lat="45.75327" lon="5.66199">
        <ele>259.69</ele>
        <time>2016-11-23T13:11:31Z</time>
      </trkpt>
      <trkpt lat="45.75329" lon="5.66185">
        <ele>258.73</ele>
        <time>2016-11-23T13:11:33Z</time>
      </trkpt>
      <trkpt lat="45.75329" lon="5.66171">
        <ele>259.21</ele>
        <time>2016-11-23T13:11:35Z</time>
      </trkpt>
      <trkpt lat="45.75331" lon="5.66158">
        <ele>258.73</ele>
        <time>2016-11-23T13:11:37Z</time>
      </trkpt>
      <trkpt lat="45.75329" lon="5.66143">
        <ele>258.25</ele>
        <time>2016-11-23T13:11:40Z</time>
      </trkpt>
      <trkpt lat="45.7532" lon="5.66138">
        <ele>258.25</ele>
        <time>2016-11-23T13:11:43Z</time>
      </trkpt>
      <trkpt lat="45.7531" lon="5.66135">
        <ele>258.73</ele>
        <time>2016-11-23T13:11:46Z</time>
      </trkpt>
      <trkpt lat="45.75299" lon="5.66131">
        <ele>258.25</ele>
        <time>2016-11-23T13:11:49Z</time>
      </trkpt>
      <trkpt lat="45.75287" lon="5.66127">
        <ele>258.25</ele>
        <time>2016-11-23T13:11:52Z</time>
      </trkpt>
      <trkpt lat="45.75275" lon="5.66124">
        <ele>258.73</ele>
        <time>2016-11-23T13:11:55Z</time>
      </trkpt>
      <trkpt lat="45.75263" lon="5.66118">
        <ele>258.25</ele>
        <time>2016-11-23T13:11:58Z</time>
      </trkpt>
      <trkpt lat="45.75251" lon="5.66113">
        <ele>258.25</ele>
        <time>2016-11-23T13:12:01Z</time>
      </trkpt>
      <trkpt lat="45.75239" lon="5.66108">
        <ele>258.25</ele>
        <time>2016-11-23T13:12:04Z</time>
      </trkpt>
      <trkpt lat="45.75227" lon="5.66104">
        <ele>258.25</ele>
        <time>2016-11-23T13:12:07Z</time>
      </trkpt>
      <trkpt lat="45.75214" lon="5.66099">
        <ele>258.73</ele>
        <time>2016-11-23T13:12:10Z</time>
      </trkpt>
      <trkpt lat="45.75202" lon="5.66094">
        <ele>258.73</ele>
        <time>2016-11-23T13:12:13Z</time>
      </trkpt>
      <trkpt lat="45.7519" lon="5.6609">
        <ele>258.25</ele>
        <time>2016-11-23T13:12:16Z</time>
      </trkpt>
      <trkpt lat="45.75176" lon="5.66085">
        <ele>258.73</ele>
        <time>2016-11-23T13:12:19Z</time>
      </trkpt>
      <trkpt lat="45.75168" lon="5.66082">
        <ele>258.73</ele>
        <time>2016-11-23T13:12:21Z</time>
      </trkpt>
      <trkpt lat="45.75159" lon="5.66078">
        <ele>258.73</ele>
        <time>2016-11-23T13:12:23Z</time>
      </trkpt>
      <trkpt lat="45.7515" lon="5.66076">
        <ele>259.21</ele>
        <time>2016-11-23T13:12:25Z</time>
      </trkpt>
      <trkpt lat="45.75141" lon="5.66072">
        <ele>259.21</ele>
        <time>2016-11-23T13:12:27Z</time>
      </trkpt>
      <trkpt lat="45.75128" lon="5.66066">
        <ele>258.73</ele>
        <time>2016-11-23T13:12:30Z</time>
      </trkpt>
      <trkpt lat="45.75119" lon="5.66063">
        <ele>258.73</ele>
        <time>2016-11-23T13:12:32Z</time>
      </trkpt>
      <trkpt lat="45.7511" lon="5.66059">
        <ele>258.73</ele>
        <time>2016-11-23T13:12:34Z</time>
      </trkpt>
      <trkpt lat="45.75101" lon="5.66056">
        <ele>258.73</ele>
        <time>2016-11-23T13:12:36Z</time>
      </trkpt>
      <trkpt lat="45.75093" lon="5.66053">
        <ele>258.25</ele>
        <time>2016-11-23T13:12:38Z</time>
      </trkpt>
      <trkpt lat="45.75083" lon="5.66053">
        <ele>258.73</ele>
        <time>2016-11-23T13:12:40Z</time>
      </trkpt>
      <trkpt lat="45.75073" lon="5.66055">
        <ele>258.25</ele>
        <time>2016-11-23T13:12:42Z</time>
      </trkpt>
      <trkpt lat="45.75063" lon="5.66057">
        <ele>258.25</ele>
        <time>2016-11-23T13:12:44Z</time>
      </trkpt>
      <trkpt lat="45.75054" lon="5.6606">
        <ele>257.77</ele>
        <time>2016-11-23T13:12:46Z</time>
      </trkpt>
      <trkpt lat="45.75044" lon="5.66063">
        <ele>258.25</ele>
        <time>2016-11-23T13:12:48Z</time>
      </trkpt>
      <trkpt lat="45.75035" lon="5.66067">
        <ele>257.77</ele>
        <time>2016-11-23T13:12:50Z</time>
      </trkpt>
      <trkpt lat="45.75026" lon="5.66073">
        <ele>257.77</ele>
        <time>2016-11-23T13:12:52Z</time>
      </trkpt>
      <trkpt lat="45.75016" lon="5.66078">
        <ele>257.77</ele>
        <time>2016-11-23T13:12:54Z</time>
      </trkpt>
      <trkpt lat="45.75008" lon="5.66084">
        <ele>257.77</ele>
        <time>2016-11-23T13:12:56Z</time>
      </trkpt>
      <trkpt lat="45.74999" lon="5.6609">
        <ele>258.25</ele>
        <time>2016-11-23T13:12:58Z</time>
      </trkpt>
      <trkpt lat="45.7499" lon="5.66096">
        <ele>258.25</ele>
        <time>2016-11-23T13:13:00Z</time>
      </trkpt>
      <trkpt lat="45.74981" lon="5.66101">
        <ele>257.77</ele>
        <time>2016-11-23T13:13:02Z</time>
      </trkpt>
      <trkpt lat="45.74972" lon="5.66108">
        <ele>257.29</ele>
        <time>2016-11-23T13:13:04Z</time>
      </trkpt>
      <trkpt lat="45.74963" lon="5.66115">
        <ele>257.77</ele>
        <time>2016-11-23T13:13:06Z</time>
      </trkpt>
      <trkpt lat="45.74954" lon="5.66121">
        <ele>256.81</ele>
        <time>2016-11-23T13:13:08Z</time>
      </trkpt>
      <trkpt lat="45.74944" lon="5.66125">
        <ele>256.81</ele>
        <time>2016-11-23T13:13:10Z</time>
      </trkpt>
      <trkpt lat="45.74935" lon="5.66128">
        <ele>257.77</ele>
        <time>2016-11-23T13:13:12Z</time>
      </trkpt>
      <trkpt lat="45.74925" lon="5.6613">
        <ele>257.77</ele>
        <time>2016-11-23T13:13:14Z</time>
      </trkpt>
      <trkpt lat="45.74915" lon="5.66134">
        <ele>257.77</ele>
        <time>2016-11-23T13:13:16Z</time>
      </trkpt>
      <trkpt lat="45.74904" lon="5.66138">
        <ele>256.81</ele>
        <time>2016-11-23T13:13:18Z</time>
      </trkpt>
      <trkpt lat="45.74892" lon="5.66141">
        <ele>256.81</ele>
        <time>2016-11-23T13:13:20Z</time>
      </trkpt>
      <trkpt lat="45.7488" lon="5.66146">
        <ele>255.85</ele>
        <time>2016-11-23T13:13:22Z</time>
      </trkpt>
      <trkpt lat="45.74867" lon="5.66152">
        <ele>255.85</ele>
        <time>2016-11-23T13:13:24Z</time>
      </trkpt>
      <trkpt lat="45.74855" lon="5.66158">
        <ele>255.85</ele>
        <time>2016-11-23T13:13:26Z</time>
      </trkpt>
      <trkpt lat="45.74845" lon="5.66165">
        <ele>255.85</ele>
        <time>2016-11-23T13:13:28Z</time>
      </trkpt>
      <trkpt lat="45.74834" lon="5.66171">
        <ele>255.37</ele>
        <time>2016-11-23T13:13:30Z</time>
      </trkpt>
      <trkpt lat="45.74824" lon="5.66177">
        <ele>255.37</ele>
        <time>2016-11-23T13:13:32Z</time>
      </trkpt>
      <trkpt lat="45.74814" lon="5.66182">
        <ele>254.89</ele>
        <time>2016-11-23T13:13:34Z</time>
      </trkpt>
      <trkpt lat="45.74803" lon="5.66186">
        <ele>255.85</ele>
        <time>2016-11-23T13:13:36Z</time>
      </trkpt>
      <trkpt lat="45.74794" lon="5.66191">
        <ele>255.37</ele>
        <time>2016-11-23T13:13:38Z</time>
      </trkpt>
      <trkpt lat="45.74784" lon="5.66196">
        <ele>255.37</ele>
        <time>2016-11-23T13:13:40Z</time>
      </trkpt>
      <trkpt lat="45.74775" lon="5.66203">
        <ele>254.89</ele>
        <time>2016-11-23T13:13:42Z</time>
      </trkpt>
      <trkpt lat="45.74765" lon="5.66207">
        <ele>255.37</ele>
        <time>2016-11-23T13:13:44Z</time>
      </trkpt>
      <trkpt lat="45.74756" lon="5.66212">
        <ele>254.89</ele>
        <time>2016-11-23T13:13:46Z</time>
      </trkpt>
      <trkpt lat="45.74746" lon="5.66216">
        <ele>255.37</ele>
        <time>2016-11-23T13:13:48Z</time>
      </trkpt>
      <trkpt lat="45.74737" lon="5.6622">
        <ele>255.37</ele>
        <time>2016-11-23T13:13:50Z</time>
      </trkpt>
      <trkpt lat="45.74727" lon="5.66224">
        <ele>255.85</ele>
        <time>2016-11-23T13:13:52Z</time>
      </trkpt>
      <trkpt lat="45.74718" lon="5.66228">
        <ele>255.85</ele>
        <time>2016-11-23T13:13:54Z</time>
      </trkpt>
      <trkpt lat="45.74708" lon="5.66232">
        <ele>255.37</ele>
        <time>2016-11-23T13:13:56Z</time>
      </trkpt>
      <trkpt lat="45.74698" lon="5.66236">
        <ele>254.89</ele>
        <time>2016-11-23T13:13:58Z</time>
      </trkpt>
      <trkpt lat="45.74687" lon="5.6624">
        <ele>254.89</ele>
        <time>2016-11-23T13:14:00Z</time>
      </trkpt>
      <trkpt lat="45.74676" lon="5.66243">
        <ele>254.41</ele>
        <time>2016-11-23T13:14:02Z</time>
      </trkpt>
      <trkpt lat="45.74665" lon="5.66244">
        <ele>254.41</ele>
        <time>2016-11-23T13:14:04Z</time>
      </trkpt>
      <trkpt lat="45.74654" lon="5.66245">
        <ele>254.89</ele>
        <time>2016-11-23T13:14:06Z</time>
      </trkpt>
      <trkpt lat="45.74644" lon="5.66246">
        <ele>254.41</ele>
        <time>2016-11-23T13:14:08Z</time>
      </trkpt>
      <trkpt lat="45.74633" lon="5.66247">
        <ele>254.89</ele>
        <time>2016-11-23T13:14:10Z</time>
      </trkpt>
      <trkpt lat="45.74623" lon="5.66247">
        <ele>254.89</ele>
        <time>2016-11-23T13:14:12Z</time>
      </trkpt>
      <trkpt lat="45.74613" lon="5.66246">
        <ele>254.89</ele>
        <time>2016-11-23T13:14:14Z</time>
      </trkpt>
      <trkpt lat="45.74602" lon="5.66244">
        <ele>254.89</ele>
        <time>2016-11-23T13:14:16Z</time>
      </trkpt>
      <trkpt lat="45.74591" lon="5.66244">
        <ele>254.89</ele>
        <time>2016-11-23T13:14:18Z</time>
      </trkpt>
      <trkpt lat="45.74581" lon="5.66243">
        <ele>254.41</ele>
        <time>2016-11-23T13:14:20Z</time>
      </trkpt>
      <trkpt lat="45.74571" lon="5.66241">
        <ele>255.37</ele>
        <time>2016-11-23T13:14:22Z</time>
      </trkpt>
      <trkpt lat="45.74561" lon="5.66239">
        <ele>255.37</ele>
        <time>2016-11-23T13:14:24Z</time>
      </trkpt>
      <trkpt lat="45.74552" lon="5.66238">
        <ele>254.89</ele>
        <time>2016-11-23T13:14:26Z</time>
      </trkpt>
      <trkpt lat="45.74543" lon="5.66237">
        <ele>254.41</ele>
        <time>2016-11-23T13:14:28Z</time>
      </trkpt>
      <trkpt lat="45.74533" lon="5.66237">
        <ele>254.89</ele>
        <time>2016-11-23T13:14:30Z</time>
      </trkpt>
      <trkpt lat="45.74523" lon="5.66237">
        <ele>254.89</ele>
        <time>2016-11-23T13:14:32Z</time>
      </trkpt>
      <trkpt lat="45.74514" lon="5.66239">
        <ele>254.89</ele>
        <time>2016-11-23T13:14:34Z</time>
      </trkpt>
      <trkpt lat="45.74502" lon="5.66243">
        <ele>255.37</ele>
        <time>2016-11-23T13:14:37Z</time>
      </trkpt>
      <trkpt lat="45.74492" lon="5.66248">
        <ele>256.81</ele>
        <time>2016-11-23T13:14:40Z</time>
      </trkpt>
      <trkpt lat="45.74481" lon="5.66253">
        <ele>255.37</ele>
        <time>2016-11-23T13:14:43Z</time>
      </trkpt>
      <trkpt lat="45.74471" lon="5.66259">
        <ele>256.33</ele>
        <time>2016-11-23T13:14:46Z</time>
      </trkpt>
      <trkpt lat="45.74458" lon="5.66264">
        <ele>256.33</ele>
        <time>2016-11-23T13:14:49Z</time>
      </trkpt>
      <trkpt lat="45.74445" lon="5.66268">
        <ele>256.81</ele>
        <time>2016-11-23T13:14:52Z</time>
      </trkpt>
      <trkpt lat="45.7443" lon="5.66268">
        <ele>256.33</ele>
        <time>2016-11-23T13:14:55Z</time>
      </trkpt>
      <trkpt lat="45.74415" lon="5.66268">
        <ele>255.85</ele>
        <time>2016-11-23T13:14:58Z</time>
      </trkpt>
      <trkpt lat="45.74401" lon="5.66267">
        <ele>256.33</ele>
        <time>2016-11-23T13:15:01Z</time>
      </trkpt>
      <trkpt lat="45.74388" lon="5.66267">
        <ele>256.33</ele>
        <time>2016-11-23T13:15:04Z</time>
      </trkpt>
      <trkpt lat="45.74375" lon="5.66266">
        <ele>256.33</ele>
        <time>2016-11-23T13:15:07Z</time>
      </trkpt>
      <trkpt lat="45.74363" lon="5.66265">
        <ele>256.81</ele>
        <time>2016-11-23T13:15:10Z</time>
      </trkpt>
      <trkpt lat="45.74351" lon="5.66263">
        <ele>256.81</ele>
        <time>2016-11-23T13:15:13Z</time>
      </trkpt>
      <trkpt lat="45.74339" lon="5.6626">
        <ele>257.77</ele>
        <time>2016-11-23T13:15:16Z</time>
      </trkpt>
      <trkpt lat="45.74327" lon="5.66257">
        <ele>257.29</ele>
        <time>2016-11-23T13:15:19Z</time>
      </trkpt>
      <trkpt lat="45.74315" lon="5.66252">
        <ele>257.77</ele>
        <time>2016-11-23T13:15:22Z</time>
      </trkpt>
      <trkpt lat="45.74303" lon="5.66246">
        <ele>258.25</ele>
        <time>2016-11-23T13:15:25Z</time>
      </trkpt>
      <trkpt lat="45.7429" lon="5.66239">
        <ele>257.77</ele>
        <time>2016-11-23T13:15:28Z</time>
      </trkpt>
      <trkpt lat="45.7428" lon="5.66234">
        <ele>258.25</ele>
        <time>2016-11-23T13:15:30Z</time>
      </trkpt>
      <trkpt lat="45.7427" lon="5.66227">
        <ele>257.77</ele>
        <time>2016-11-23T13:15:32Z</time>
      </trkpt>
      <trkpt lat="45.74261" lon="5.66218">
        <ele>257.29</ele>
        <time>2016-11-23T13:15:34Z</time>
      </trkpt>
      <trkpt lat="45.7425" lon="5.6621">
        <ele>256.33</ele>
        <time>2016-11-23T13:15:36Z</time>
      </trkpt>
      <trkpt lat="45.74239" lon="5.66202">
        <ele>256.81</ele>
        <time>2016-11-23T13:15:38Z</time>
      </trkpt>
      <trkpt lat="45.74228" lon="5.66195">
        <ele>256.81</ele>
        <time>2016-11-23T13:15:40Z</time>
      </trkpt>
      <trkpt lat="45.74216" lon="5.66188">
        <ele>256.33</ele>
        <time>2016-11-23T13:15:42Z</time>
      </trkpt>
      <trkpt lat="45.74205" lon="5.66181">
        <ele>256.33</ele>
        <time>2016-11-23T13:15:44Z</time>
      </trkpt>
      <trkpt lat="45.74195" lon="5.66175">
        <ele>256.33</ele>
        <time>2016-11-23T13:15:46Z</time>
      </trkpt>
      <trkpt lat="45.74184" lon="5.66168">
        <ele>256.33</ele>
        <time>2016-11-23T13:15:48Z</time>
      </trkpt>
      <trkpt lat="45.74174" lon="5.66162">
        <ele>256.33</ele>
        <time>2016-11-23T13:15:50Z</time>
      </trkpt>
      <trkpt lat="45.74164" lon="5.66155">
        <ele>255.85</ele>
        <time>2016-11-23T13:15:52Z</time>
      </trkpt>
      <trkpt lat="45.74154" lon="5.66149">
        <ele>256.33</ele>
        <time>2016-11-23T13:15:54Z</time>
      </trkpt>
      <trkpt lat="45.74145" lon="5.66143">
        <ele>255.85</ele>
        <time>2016-11-23T13:15:56Z</time>
      </trkpt>
      <trkpt lat="45.74135" lon="5.66136">
        <ele>255.85</ele>
        <time>2016-11-23T13:15:58Z</time>
      </trkpt>
      <trkpt lat="45.74125" lon="5.66127">
        <ele>255.85</ele>
        <time>2016-11-23T13:16:00Z</time>
      </trkpt>
      <trkpt lat="45.74116" lon="5.66117">
        <ele>255.37</ele>
        <time>2016-11-23T13:16:02Z</time>
      </trkpt>
      <trkpt lat="45.74106" lon="5.66107">
        <ele>254.89</ele>
        <time>2016-11-23T13:16:04Z</time>
      </trkpt>
      <trkpt lat="45.74097" lon="5.66097">
        <ele>254.41</ele>
        <time>2016-11-23T13:16:06Z</time>
      </trkpt>
      <trkpt lat="45.74087" lon="5.66087">
        <ele>253.93</ele>
        <time>2016-11-23T13:16:08Z</time>
      </trkpt>
      <trkpt lat="45.74078" lon="5.66077">
        <ele>254.41</ele>
        <time>2016-11-23T13:16:10Z</time>
      </trkpt>
      <trkpt lat="45.74069" lon="5.66068">
        <ele>254.41</ele>
        <time>2016-11-23T13:16:12Z</time>
      </trkpt>
      <trkpt lat="45.74062" lon="5.66062">
        <ele>254.41</ele>
        <time>2016-11-23T13:16:14Z</time>
      </trkpt>
      <trkpt lat="45.74053" lon="5.66052">
        <ele>253.44</ele>
        <time>2016-11-23T13:16:17Z</time>
      </trkpt>
      <trkpt lat="45.74043" lon="5.66044">
        <ele>252.96</ele>
        <time>2016-11-23T13:17:08Z</time>
      </trkpt>
      <trkpt lat="45.74039" lon="5.66029">
        <ele>252.48</ele>
        <time>2016-11-23T13:17:12Z</time>
      </trkpt>
      <trkpt lat="45.74036" lon="5.66011">
        <ele>252</ele>
        <time>2016-11-23T13:17:15Z</time>
      </trkpt>
      <trkpt lat="45.74035" lon="5.65997">
        <ele>251.52</ele>
        <time>2016-11-23T13:17:17Z</time>
      </trkpt>
      <trkpt lat="45.74036" lon="5.65981">
        <ele>251.52</ele>
        <time>2016-11-23T13:17:19Z</time>
      </trkpt>
      <trkpt lat="45.74038" lon="5.65966">
        <ele>251.04</ele>
        <time>2016-11-23T13:17:21Z</time>
      </trkpt>
      <trkpt lat="45.74041" lon="5.65952">
        <ele>251.52</ele>
        <time>2016-11-23T13:17:23Z</time>
      </trkpt>
      <trkpt lat="45.74044" lon="5.65938">
        <ele>251.04</ele>
        <time>2016-11-23T13:17:25Z</time>
      </trkpt>
      <trkpt lat="45.74047" lon="5.65923">
        <ele>251.52</ele>
        <time>2016-11-23T13:17:27Z</time>
      </trkpt>
      <trkpt lat="45.7405" lon="5.6591">
        <ele>252</ele>
        <time>2016-11-23T13:17:29Z</time>
      </trkpt>
      <trkpt lat="45.74053" lon="5.65896">
        <ele>252</ele>
        <time>2016-11-23T13:17:31Z</time>
      </trkpt>
      <trkpt lat="45.74056" lon="5.65881">
        <ele>251.52</ele>
        <time>2016-11-23T13:17:33Z</time>
      </trkpt>
      <trkpt lat="45.74062" lon="5.65865">
        <ele>251.04</ele>
        <time>2016-11-23T13:17:35Z</time>
      </trkpt>
      <trkpt lat="45.74069" lon="5.65852">
        <ele>250.56</ele>
        <time>2016-11-23T13:17:37Z</time>
      </trkpt>
      <trkpt lat="45.74077" lon="5.65839">
        <ele>249.6</ele>
        <time>2016-11-23T13:17:39Z</time>
      </trkpt>
      <trkpt lat="45.74082" lon="5.65825">
        <ele>250.56</ele>
        <time>2016-11-23T13:17:41Z</time>
      </trkpt>
      <trkpt lat="45.74085" lon="5.65812">
        <ele>250.08</ele>
        <time>2016-11-23T13:17:43Z</time>
      </trkpt>
      <trkpt lat="45.7409" lon="5.65801">
        <ele>251.04</ele>
        <time>2016-11-23T13:17:45Z</time>
      </trkpt>
      <trkpt lat="45.74098" lon="5.65787">
        <ele>251.52</ele>
        <time>2016-11-23T13:17:48Z</time>
      </trkpt>
      <trkpt lat="45.74109" lon="5.65776">
        <ele>252</ele>
        <time>2016-11-23T13:17:51Z</time>
      </trkpt>
      <trkpt lat="45.7412" lon="5.65765">
        <ele>252</ele>
        <time>2016-11-23T13:17:54Z</time>
      </trkpt>
      <trkpt lat="45.74131" lon="5.65755">
        <ele>252.48</ele>
        <time>2016-11-23T13:17:57Z</time>
      </trkpt>
      <trkpt lat="45.74142" lon="5.65744">
        <ele>252.96</ele>
        <time>2016-11-23T13:18:00Z</time>
      </trkpt>
      <trkpt lat="45.74154" lon="5.65735">
        <ele>252.96</ele>
        <time>2016-11-23T13:18:03Z</time>
      </trkpt>
      <trkpt lat="45.74165" lon="5.65726">
        <ele>252.48</ele>
        <time>2016-11-23T13:18:06Z</time>
      </trkpt>
      <trkpt lat="45.74178" lon="5.65718">
        <ele>253.44</ele>
        <time>2016-11-23T13:18:09Z</time>
      </trkpt>
      <trkpt lat="45.74191" lon="5.65713">
        <ele>253.44</ele>
        <time>2016-11-23T13:18:12Z</time>
      </trkpt>
      <trkpt lat="45.742" lon="5.6571">
        <ele>253.44</ele>
        <time>2016-11-23T13:18:14Z</time>
      </trkpt>
      <trkpt lat="45.74209" lon="5.65707">
        <ele>253.44</ele>
        <time>2016-11-23T13:18:16Z</time>
      </trkpt>
      <trkpt lat="45.74218" lon="5.65701">
        <ele>253.44</ele>
        <time>2016-11-23T13:18:18Z</time>
      </trkpt>
      <trkpt lat="45.74225" lon="5.65693">
        <ele>253.44</ele>
        <time>2016-11-23T13:18:20Z</time>
      </trkpt>
      <trkpt lat="45.7423" lon="5.65682">
        <ele>254.41</ele>
        <time>2016-11-23T13:18:22Z</time>
      </trkpt>
      <trkpt lat="45.74232" lon="5.65669">
        <ele>253.93</ele>
        <time>2016-11-23T13:18:24Z</time>
      </trkpt>
      <trkpt lat="45.74235" lon="5.6565">
        <ele>253.44</ele>
        <time>2016-11-23T13:18:27Z</time>
      </trkpt>
      <trkpt lat="45.74236" lon="5.65637">
        <ele>254.41</ele>
        <time>2016-11-23T13:18:29Z</time>
      </trkpt>
      <trkpt lat="45.74237" lon="5.65624">
        <ele>254.41</ele>
        <time>2016-11-23T13:18:31Z</time>
      </trkpt>
      <trkpt lat="45.74238" lon="5.65611">
        <ele>254.41</ele>
        <time>2016-11-23T13:18:33Z</time>
      </trkpt>
      <trkpt lat="45.74241" lon="5.65598">
        <ele>254.89</ele>
        <time>2016-11-23T13:18:35Z</time>
      </trkpt>
      <trkpt lat="45.74246" lon="5.65581">
        <ele>254.41</ele>
        <time>2016-11-23T13:18:38Z</time>
      </trkpt>
      <trkpt lat="45.74252" lon="5.65563">
        <ele>254.89</ele>
        <time>2016-11-23T13:18:41Z</time>
      </trkpt>
      <trkpt lat="45.74256" lon="5.65545">
        <ele>254.89</ele>
        <time>2016-11-23T13:18:44Z</time>
      </trkpt>
      <trkpt lat="45.74259" lon="5.65528">
        <ele>254.89</ele>
        <time>2016-11-23T13:18:47Z</time>
      </trkpt>
      <trkpt lat="45.74262" lon="5.65512">
        <ele>255.85</ele>
        <time>2016-11-23T13:18:50Z</time>
      </trkpt>
      <trkpt lat="45.74263" lon="5.65498">
        <ele>255.85</ele>
        <time>2016-11-23T13:18:53Z</time>
      </trkpt>
      <trkpt lat="45.74262" lon="5.65483">
        <ele>256.33</ele>
        <time>2016-11-23T13:18:56Z</time>
      </trkpt>
      <trkpt lat="45.74261" lon="5.65466">
        <ele>255.85</ele>
        <time>2016-11-23T13:18:59Z</time>
      </trkpt>
      <trkpt lat="45.74261" lon="5.65449">
        <ele>255.85</ele>
        <time>2016-11-23T13:19:02Z</time>
      </trkpt>
      <trkpt lat="45.74262" lon="5.65432">
        <ele>255.85</ele>
        <time>2016-11-23T13:19:05Z</time>
      </trkpt>
      <trkpt lat="45.74263" lon="5.65416">
        <ele>256.33</ele>
        <time>2016-11-23T13:19:08Z</time>
      </trkpt>
      <trkpt lat="45.74264" lon="5.65398">
        <ele>256.33</ele>
        <time>2016-11-23T13:19:11Z</time>
      </trkpt>
      <trkpt lat="45.74265" lon="5.6538">
        <ele>256.33</ele>
        <time>2016-11-23T13:19:14Z</time>
      </trkpt>
      <trkpt lat="45.74266" lon="5.65362">
        <ele>256.33</ele>
        <time>2016-11-23T13:19:17Z</time>
      </trkpt>
      <trkpt lat="45.74266" lon="5.65344">
        <ele>256.33</ele>
        <time>2016-11-23T13:19:20Z</time>
      </trkpt>
      <trkpt lat="45.74267" lon="5.65326">
        <ele>256.33</ele>
        <time>2016-11-23T13:19:23Z</time>
      </trkpt>
      <trkpt lat="45.74267" lon="5.65307">
        <ele>257.29</ele>
        <time>2016-11-23T13:19:26Z</time>
      </trkpt>
      <trkpt lat="45.74267" lon="5.6529">
        <ele>256.81</ele>
        <time>2016-11-23T13:19:29Z</time>
      </trkpt>
      <trkpt lat="45.74267" lon="5.65272">
        <ele>257.29</ele>
        <time>2016-11-23T13:19:32Z</time>
      </trkpt>
      <trkpt lat="45.74267" lon="5.65255">
        <ele>257.77</ele>
        <time>2016-11-23T13:19:35Z</time>
      </trkpt>
      <trkpt lat="45.74269" lon="5.65237">
        <ele>257.29</ele>
        <time>2016-11-23T13:19:38Z</time>
      </trkpt>
      <trkpt lat="45.7427" lon="5.6522">
        <ele>257.77</ele>
        <time>2016-11-23T13:19:41Z</time>
      </trkpt>
      <trkpt lat="45.74272" lon="5.65204">
        <ele>257.29</ele>
        <time>2016-11-23T13:19:44Z</time>
      </trkpt>
      <trkpt lat="45.74275" lon="5.65186">
        <ele>257.77</ele>
        <time>2016-11-23T13:19:47Z</time>
      </trkpt>
      <trkpt lat="45.74275" lon="5.65169">
        <ele>258.25</ele>
        <time>2016-11-23T13:19:50Z</time>
      </trkpt>
      <trkpt lat="45.74273" lon="5.65152">
        <ele>258.73</ele>
        <time>2016-11-23T13:19:53Z</time>
      </trkpt>
      <trkpt lat="45.74272" lon="5.65137">
        <ele>259.21</ele>
        <time>2016-11-23T13:19:56Z</time>
      </trkpt>
      <trkpt lat="45.74272" lon="5.65123">
        <ele>258.73</ele>
        <time>2016-11-23T13:19:59Z</time>
      </trkpt>
      <trkpt lat="45.74271" lon="5.65109">
        <ele>259.21</ele>
        <time>2016-11-23T13:20:02Z</time>
      </trkpt>
      <trkpt lat="45.7427" lon="5.65092">
        <ele>260.17</ele>
        <time>2016-11-23T13:20:06Z</time>
      </trkpt>
      <trkpt lat="45.74269" lon="5.65076">
        <ele>261.14</ele>
        <time>2016-11-23T13:20:10Z</time>
      </trkpt>
      <trkpt lat="45.74268" lon="5.6506">
        <ele>262.1</ele>
        <time>2016-11-23T13:20:16Z</time>
      </trkpt>
      <trkpt lat="45.74263" lon="5.65046">
        <ele>264.02</ele>
        <time>2016-11-23T13:20:25Z</time>
      </trkpt>
      <trkpt lat="45.74252" lon="5.65036">
        <ele>265.46</ele>
        <time>2016-11-23T13:20:50Z</time>
      </trkpt>
      <trkpt lat="45.74241" lon="5.65027">
        <ele>267.38</ele>
        <time>2016-11-23T13:21:07Z</time>
      </trkpt>
      <trkpt lat="45.7423" lon="5.65019">
        <ele>270.27</ele>
        <time>2016-11-23T13:21:26Z</time>
      </trkpt>
      <trkpt lat="45.74218" lon="5.65008">
        <ele>272.19</ele>
        <time>2016-11-23T13:22:19Z</time>
      </trkpt>
      <trkpt lat="45.74207" lon="5.65002">
        <ele>275.07</ele>
        <time>2016-11-23T13:22:44Z</time>
      </trkpt>
      <trkpt lat="45.74211" lon="5.64992">
        <ele>276.52</ele>
        <time>2016-11-23T13:23:54Z</time>
      </trkpt>
      <trkpt lat="45.74222" lon="5.64992">
        <ele>277.48</ele>
        <time>2016-11-23T13:24:04Z</time>
      </trkpt>
      <trkpt lat="45.74235" lon="5.64992">
        <ele>279.4</ele>
        <time>2016-11-23T13:24:14Z</time>
      </trkpt>
      <trkpt lat="45.74248" lon="5.64991">
        <ele>281.32</ele>
        <time>2016-11-23T13:24:23Z</time>
      </trkpt>
      <trkpt lat="45.7426" lon="5.64989">
        <ele>282.28</ele>
        <time>2016-11-23T13:24:30Z</time>
      </trkpt>
      <trkpt lat="45.74274" lon="5.64986">
        <ele>282.77</ele>
        <time>2016-11-23T13:24:37Z</time>
      </trkpt>
      <trkpt lat="45.74283" lon="5.64973">
        <ele>282.77</ele>
        <time>2016-11-23T13:24:43Z</time>
      </trkpt>
      <trkpt lat="45.74287" lon="5.64956">
        <ele>282.77</ele>
        <time>2016-11-23T13:24:47Z</time>
      </trkpt>
      <trkpt lat="45.74296" lon="5.64938">
        <ele>283.25</ele>
        <time>2016-11-23T13:24:53Z</time>
      </trkpt>
      <trkpt lat="45.74305" lon="5.64928">
        <ele>283.25</ele>
        <time>2016-11-23T13:24:59Z</time>
      </trkpt>
      <trkpt lat="45.74314" lon="5.64922">
        <ele>282.77</ele>
        <time>2016-11-23T13:25:04Z</time>
      </trkpt>
      <trkpt lat="45.7432" lon="5.64906">
        <ele>283.25</ele>
        <time>2016-11-23T13:25:12Z</time>
      </trkpt>
      <trkpt lat="45.74326" lon="5.64886">
        <ele>284.21</ele>
        <time>2016-11-23T13:25:19Z</time>
      </trkpt>
      <trkpt lat="45.7433" lon="5.64864">
        <ele>287.09</ele>
        <time>2016-11-23T13:25:29Z</time>
      </trkpt>
      <trkpt lat="45.7434" lon="5.64838">
        <ele>290.46</ele>
        <time>2016-11-23T13:25:42Z</time>
      </trkpt>
      <trkpt lat="45.74364" lon="5.64804">
        <ele>294.3</ele>
        <time>2016-11-23T13:25:58Z</time>
      </trkpt>
      <trkpt lat="45.74385" lon="5.64783">
        <ele>293.82</ele>
        <time>2016-11-23T13:26:40Z</time>
      </trkpt>
      <trkpt lat="45.74381" lon="5.64768">
        <ele>293.82</ele>
        <time>2016-11-23T13:26:47Z</time>
      </trkpt>
      <trkpt lat="45.74378" lon="5.64755">
        <ele>293.82</ele>
        <time>2016-11-23T13:26:52Z</time>
      </trkpt>
      <trkpt lat="45.74379" lon="5.64738">
        <ele>294.3</ele>
        <time>2016-11-23T13:26:58Z</time>
      </trkpt>
      <trkpt lat="45.74382" lon="5.64721">
        <ele>293.82</ele>
        <time>2016-11-23T13:27:04Z</time>
      </trkpt>
      <trkpt lat="45.74386" lon="5.647">
        <ele>293.82</ele>
        <time>2016-11-23T13:27:15Z</time>
      </trkpt>
      <trkpt lat="45.74392" lon="5.64676">
        <ele>294.3</ele>
        <time>2016-11-23T13:27:42Z</time>
      </trkpt>
      <trkpt lat="45.74393" lon="5.64666">
        <ele>296.7</ele>
        <time>2016-11-23T13:28:17Z</time>
      </trkpt>
      <trkpt lat="45.74401" lon="5.64651">
        <ele>296.22</ele>
        <time>2016-11-23T13:28:46Z</time>
      </trkpt>
      <trkpt lat="45.74404" lon="5.6463">
        <ele>300.07</ele>
        <time>2016-11-23T13:29:52Z</time>
      </trkpt>
      <trkpt lat="45.74407" lon="5.64613">
        <ele>301.51</ele>
        <time>2016-11-23T13:30:23Z</time>
      </trkpt>
      <trkpt lat="45.74404" lon="5.64597">
        <ele>300.55</ele>
        <time>2016-11-23T13:30:41Z</time>
      </trkpt>
      <trkpt lat="45.74412" lon="5.64579">
        <ele>300.07</ele>
        <time>2016-11-23T13:30:59Z</time>
      </trkpt>
      <trkpt lat="45.74408" lon="5.6456">
        <ele>299.59</ele>
        <time>2016-11-23T13:31:15Z</time>
      </trkpt>
      <trkpt lat="45.74405" lon="5.64543">
        <ele>300.55</ele>
        <time>2016-11-23T13:31:40Z</time>
      </trkpt>
      <trkpt lat="45.74403" lon="5.64522">
        <ele>299.11</ele>
        <time>2016-11-23T13:31:59Z</time>
      </trkpt>
      <trkpt lat="45.74409" lon="5.64505">
        <ele>299.59</ele>
        <time>2016-11-23T13:32:16Z</time>
      </trkpt>
      <trkpt lat="45.74411" lon="5.64481">
        <ele>299.59</ele>
        <time>2016-11-23T13:33:06Z</time>
      </trkpt>
      <trkpt lat="45.74414" lon="5.64459">
        <ele>300.55</ele>
        <time>2016-11-23T13:33:19Z</time>
      </trkpt>
      <trkpt lat="45.74428" lon="5.64438">
        <ele>301.03</ele>
        <time>2016-11-23T13:33:34Z</time>
      </trkpt>
      <trkpt lat="45.74439" lon="5.64415">
        <ele>301.51</ele>
        <time>2016-11-23T13:34:15Z</time>
      </trkpt>
      <trkpt lat="45.74442" lon="5.6441">
        <ele>301.99</ele>
        <time>2016-11-23T13:35:09Z</time>
      </trkpt>
      <trkpt lat="45.74455" lon="5.64388">
        <ele>302.47</ele>
        <time>2016-11-23T13:36:39Z</time>
      </trkpt>
      <trkpt lat="45.74451" lon="5.64391">
        <ele>302.95</ele>
        <time>2016-11-23T13:38:00Z</time>
      </trkpt>
      <trkpt lat="45.74457" lon="5.64392">
        <ele>304.88</ele>
        <time>2016-11-23T13:45:35Z</time>
      </trkpt>
      <trkpt lat="45.74444" lon="5.64413">
        <ele>303.91</ele>
        <time>2016-11-23T13:45:56Z</time>
      </trkpt>
      <trkpt lat="45.74438" lon="5.64427">
        <ele>301.99</ele>
        <time>2016-11-23T13:46:30Z</time>
      </trkpt>
      <trkpt lat="45.74439" lon="5.6442">
        <ele>302.95</ele>
        <time>2016-11-23T13:46:54Z</time>
      </trkpt>
      <trkpt lat="45.7444" lon="5.64419">
        <ele>303.43</ele>
        <time>2016-11-23T13:48:20Z</time>
      </trkpt>
      <trkpt lat="45.74434" lon="5.64434">
        <ele>302.95</ele>
        <time>2016-11-23T13:48:39Z</time>
      </trkpt>
      <trkpt lat="45.74434" lon="5.64452">
        <ele>301.99</ele>
        <time>2016-11-23T13:51:40Z</time>
      </trkpt>
      <trkpt lat="45.74439" lon="5.6444">
        <ele>303.43</ele>
        <time>2016-11-23T13:53:59Z</time>
      </trkpt>
      <trkpt lat="45.74454" lon="5.64432">
        <ele>303.91</ele>
        <time>2016-11-23T13:54:08Z</time>
      </trkpt>
      <trkpt lat="45.74466" lon="5.64418">
        <ele>304.39</ele>
        <time>2016-11-23T13:54:16Z</time>
      </trkpt>
      <trkpt lat="45.74477" lon="5.64402">
        <ele>304.88</ele>
        <time>2016-11-23T13:55:30Z</time>
      </trkpt>
      <trkpt lat="45.74481" lon="5.64396">
        <ele>306.8</ele>
        <time>2016-11-23T13:56:27Z</time>
      </trkpt>
      <trkpt lat="45.7447" lon="5.6439">
        <ele>308.72</ele>
        <time>2016-11-23T13:56:36Z</time>
      </trkpt>
      <trkpt lat="45.74467" lon="5.64361">
        <ele>310.64</ele>
        <time>2016-11-23T13:57:31Z</time>
      </trkpt>
      <trkpt lat="45.74461" lon="5.64353">
        <ele>314.49</ele>
        <time>2016-11-23T13:58:02Z</time>
      </trkpt>
      <trkpt lat="45.74455" lon="5.64348">
        <ele>318.81</ele>
        <time>2016-11-23T13:58:35Z</time>
      </trkpt>
      <trkpt lat="45.74456" lon="5.64318">
        <ele>320.26</ele>
        <time>2016-11-23T13:59:02Z</time>
      </trkpt>
      <trkpt lat="45.74455" lon="5.64302">
        <ele>321.7</ele>
        <time>2016-11-23T13:59:10Z</time>
      </trkpt>
      <trkpt lat="45.74457" lon="5.64281">
        <ele>324.1</ele>
        <time>2016-11-23T13:59:22Z</time>
      </trkpt>
      <trkpt lat="45.7446" lon="5.64261">
        <ele>326.5</ele>
        <time>2016-11-23T13:59:32Z</time>
      </trkpt>
      <trkpt lat="45.74458" lon="5.64243">
        <ele>326.5</ele>
        <time>2016-11-23T13:59:39Z</time>
      </trkpt>
      <trkpt lat="45.74458" lon="5.64227">
        <ele>326.5</ele>
        <time>2016-11-23T13:59:45Z</time>
      </trkpt>
      <trkpt lat="45.74469" lon="5.64199">
        <ele>326.5</ele>
        <time>2016-11-23T13:59:57Z</time>
      </trkpt>
      <trkpt lat="45.74482" lon="5.64179">
        <ele>326.5</ele>
        <time>2016-11-23T14:00:15Z</time>
      </trkpt>
      <trkpt lat="45.74476" lon="5.64165">
        <ele>326.99</ele>
        <time>2016-11-23T14:00:41Z</time>
      </trkpt>
      <trkpt lat="45.74476" lon="5.64153">
        <ele>327.95</ele>
        <time>2016-11-23T14:01:38Z</time>
      </trkpt>
      <trkpt lat="45.74469" lon="5.64136">
        <ele>327.95</ele>
        <time>2016-11-23T14:01:45Z</time>
      </trkpt>
      <trkpt lat="45.74461" lon="5.64122">
        <ele>328.91</ele>
        <time>2016-11-23T14:01:50Z</time>
      </trkpt>
      <trkpt lat="45.74451" lon="5.64112">
        <ele>330.35</ele>
        <time>2016-11-23T14:01:55Z</time>
      </trkpt>
      <trkpt lat="45.74443" lon="5.64104">
        <ele>331.31</ele>
        <time>2016-11-23T14:02:02Z</time>
      </trkpt>
      <trkpt lat="45.74432" lon="5.64098">
        <ele>333.23</ele>
        <time>2016-11-23T14:02:09Z</time>
      </trkpt>
      <trkpt lat="45.74422" lon="5.64094">
        <ele>334.68</ele>
        <time>2016-11-23T14:02:17Z</time>
      </trkpt>
      <trkpt lat="45.74412" lon="5.64091">
        <ele>335.64</ele>
        <time>2016-11-23T14:02:25Z</time>
      </trkpt>
      <trkpt lat="45.74402" lon="5.64088">
        <ele>337.56</ele>
        <time>2016-11-23T14:02:33Z</time>
      </trkpt>
      <trkpt lat="45.7439" lon="5.64086">
        <ele>338.04</ele>
        <time>2016-11-23T14:02:39Z</time>
      </trkpt>
      <trkpt lat="45.74377" lon="5.64083">
        <ele>338.52</ele>
        <time>2016-11-23T14:02:49Z</time>
      </trkpt>
      <trkpt lat="45.74366" lon="5.64083">
        <ele>340.44</ele>
        <time>2016-11-23T14:02:58Z</time>
      </trkpt>
      <trkpt lat="45.74351" lon="5.64081">
        <ele>342.85</ele>
        <time>2016-11-23T14:03:10Z</time>
      </trkpt>
      <trkpt lat="45.74333" lon="5.64081">
        <ele>345.25</ele>
        <time>2016-11-23T14:03:21Z</time>
      </trkpt>
      <trkpt lat="45.74319" lon="5.6408">
        <ele>348.13</ele>
        <time>2016-11-23T14:03:33Z</time>
      </trkpt>
      <trkpt lat="45.74301" lon="5.64082">
        <ele>349.58</ele>
        <time>2016-11-23T14:03:44Z</time>
      </trkpt>
      <trkpt lat="45.74281" lon="5.64083">
        <ele>350.54</ele>
        <time>2016-11-23T14:03:54Z</time>
      </trkpt>
      <trkpt lat="45.74268" lon="5.64084">
        <ele>352.46</ele>
        <time>2016-11-23T14:04:07Z</time>
      </trkpt>
      <trkpt lat="45.74255" lon="5.64087">
        <ele>353.42</ele>
        <time>2016-11-23T14:04:16Z</time>
      </trkpt>
      <trkpt lat="45.74244" lon="5.64086">
        <ele>352.94</ele>
        <time>2016-11-23T14:04:21Z</time>
      </trkpt>
      <trkpt lat="45.74226" lon="5.64088">
        <ele>353.9</ele>
        <time>2016-11-23T14:04:27Z</time>
      </trkpt>
      <trkpt lat="45.74214" lon="5.64091">
        <ele>353.9</ele>
        <time>2016-11-23T14:04:33Z</time>
      </trkpt>
      <trkpt lat="45.74201" lon="5.64095">
        <ele>354.38</ele>
        <time>2016-11-23T14:04:38Z</time>
      </trkpt>
      <trkpt lat="45.74185" lon="5.64095">
        <ele>354.86</ele>
        <time>2016-11-23T14:04:46Z</time>
      </trkpt>
      <trkpt lat="45.74171" lon="5.64093">
        <ele>355.34</ele>
        <time>2016-11-23T14:04:54Z</time>
      </trkpt>
      <trkpt lat="45.74159" lon="5.64091">
        <ele>356.79</ele>
        <time>2016-11-23T14:05:04Z</time>
      </trkpt>
      <trkpt lat="45.74144" lon="5.64093">
        <ele>356.31</ele>
        <time>2016-11-23T14:05:10Z</time>
      </trkpt>
      <trkpt lat="45.7413" lon="5.64098">
        <ele>355.83</ele>
        <time>2016-11-23T14:05:14Z</time>
      </trkpt>
      <trkpt lat="45.74113" lon="5.64101">
        <ele>356.31</ele>
        <time>2016-11-23T14:05:18Z</time>
      </trkpt>
      <trkpt lat="45.74096" lon="5.64104">
        <ele>355.83</ele>
        <time>2016-11-23T14:05:23Z</time>
      </trkpt>
      <trkpt lat="45.74082" lon="5.64105">
        <ele>356.31</ele>
        <time>2016-11-23T14:05:28Z</time>
      </trkpt>
      <trkpt lat="45.74068" lon="5.641">
        <ele>356.79</ele>
        <time>2016-11-23T14:05:33Z</time>
      </trkpt>
      <trkpt lat="45.74053" lon="5.64098">
        <ele>357.75</ele>
        <time>2016-11-23T14:05:39Z</time>
      </trkpt>
      <trkpt lat="45.74041" lon="5.64093">
        <ele>357.75</ele>
        <time>2016-11-23T14:05:46Z</time>
      </trkpt>
      <trkpt lat="45.74027" lon="5.64089">
        <ele>358.23</ele>
        <time>2016-11-23T14:05:51Z</time>
      </trkpt>
      <trkpt lat="45.74013" lon="5.64086">
        <ele>358.23</ele>
        <time>2016-11-23T14:05:55Z</time>
      </trkpt>
      <trkpt lat="45.73999" lon="5.64081">
        <ele>357.75</ele>
        <time>2016-11-23T14:06:00Z</time>
      </trkpt>
      <trkpt lat="45.73985" lon="5.64084">
        <ele>358.71</ele>
        <time>2016-11-23T14:06:06Z</time>
      </trkpt>
      <trkpt lat="45.73966" lon="5.64088">
        <ele>358.71</ele>
        <time>2016-11-23T14:06:13Z</time>
      </trkpt>
      <trkpt lat="45.73954" lon="5.64089">
        <ele>360.15</ele>
        <time>2016-11-23T14:06:18Z</time>
      </trkpt>
      <trkpt lat="45.7394" lon="5.64089">
        <ele>360.15</ele>
        <time>2016-11-23T14:06:24Z</time>
      </trkpt>
      <trkpt lat="45.73928" lon="5.64088">
        <ele>360.63</ele>
        <time>2016-11-23T14:06:29Z</time>
      </trkpt>
      <trkpt lat="45.73915" lon="5.64086">
        <ele>361.59</ele>
        <time>2016-11-23T14:06:35Z</time>
      </trkpt>
      <trkpt lat="45.73897" lon="5.64083">
        <ele>362.55</ele>
        <time>2016-11-23T14:06:43Z</time>
      </trkpt>
      <trkpt lat="45.73879" lon="5.64083">
        <ele>363.04</ele>
        <time>2016-11-23T14:06:48Z</time>
      </trkpt>
      <trkpt lat="45.73867" lon="5.6408">
        <ele>363.52</ele>
        <time>2016-11-23T14:06:53Z</time>
      </trkpt>
      <trkpt lat="45.73856" lon="5.64078">
        <ele>364</ele>
        <time>2016-11-23T14:06:59Z</time>
      </trkpt>
      <trkpt lat="45.73846" lon="5.64079">
        <ele>364.96</ele>
        <time>2016-11-23T14:07:07Z</time>
      </trkpt>
      <trkpt lat="45.73835" lon="5.64075">
        <ele>364.48</ele>
        <time>2016-11-23T14:08:09Z</time>
      </trkpt>
      <trkpt lat="45.73823" lon="5.64067">
        <ele>365.92</ele>
        <time>2016-11-23T14:08:17Z</time>
      </trkpt>
      <trkpt lat="45.7381" lon="5.64061">
        <ele>366.4</ele>
        <time>2016-11-23T14:08:23Z</time>
      </trkpt>
      <trkpt lat="45.73799" lon="5.64052">
        <ele>366.88</ele>
        <time>2016-11-23T14:08:31Z</time>
      </trkpt>
      <trkpt lat="45.73785" lon="5.64041">
        <ele>368.8</ele>
        <time>2016-11-23T14:08:40Z</time>
      </trkpt>
      <trkpt lat="45.73771" lon="5.64029">
        <ele>369.76</ele>
        <time>2016-11-23T14:08:49Z</time>
      </trkpt>
      <trkpt lat="45.73755" lon="5.64021">
        <ele>370.24</ele>
        <time>2016-11-23T14:08:57Z</time>
      </trkpt>
      <trkpt lat="45.73743" lon="5.64019">
        <ele>371.69</ele>
        <time>2016-11-23T14:09:06Z</time>
      </trkpt>
      <trkpt lat="45.73728" lon="5.64018">
        <ele>372.65</ele>
        <time>2016-11-23T14:09:14Z</time>
      </trkpt>
      <trkpt lat="45.73709" lon="5.64016">
        <ele>373.61</ele>
        <time>2016-11-23T14:09:22Z</time>
      </trkpt>
      <trkpt lat="45.7369" lon="5.64011">
        <ele>374.09</ele>
        <time>2016-11-23T14:09:31Z</time>
      </trkpt>
      <trkpt lat="45.7368" lon="5.63997">
        <ele>375.05</ele>
        <time>2016-11-23T14:09:38Z</time>
      </trkpt>
      <trkpt lat="45.73679" lon="5.63981">
        <ele>376.01</ele>
        <time>2016-11-23T14:09:45Z</time>
      </trkpt>
      <trkpt lat="45.73682" lon="5.63961">
        <ele>376.97</ele>
        <time>2016-11-23T14:09:51Z</time>
      </trkpt>
      <trkpt lat="45.73684" lon="5.63946">
        <ele>377.94</ele>
        <time>2016-11-23T14:09:58Z</time>
      </trkpt>
      <trkpt lat="45.73684" lon="5.63929">
        <ele>379.38</ele>
        <time>2016-11-23T14:10:05Z</time>
      </trkpt>
      <trkpt lat="45.73682" lon="5.6391">
        <ele>379.86</ele>
        <time>2016-11-23T14:10:14Z</time>
      </trkpt>
      <trkpt lat="45.7368" lon="5.63893">
        <ele>380.82</ele>
        <time>2016-11-23T14:10:52Z</time>
      </trkpt>
      <trkpt lat="45.73677" lon="5.63878">
        <ele>380.34</ele>
        <time>2016-11-23T14:10:57Z</time>
      </trkpt>
      <trkpt lat="45.73676" lon="5.63864">
        <ele>380.34</ele>
        <time>2016-11-23T14:11:01Z</time>
      </trkpt>
      <trkpt lat="45.73671" lon="5.63849">
        <ele>380.34</ele>
        <time>2016-11-23T14:11:05Z</time>
      </trkpt>
      <trkpt lat="45.73664" lon="5.6384">
        <ele>381.78</ele>
        <time>2016-11-23T14:11:09Z</time>
      </trkpt>
      <trkpt lat="45.73654" lon="5.63833">
        <ele>383.22</ele>
        <time>2016-11-23T14:11:14Z</time>
      </trkpt>
      <trkpt lat="45.73646" lon="5.63823">
        <ele>383.7</ele>
        <time>2016-11-23T14:11:19Z</time>
      </trkpt>
      <trkpt lat="45.73639" lon="5.6381">
        <ele>384.18</ele>
        <time>2016-11-23T14:11:25Z</time>
      </trkpt>
      <trkpt lat="45.73634" lon="5.63794">
        <ele>385.15</ele>
        <time>2016-11-23T14:11:31Z</time>
      </trkpt>
      <trkpt lat="45.7363" lon="5.63779">
        <ele>385.15</ele>
        <time>2016-11-23T14:11:35Z</time>
      </trkpt>
      <trkpt lat="45.73624" lon="5.63766">
        <ele>384.66</ele>
        <time>2016-11-23T14:11:39Z</time>
      </trkpt>
      <trkpt lat="45.73616" lon="5.63757">
        <ele>386.11</ele>
        <time>2016-11-23T14:11:43Z</time>
      </trkpt>
      <trkpt lat="45.73607" lon="5.63748">
        <ele>386.59</ele>
        <time>2016-11-23T14:11:47Z</time>
      </trkpt>
      <trkpt lat="45.73598" lon="5.63741">
        <ele>387.07</ele>
        <time>2016-11-23T14:11:51Z</time>
      </trkpt>
      <trkpt lat="45.73591" lon="5.6373">
        <ele>387.55</ele>
        <time>2016-11-23T14:11:56Z</time>
      </trkpt>
      <trkpt lat="45.73591" lon="5.63714">
        <ele>389.47</ele>
        <time>2016-11-23T14:12:03Z</time>
      </trkpt>
      <trkpt lat="45.73595" lon="5.63698">
        <ele>389.95</ele>
        <time>2016-11-23T14:12:10Z</time>
      </trkpt>
      <trkpt lat="45.73598" lon="5.63682">
        <ele>390.91</ele>
        <time>2016-11-23T14:12:17Z</time>
      </trkpt>
      <trkpt lat="45.73599" lon="5.63669">
        <ele>392.36</ele>
        <time>2016-11-23T14:12:24Z</time>
      </trkpt>
      <trkpt lat="45.73605" lon="5.6367">
        <ele>393.32</ele>
        <time>2016-11-23T14:12:34Z</time>
      </trkpt>
      <trkpt lat="45.73615" lon="5.63673">
        <ele>392.84</ele>
        <time>2016-11-23T14:13:10Z</time>
      </trkpt>
      <trkpt lat="45.73627" lon="5.63677">
        <ele>393.8</ele>
        <time>2016-11-23T14:13:20Z</time>
      </trkpt>
      <trkpt lat="45.73638" lon="5.63679">
        <ele>394.28</ele>
        <time>2016-11-23T14:13:26Z</time>
      </trkpt>
      <trkpt lat="45.73649" lon="5.63683">
        <ele>395.24</ele>
        <time>2016-11-23T14:13:33Z</time>
      </trkpt>
      <trkpt lat="45.7366" lon="5.6369">
        <ele>395.24</ele>
        <time>2016-11-23T14:13:38Z</time>
      </trkpt>
      <trkpt lat="45.7367" lon="5.63698">
        <ele>395.72</ele>
        <time>2016-11-23T14:13:43Z</time>
      </trkpt>
      <trkpt lat="45.7368" lon="5.63706">
        <ele>396.2</ele>
        <time>2016-11-23T14:13:47Z</time>
      </trkpt>
      <trkpt lat="45.73689" lon="5.63714">
        <ele>396.2</ele>
        <time>2016-11-23T14:13:51Z</time>
      </trkpt>
      <trkpt lat="45.73698" lon="5.63721">
        <ele>396.2</ele>
        <time>2016-11-23T14:13:55Z</time>
      </trkpt>
      <trkpt lat="45.73708" lon="5.63728">
        <ele>396.68</ele>
        <time>2016-11-23T14:14:00Z</time>
      </trkpt>
      <trkpt lat="45.73718" lon="5.63737">
        <ele>397.16</ele>
        <time>2016-11-23T14:14:05Z</time>
      </trkpt>
      <trkpt lat="45.73728" lon="5.63744">
        <ele>397.16</ele>
        <time>2016-11-23T14:14:09Z</time>
      </trkpt>
      <trkpt lat="45.7374" lon="5.6375">
        <ele>397.16</ele>
        <time>2016-11-23T14:14:13Z</time>
      </trkpt>
      <trkpt lat="45.73751" lon="5.63757">
        <ele>396.68</ele>
        <time>2016-11-23T14:14:17Z</time>
      </trkpt>
      <trkpt lat="45.73758" lon="5.63767">
        <ele>397.16</ele>
        <time>2016-11-23T14:14:20Z</time>
      </trkpt>
      <trkpt lat="45.73768" lon="5.63781">
        <ele>396.68</ele>
        <time>2016-11-23T14:14:24Z</time>
      </trkpt>
      <trkpt lat="45.73778" lon="5.63789">
        <ele>395.72</ele>
        <time>2016-11-23T14:14:27Z</time>
      </trkpt>
      <trkpt lat="45.73791" lon="5.63799">
        <ele>395.24</ele>
        <time>2016-11-23T14:14:30Z</time>
      </trkpt>
      <trkpt lat="45.738" lon="5.63807">
        <ele>394.28</ele>
        <time>2016-11-23T14:14:32Z</time>
      </trkpt>
      <trkpt lat="45.73809" lon="5.63815">
        <ele>393.8</ele>
        <time>2016-11-23T14:14:34Z</time>
      </trkpt>
      <trkpt lat="45.7382" lon="5.63819">
        <ele>392.84</ele>
        <time>2016-11-23T14:14:37Z</time>
      </trkpt>
      <trkpt lat="45.7383" lon="5.63824">
        <ele>392.36</ele>
        <time>2016-11-23T14:14:41Z</time>
      </trkpt>
      <trkpt lat="45.73841" lon="5.63831">
        <ele>392.36</ele>
        <time>2016-11-23T14:14:44Z</time>
      </trkpt>
      <trkpt lat="45.73852" lon="5.63839">
        <ele>391.87</ele>
        <time>2016-11-23T14:14:47Z</time>
      </trkpt>
      <trkpt lat="45.73864" lon="5.63846">
        <ele>391.87</ele>
        <time>2016-11-23T14:14:50Z</time>
      </trkpt>
      <trkpt lat="45.73875" lon="5.63852">
        <ele>391.87</ele>
        <time>2016-11-23T14:14:53Z</time>
      </trkpt>
      <trkpt lat="45.73889" lon="5.63856">
        <ele>391.39</ele>
        <time>2016-11-23T14:14:56Z</time>
      </trkpt>
      <trkpt lat="45.73899" lon="5.63857">
        <ele>390.43</ele>
        <time>2016-11-23T14:14:58Z</time>
      </trkpt>
      <trkpt lat="45.73909" lon="5.63859">
        <ele>389.95</ele>
        <time>2016-11-23T14:15:00Z</time>
      </trkpt>
      <trkpt lat="45.73921" lon="5.63863">
        <ele>389.47</ele>
        <time>2016-11-23T14:15:03Z</time>
      </trkpt>
      <trkpt lat="45.73932" lon="5.63866">
        <ele>388.03</ele>
        <time>2016-11-23T14:15:07Z</time>
      </trkpt>
      <trkpt lat="45.73944" lon="5.6387">
        <ele>388.51</ele>
        <time>2016-11-23T14:15:11Z</time>
      </trkpt>
      <trkpt lat="45.73966" lon="5.63867">
        <ele>389.95</ele>
        <time>2016-11-23T14:15:29Z</time>
      </trkpt>
      <trkpt lat="45.73976" lon="5.63865">
        <ele>390.91</ele>
        <time>2016-11-23T14:15:35Z</time>
      </trkpt>
      <trkpt lat="45.73989" lon="5.63867">
        <ele>392.36</ele>
        <time>2016-11-23T14:15:41Z</time>
      </trkpt>
      <trkpt lat="45.73997" lon="5.63861">
        <ele>392.84</ele>
        <time>2016-11-23T14:15:48Z</time>
      </trkpt>
      <trkpt lat="45.73999" lon="5.63845">
        <ele>394.76</ele>
        <time>2016-11-23T14:15:56Z</time>
      </trkpt>
      <trkpt lat="45.74001" lon="5.63827">
        <ele>393.8</ele>
        <time>2016-11-23T14:16:09Z</time>
      </trkpt>
      <trkpt lat="45.74003" lon="5.6381">
        <ele>392.84</ele>
        <time>2016-11-23T14:16:13Z</time>
      </trkpt>
      <trkpt lat="45.74009" lon="5.63797">
        <ele>391.87</ele>
        <time>2016-11-23T14:16:17Z</time>
      </trkpt>
      <trkpt lat="45.74017" lon="5.63789">
        <ele>390.91</ele>
        <time>2016-11-23T14:16:22Z</time>
      </trkpt>
      <trkpt lat="45.74013" lon="5.63777">
        <ele>390.91</ele>
        <time>2016-11-23T14:16:45Z</time>
      </trkpt>
      <trkpt lat="45.74008" lon="5.63764">
        <ele>391.39</ele>
        <time>2016-11-23T14:16:53Z</time>
      </trkpt>
      <trkpt lat="45.74008" lon="5.63749">
        <ele>390.91</ele>
        <time>2016-11-23T14:16:58Z</time>
      </trkpt>
      <trkpt lat="45.74008" lon="5.63731">
        <ele>390.43</ele>
        <time>2016-11-23T14:17:02Z</time>
      </trkpt>
      <trkpt lat="45.74007" lon="5.63714">
        <ele>388.99</ele>
        <time>2016-11-23T14:17:06Z</time>
      </trkpt>
      <trkpt lat="45.74008" lon="5.637">
        <ele>387.07</ele>
        <time>2016-11-23T14:17:09Z</time>
      </trkpt>
      <trkpt lat="45.74014" lon="5.63683">
        <ele>386.59</ele>
        <time>2016-11-23T14:17:13Z</time>
      </trkpt>
      <trkpt lat="45.74015" lon="5.63668">
        <ele>386.59</ele>
        <time>2016-11-23T14:17:17Z</time>
      </trkpt>
      <trkpt lat="45.74025" lon="5.63641">
        <ele>387.07</ele>
        <time>2016-11-23T14:17:26Z</time>
      </trkpt>
      <trkpt lat="45.74039" lon="5.63638">
        <ele>389.47</ele>
        <time>2016-11-23T14:17:34Z</time>
      </trkpt>
      <trkpt lat="45.74056" lon="5.63632">
        <ele>390.91</ele>
        <time>2016-11-23T14:17:41Z</time>
      </trkpt>
      <trkpt lat="45.74072" lon="5.6363">
        <ele>391.87</ele>
        <time>2016-11-23T14:17:47Z</time>
      </trkpt>
      <trkpt lat="45.74087" lon="5.63629">
        <ele>391.87</ele>
        <time>2016-11-23T14:17:53Z</time>
      </trkpt>
      <trkpt lat="45.74101" lon="5.6363">
        <ele>391.87</ele>
        <time>2016-11-23T14:17:59Z</time>
      </trkpt>
      <trkpt lat="45.74116" lon="5.63628">
        <ele>392.36</ele>
        <time>2016-11-23T14:18:04Z</time>
      </trkpt>
      <trkpt lat="45.74128" lon="5.63627">
        <ele>392.36</ele>
        <time>2016-11-23T14:18:08Z</time>
      </trkpt>
      <trkpt lat="45.7414" lon="5.63625">
        <ele>392.36</ele>
        <time>2016-11-23T14:18:12Z</time>
      </trkpt>
      <trkpt lat="45.74155" lon="5.63622">
        <ele>392.36</ele>
        <time>2016-11-23T14:18:16Z</time>
      </trkpt>
      <trkpt lat="45.74168" lon="5.63619">
        <ele>391.39</ele>
        <time>2016-11-23T14:18:20Z</time>
      </trkpt>
      <trkpt lat="45.74183" lon="5.63617">
        <ele>391.87</ele>
        <time>2016-11-23T14:18:24Z</time>
      </trkpt>
      <trkpt lat="45.74198" lon="5.63615">
        <ele>391.39</ele>
        <time>2016-11-23T14:18:28Z</time>
      </trkpt>
      <trkpt lat="45.7421" lon="5.63615">
        <ele>391.39</ele>
        <time>2016-11-23T14:18:31Z</time>
      </trkpt>
      <trkpt lat="45.74222" lon="5.63613">
        <ele>391.39</ele>
        <time>2016-11-23T14:18:34Z</time>
      </trkpt>
      <trkpt lat="45.74236" lon="5.6361">
        <ele>390.43</ele>
        <time>2016-11-23T14:18:37Z</time>
      </trkpt>
      <trkpt lat="45.7425" lon="5.6361">
        <ele>390.43</ele>
        <time>2016-11-23T14:18:40Z</time>
      </trkpt>
      <trkpt lat="45.7426" lon="5.63608">
        <ele>390.91</ele>
        <time>2016-11-23T14:18:43Z</time>
      </trkpt>
      <trkpt lat="45.74272" lon="5.63602">
        <ele>390.43</ele>
        <time>2016-11-23T14:18:47Z</time>
      </trkpt>
      <trkpt lat="45.74285" lon="5.63602">
        <ele>389.95</ele>
        <time>2016-11-23T14:18:51Z</time>
      </trkpt>
      <trkpt lat="45.743" lon="5.63604">
        <ele>389.47</ele>
        <time>2016-11-23T14:18:54Z</time>
      </trkpt>
      <trkpt lat="45.74311" lon="5.63604">
        <ele>388.99</ele>
        <time>2016-11-23T14:18:56Z</time>
      </trkpt>
      <trkpt lat="45.74321" lon="5.63604">
        <ele>388.51</ele>
        <time>2016-11-23T14:18:58Z</time>
      </trkpt>
      <trkpt lat="45.74332" lon="5.63604">
        <ele>388.03</ele>
        <time>2016-11-23T14:19:00Z</time>
      </trkpt>
      <trkpt lat="45.74342" lon="5.63604">
        <ele>387.07</ele>
        <time>2016-11-23T14:19:02Z</time>
      </trkpt>
      <trkpt lat="45.74353" lon="5.63605">
        <ele>386.11</ele>
        <time>2016-11-23T14:19:04Z</time>
      </trkpt>
      <trkpt lat="45.74365" lon="5.63606">
        <ele>385.63</ele>
        <time>2016-11-23T14:19:06Z</time>
      </trkpt>
      <trkpt lat="45.74377" lon="5.63607">
        <ele>385.63</ele>
        <time>2016-11-23T14:19:08Z</time>
      </trkpt>
      <trkpt lat="45.74388" lon="5.63614">
        <ele>384.66</ele>
        <time>2016-11-23T14:19:10Z</time>
      </trkpt>
      <trkpt lat="45.74399" lon="5.63622">
        <ele>384.66</ele>
        <time>2016-11-23T14:19:13Z</time>
      </trkpt>
      <trkpt lat="45.74414" lon="5.63623">
        <ele>383.7</ele>
        <time>2016-11-23T14:19:19Z</time>
      </trkpt>
      <trkpt lat="45.74427" lon="5.63621">
        <ele>384.18</ele>
        <time>2016-11-23T14:19:26Z</time>
      </trkpt>
      <trkpt lat="45.7444" lon="5.63614">
        <ele>384.66</ele>
        <time>2016-11-23T14:19:33Z</time>
      </trkpt>
      <trkpt lat="45.74447" lon="5.63598">
        <ele>384.18</ele>
        <time>2016-11-23T14:19:37Z</time>
      </trkpt>
      <trkpt lat="45.74455" lon="5.63584">
        <ele>384.18</ele>
        <time>2016-11-23T14:19:40Z</time>
      </trkpt>
      <trkpt lat="45.74462" lon="5.63572">
        <ele>384.18</ele>
        <time>2016-11-23T14:19:44Z</time>
      </trkpt>
      <trkpt lat="45.74472" lon="5.63566">
        <ele>383.7</ele>
        <time>2016-11-23T14:19:48Z</time>
      </trkpt>
      <trkpt lat="45.74483" lon="5.63564">
        <ele>383.22</ele>
        <time>2016-11-23T14:19:51Z</time>
      </trkpt>
      <trkpt lat="45.74494" lon="5.63564">
        <ele>383.22</ele>
        <time>2016-11-23T14:19:54Z</time>
      </trkpt>
      <trkpt lat="45.74503" lon="5.63568">
        <ele>383.7</ele>
        <time>2016-11-23T14:19:57Z</time>
      </trkpt>
      <trkpt lat="45.74514" lon="5.63574">
        <ele>382.74</ele>
        <time>2016-11-23T14:20:00Z</time>
      </trkpt>
      <trkpt lat="45.74529" lon="5.63579">
        <ele>380.82</ele>
        <time>2016-11-23T14:20:03Z</time>
      </trkpt>
      <trkpt lat="45.7454" lon="5.6358">
        <ele>380.34</ele>
        <time>2016-11-23T14:20:05Z</time>
      </trkpt>
      <trkpt lat="45.74551" lon="5.6358">
        <ele>381.3</ele>
        <time>2016-11-23T14:20:07Z</time>
      </trkpt>
      <trkpt lat="45.74568" lon="5.63579">
        <ele>380.82</ele>
        <time>2016-11-23T14:20:10Z</time>
      </trkpt>
      <trkpt lat="45.7458" lon="5.63576">
        <ele>380.82</ele>
        <time>2016-11-23T14:20:13Z</time>
      </trkpt>
      <trkpt lat="45.74591" lon="5.63566">
        <ele>379.86</ele>
        <time>2016-11-23T14:20:16Z</time>
      </trkpt>
      <trkpt lat="45.74606" lon="5.63553">
        <ele>379.86</ele>
        <time>2016-11-23T14:20:19Z</time>
      </trkpt>
      <trkpt lat="45.74615" lon="5.63547">
        <ele>377.94</ele>
        <time>2016-11-23T14:20:21Z</time>
      </trkpt>
      <trkpt lat="45.74626" lon="5.63549">
        <ele>376.97</ele>
        <time>2016-11-23T14:20:23Z</time>
      </trkpt>
      <trkpt lat="45.74637" lon="5.63556">
        <ele>375.53</ele>
        <time>2016-11-23T14:20:25Z</time>
      </trkpt>
      <trkpt lat="45.74646" lon="5.63564">
        <ele>374.09</ele>
        <time>2016-11-23T14:20:27Z</time>
      </trkpt>
      <trkpt lat="45.74656" lon="5.63572">
        <ele>372.65</ele>
        <time>2016-11-23T14:20:29Z</time>
      </trkpt>
      <trkpt lat="45.74666" lon="5.63574">
        <ele>371.69</ele>
        <time>2016-11-23T14:20:31Z</time>
      </trkpt>
      <trkpt lat="45.74678" lon="5.63577">
        <ele>370.73</ele>
        <time>2016-11-23T14:20:33Z</time>
      </trkpt>
      <trkpt lat="45.74689" lon="5.6358">
        <ele>369.76</ele>
        <time>2016-11-23T14:20:35Z</time>
      </trkpt>
      <trkpt lat="45.747" lon="5.63582">
        <ele>369.28</ele>
        <time>2016-11-23T14:20:37Z</time>
      </trkpt>
      <trkpt lat="45.74711" lon="5.63583">
        <ele>368.32</ele>
        <time>2016-11-23T14:20:39Z</time>
      </trkpt>
      <trkpt lat="45.74721" lon="5.63585">
        <ele>368.32</ele>
        <time>2016-11-23T14:20:41Z</time>
      </trkpt>
      <trkpt lat="45.74732" lon="5.63589">
        <ele>368.32</ele>
        <time>2016-11-23T14:20:43Z</time>
      </trkpt>
      <trkpt lat="45.74746" lon="5.63589">
        <ele>368.8</ele>
        <time>2016-11-23T14:20:46Z</time>
      </trkpt>
      <trkpt lat="45.74758" lon="5.63583">
        <ele>366.88</ele>
        <time>2016-11-23T14:20:49Z</time>
      </trkpt>
      <trkpt lat="45.74769" lon="5.63571">
        <ele>364.96</ele>
        <time>2016-11-23T14:20:52Z</time>
      </trkpt>
      <trkpt lat="45.74781" lon="5.63561">
        <ele>362.07</ele>
        <time>2016-11-23T14:20:55Z</time>
      </trkpt>
      <trkpt lat="45.74792" lon="5.63555">
        <ele>360.15</ele>
        <time>2016-11-23T14:20:57Z</time>
      </trkpt>
      <trkpt lat="45.74801" lon="5.63548">
        <ele>358.23</ele>
        <time>2016-11-23T14:20:59Z</time>
      </trkpt>
      <trkpt lat="45.74813" lon="5.63541">
        <ele>356.79</ele>
        <time>2016-11-23T14:21:02Z</time>
      </trkpt>
      <trkpt lat="45.74827" lon="5.63531">
        <ele>355.83</ele>
        <time>2016-11-23T14:21:09Z</time>
      </trkpt>
      <trkpt lat="45.74816" lon="5.63531">
        <ele>354.86</ele>
        <time>2016-11-23T14:21:43Z</time>
      </trkpt>
      <trkpt lat="45.74806" lon="5.63528">
        <ele>355.34</ele>
        <time>2016-11-23T14:21:49Z</time>
      </trkpt>
      <trkpt lat="45.74791" lon="5.63529">
        <ele>354.86</ele>
        <time>2016-11-23T14:22:00Z</time>
      </trkpt>
      <trkpt lat="45.74781" lon="5.63526">
        <ele>354.86</ele>
        <time>2016-11-23T14:22:04Z</time>
      </trkpt>
      <trkpt lat="45.74771" lon="5.63522">
        <ele>354.86</ele>
        <time>2016-11-23T14:22:09Z</time>
      </trkpt>
      <trkpt lat="45.74761" lon="5.63519">
        <ele>354.86</ele>
        <time>2016-11-23T14:22:13Z</time>
      </trkpt>
      <trkpt lat="45.7475" lon="5.63516">
        <ele>354.86</ele>
        <time>2016-11-23T14:22:17Z</time>
      </trkpt>
      <trkpt lat="45.74739" lon="5.63514">
        <ele>354.86</ele>
        <time>2016-11-23T14:22:22Z</time>
      </trkpt>
      <trkpt lat="45.74729" lon="5.63512">
        <ele>354.86</ele>
        <time>2016-11-23T14:22:26Z</time>
      </trkpt>
      <trkpt lat="45.74719" lon="5.63512">
        <ele>355.34</ele>
        <time>2016-11-23T14:22:30Z</time>
      </trkpt>
      <trkpt lat="45.74708" lon="5.63512">
        <ele>355.34</ele>
        <time>2016-11-23T14:22:35Z</time>
      </trkpt>
      <trkpt lat="45.74698" lon="5.63508">
        <ele>355.34</ele>
        <time>2016-11-23T14:22:40Z</time>
      </trkpt>
      <trkpt lat="45.74688" lon="5.63503">
        <ele>354.86</ele>
        <time>2016-11-23T14:22:46Z</time>
      </trkpt>
      <trkpt lat="45.74678" lon="5.63496">
        <ele>355.34</ele>
        <time>2016-11-23T14:22:52Z</time>
      </trkpt>
      <trkpt lat="45.74669" lon="5.6349">
        <ele>355.34</ele>
        <time>2016-11-23T14:22:57Z</time>
      </trkpt>
      <trkpt lat="45.74659" lon="5.63483">
        <ele>355.34</ele>
        <time>2016-11-23T14:23:02Z</time>
      </trkpt>
      <trkpt lat="45.74652" lon="5.63476">
        <ele>354.86</ele>
        <time>2016-11-23T14:23:07Z</time>
      </trkpt>
      <trkpt lat="45.74644" lon="5.63467">
        <ele>354.86</ele>
        <time>2016-11-23T14:23:11Z</time>
      </trkpt>
      <trkpt lat="45.74634" lon="5.63459">
        <ele>355.34</ele>
        <time>2016-11-23T14:23:15Z</time>
      </trkpt>
      <trkpt lat="45.74623" lon="5.63453">
        <ele>354.38</ele>
        <time>2016-11-23T14:23:19Z</time>
      </trkpt>
      <trkpt lat="45.74614" lon="5.63446">
        <ele>355.34</ele>
        <time>2016-11-23T14:23:23Z</time>
      </trkpt>
      <trkpt lat="45.74602" lon="5.6344">
        <ele>355.83</ele>
        <time>2016-11-23T14:23:29Z</time>
      </trkpt>
      <trkpt lat="45.74591" lon="5.63434">
        <ele>356.31</ele>
        <time>2016-11-23T14:23:36Z</time>
      </trkpt>
      <trkpt lat="45.7458" lon="5.63427">
        <ele>357.27</ele>
        <time>2016-11-23T14:23:43Z</time>
      </trkpt>
      <trkpt lat="45.74572" lon="5.63416">
        <ele>357.27</ele>
        <time>2016-11-23T14:23:49Z</time>
      </trkpt>
      <trkpt lat="45.74567" lon="5.63401">
        <ele>357.27</ele>
        <time>2016-11-23T14:23:55Z</time>
      </trkpt>
      <trkpt lat="45.74566" lon="5.63385">
        <ele>356.79</ele>
        <time>2016-11-23T14:23:59Z</time>
      </trkpt>
      <trkpt lat="45.74568" lon="5.63369">
        <ele>356.79</ele>
        <time>2016-11-23T14:24:03Z</time>
      </trkpt>
      <trkpt lat="45.7457" lon="5.63354">
        <ele>357.27</ele>
        <time>2016-11-23T14:24:07Z</time>
      </trkpt>
      <trkpt lat="45.7457" lon="5.63339">
        <ele>357.27</ele>
        <time>2016-11-23T14:24:12Z</time>
      </trkpt>
      <trkpt lat="45.74571" lon="5.63324">
        <ele>358.23</ele>
        <time>2016-11-23T14:24:18Z</time>
      </trkpt>
      <trkpt lat="45.74571" lon="5.6331">
        <ele>359.19</ele>
        <time>2016-11-23T14:24:25Z</time>
      </trkpt>
      <trkpt lat="45.74564" lon="5.6331">
        <ele>360.15</ele>
        <time>2016-11-23T14:24:34Z</time>
      </trkpt>
      <trkpt lat="45.74555" lon="5.63316">
        <ele>361.11</ele>
        <time>2016-11-23T14:24:41Z</time>
      </trkpt>
      <trkpt lat="45.74544" lon="5.63322">
        <ele>363.04</ele>
        <time>2016-11-23T14:24:48Z</time>
      </trkpt>
      <trkpt lat="45.74535" lon="5.63325">
        <ele>364.48</ele>
        <time>2016-11-23T14:24:55Z</time>
      </trkpt>
      <trkpt lat="45.74524" lon="5.63326">
        <ele>365.44</ele>
        <time>2016-11-23T14:25:02Z</time>
      </trkpt>
      <trkpt lat="45.74514" lon="5.63325">
        <ele>367.36</ele>
        <time>2016-11-23T14:25:09Z</time>
      </trkpt>
      <trkpt lat="45.74505" lon="5.63327">
        <ele>367.84</ele>
        <time>2016-11-23T14:25:14Z</time>
      </trkpt>
      <trkpt lat="45.74495" lon="5.63328">
        <ele>368.32</ele>
        <time>2016-11-23T14:25:21Z</time>
      </trkpt>
      <trkpt lat="45.74483" lon="5.63331">
        <ele>369.76</ele>
        <time>2016-11-23T14:25:29Z</time>
      </trkpt>
      <trkpt lat="45.74473" lon="5.63334">
        <ele>371.21</ele>
        <time>2016-11-23T14:25:37Z</time>
      </trkpt>
      <trkpt lat="45.74461" lon="5.63336">
        <ele>372.17</ele>
        <time>2016-11-23T14:25:45Z</time>
      </trkpt>
      <trkpt lat="45.7445" lon="5.63337">
        <ele>373.61</ele>
        <time>2016-11-23T14:25:53Z</time>
      </trkpt>
      <trkpt lat="45.74442" lon="5.63333">
        <ele>374.57</ele>
        <time>2016-11-23T14:26:01Z</time>
      </trkpt>
      <trkpt lat="45.74435" lon="5.63321">
        <ele>375.53</ele>
        <time>2016-11-23T14:26:26Z</time>
      </trkpt>
      <trkpt lat="45.74435" lon="5.63321">
        <ele>373.13</ele>
        <time>2016-11-23T14:37:24Z</time>
      </trkpt>
      <trkpt lat="45.74428" lon="5.63308">
        <ele>372.65</ele>
        <time>2016-11-23T14:38:58Z</time>
      </trkpt>
      <trkpt lat="45.7442" lon="5.63296">
        <ele>373.13</ele>
        <time>2016-11-23T14:39:03Z</time>
      </trkpt>
      <trkpt lat="45.74414" lon="5.63284">
        <ele>373.61</ele>
        <time>2016-11-23T14:39:07Z</time>
      </trkpt>
      <trkpt lat="45.74407" lon="5.63273">
        <ele>374.09</ele>
        <time>2016-11-23T14:39:11Z</time>
      </trkpt>
      <trkpt lat="45.744" lon="5.63262">
        <ele>375.53</ele>
        <time>2016-11-23T14:39:16Z</time>
      </trkpt>
      <trkpt lat="45.74391" lon="5.63254">
        <ele>376.01</ele>
        <time>2016-11-23T14:39:22Z</time>
      </trkpt>
      <trkpt lat="45.74381" lon="5.63252">
        <ele>376.01</ele>
        <time>2016-11-23T14:39:27Z</time>
      </trkpt>
      <trkpt lat="45.74369" lon="5.63252">
        <ele>376.01</ele>
        <time>2016-11-23T14:39:32Z</time>
      </trkpt>
      <trkpt lat="45.74359" lon="5.63245">
        <ele>376.49</ele>
        <time>2016-11-23T14:39:37Z</time>
      </trkpt>
      <trkpt lat="45.74349" lon="5.63236">
        <ele>377.45</ele>
        <time>2016-11-23T14:39:42Z</time>
      </trkpt>
      <trkpt lat="45.74337" lon="5.63232">
        <ele>377.94</ele>
        <time>2016-11-23T14:39:48Z</time>
      </trkpt>
      <trkpt lat="45.74324" lon="5.63228">
        <ele>378.42</ele>
        <time>2016-11-23T14:39:54Z</time>
      </trkpt>
      <trkpt lat="45.74311" lon="5.63228">
        <ele>377.94</ele>
        <time>2016-11-23T14:39:59Z</time>
      </trkpt>
      <trkpt lat="45.74297" lon="5.63227">
        <ele>377.94</ele>
        <time>2016-11-23T14:40:04Z</time>
      </trkpt>
      <trkpt lat="45.74285" lon="5.63237">
        <ele>378.42</ele>
        <time>2016-11-23T14:40:08Z</time>
      </trkpt>
      <trkpt lat="45.74275" lon="5.63246">
        <ele>377.94</ele>
        <time>2016-11-23T14:40:11Z</time>
      </trkpt>
      <trkpt lat="45.74263" lon="5.63254">
        <ele>377.45</ele>
        <time>2016-11-23T14:40:14Z</time>
      </trkpt>
      <trkpt lat="45.74251" lon="5.63261">
        <ele>376.97</ele>
        <time>2016-11-23T14:40:17Z</time>
      </trkpt>
      <trkpt lat="45.74242" lon="5.63264">
        <ele>376.49</ele>
        <time>2016-11-23T14:40:19Z</time>
      </trkpt>
      <trkpt lat="45.74232" lon="5.63267">
        <ele>376.01</ele>
        <time>2016-11-23T14:40:21Z</time>
      </trkpt>
      <trkpt lat="45.74219" lon="5.63267">
        <ele>375.53</ele>
        <time>2016-11-23T14:40:24Z</time>
      </trkpt>
      <trkpt lat="45.74208" lon="5.63266">
        <ele>375.53</ele>
        <time>2016-11-23T14:40:27Z</time>
      </trkpt>
      <trkpt lat="45.74195" lon="5.63263">
        <ele>375.53</ele>
        <time>2016-11-23T14:40:30Z</time>
      </trkpt>
      <trkpt lat="45.74184" lon="5.63254">
        <ele>375.53</ele>
        <time>2016-11-23T14:40:33Z</time>
      </trkpt>
      <trkpt lat="45.74174" lon="5.63243">
        <ele>375.05</ele>
        <time>2016-11-23T14:40:36Z</time>
      </trkpt>
      <trkpt lat="45.74161" lon="5.63234">
        <ele>373.61</ele>
        <time>2016-11-23T14:40:39Z</time>
      </trkpt>
      <trkpt lat="45.74151" lon="5.63228">
        <ele>374.09</ele>
        <time>2016-11-23T14:40:41Z</time>
      </trkpt>
      <trkpt lat="45.74143" lon="5.6322">
        <ele>373.13</ele>
        <time>2016-11-23T14:40:43Z</time>
      </trkpt>
      <trkpt lat="45.74135" lon="5.6321">
        <ele>373.61</ele>
        <time>2016-11-23T14:40:45Z</time>
      </trkpt>
      <trkpt lat="45.74128" lon="5.63197">
        <ele>374.09</ele>
        <time>2016-11-23T14:40:48Z</time>
      </trkpt>
      <trkpt lat="45.74121" lon="5.63187">
        <ele>374.09</ele>
        <time>2016-11-23T14:40:51Z</time>
      </trkpt>
      <trkpt lat="45.7411" lon="5.63176">
        <ele>373.13</ele>
        <time>2016-11-23T14:40:54Z</time>
      </trkpt>
      <trkpt lat="45.74099" lon="5.63167">
        <ele>372.65</ele>
        <time>2016-11-23T14:40:57Z</time>
      </trkpt>
      <trkpt lat="45.74096" lon="5.63154">
        <ele>372.17</ele>
        <time>2016-11-23T14:41:01Z</time>
      </trkpt>
      <trkpt lat="45.74102" lon="5.63143">
        <ele>372.65</ele>
        <time>2016-11-23T14:41:06Z</time>
      </trkpt>
      <trkpt lat="45.74108" lon="5.63128">
        <ele>372.65</ele>
        <time>2016-11-23T14:41:10Z</time>
      </trkpt>
      <trkpt lat="45.74112" lon="5.63114">
        <ele>374.57</ele>
        <time>2016-11-23T14:41:15Z</time>
      </trkpt>
      <trkpt lat="45.74117" lon="5.63099">
        <ele>375.05</ele>
        <time>2016-11-23T14:41:19Z</time>
      </trkpt>
      <trkpt lat="45.74124" lon="5.63088">
        <ele>375.53</ele>
        <time>2016-11-23T14:41:22Z</time>
      </trkpt>
      <trkpt lat="45.74134" lon="5.63081">
        <ele>375.53</ele>
        <time>2016-11-23T14:41:25Z</time>
      </trkpt>
      <trkpt lat="45.74143" lon="5.63075">
        <ele>376.49</ele>
        <time>2016-11-23T14:41:29Z</time>
      </trkpt>
      <trkpt lat="45.74154" lon="5.63068">
        <ele>376.49</ele>
        <time>2016-11-23T14:41:33Z</time>
      </trkpt>
      <trkpt lat="45.74164" lon="5.63062">
        <ele>376.01</ele>
        <time>2016-11-23T14:41:36Z</time>
      </trkpt>
      <trkpt lat="45.74177" lon="5.63053">
        <ele>376.01</ele>
        <time>2016-11-23T14:41:39Z</time>
      </trkpt>
      <trkpt lat="45.74188" lon="5.63043">
        <ele>375.53</ele>
        <time>2016-11-23T14:41:42Z</time>
      </trkpt>
      <trkpt lat="45.74199" lon="5.63029">
        <ele>374.57</ele>
        <time>2016-11-23T14:41:45Z</time>
      </trkpt>
      <trkpt lat="45.74208" lon="5.63015">
        <ele>374.09</ele>
        <time>2016-11-23T14:41:48Z</time>
      </trkpt>
      <trkpt lat="45.74214" lon="5.62999">
        <ele>373.13</ele>
        <time>2016-11-23T14:41:51Z</time>
      </trkpt>
      <trkpt lat="45.74214" lon="5.6298">
        <ele>372.17</ele>
        <time>2016-11-23T14:41:54Z</time>
      </trkpt>
      <trkpt lat="45.74215" lon="5.62967">
        <ele>371.21</ele>
        <time>2016-11-23T14:42:17Z</time>
      </trkpt>
      <trkpt lat="45.74219" lon="5.62983">
        <ele>371.69</ele>
        <time>2016-11-23T14:42:33Z</time>
      </trkpt>
      <trkpt lat="45.74216" lon="5.62997">
        <ele>372.17</ele>
        <time>2016-11-23T14:42:39Z</time>
      </trkpt>
      <trkpt lat="45.74216" lon="5.63007">
        <ele>373.13</ele>
        <time>2016-11-23T14:43:12Z</time>
      </trkpt>
      <trkpt lat="45.74221" lon="5.63003">
        <ele>373.13</ele>
        <time>2016-11-23T14:57:05Z</time>
      </trkpt>
      <trkpt lat="45.74232" lon="5.62999">
        <ele>374.09</ele>
        <time>2016-11-23T14:57:10Z</time>
      </trkpt>
      <trkpt lat="45.74241" lon="5.62995">
        <ele>374.09</ele>
        <time>2016-11-23T14:57:14Z</time>
      </trkpt>
      <trkpt lat="45.74251" lon="5.62992">
        <ele>375.53</ele>
        <time>2016-11-23T14:57:19Z</time>
      </trkpt>
      <trkpt lat="45.74261" lon="5.62983">
        <ele>376.01</ele>
        <time>2016-11-23T14:57:42Z</time>
      </trkpt>
      <trkpt lat="45.74269" lon="5.62977">
        <ele>375.53</ele>
        <time>2016-11-23T14:57:45Z</time>
      </trkpt>
      <trkpt lat="45.74279" lon="5.62975">
        <ele>375.53</ele>
        <time>2016-11-23T14:57:48Z</time>
      </trkpt>
      <trkpt lat="45.74294" lon="5.62974">
        <ele>376.97</ele>
        <time>2016-11-23T14:58:12Z</time>
      </trkpt>
      <trkpt lat="45.74301" lon="5.62971">
        <ele>378.42</ele>
        <time>2016-11-23T14:58:25Z</time>
      </trkpt>
      <trkpt lat="45.7431" lon="5.62964">
        <ele>381.3</ele>
        <time>2016-11-23T14:58:35Z</time>
      </trkpt>
      <trkpt lat="45.74319" lon="5.62958">
        <ele>382.26</ele>
        <time>2016-11-23T14:58:51Z</time>
      </trkpt>
      <trkpt lat="45.7433" lon="5.62954">
        <ele>383.22</ele>
        <time>2016-11-23T14:58:57Z</time>
      </trkpt>
      <trkpt lat="45.7434" lon="5.62948">
        <ele>385.63</ele>
        <time>2016-11-23T14:59:07Z</time>
      </trkpt>
      <trkpt lat="45.74351" lon="5.62944">
        <ele>387.55</ele>
        <time>2016-11-23T14:59:16Z</time>
      </trkpt>
      <trkpt lat="45.74361" lon="5.6294">
        <ele>388.03</ele>
        <time>2016-11-23T14:59:38Z</time>
      </trkpt>
      <trkpt lat="45.7437" lon="5.62934">
        <ele>390.43</ele>
        <time>2016-11-23T14:59:55Z</time>
      </trkpt>
      <trkpt lat="45.74379" lon="5.62929">
        <ele>392.84</ele>
        <time>2016-11-23T15:00:12Z</time>
      </trkpt>
      <trkpt lat="45.74392" lon="5.62926">
        <ele>394.28</ele>
        <time>2016-11-23T15:00:44Z</time>
      </trkpt>
      <trkpt lat="45.744" lon="5.62927">
        <ele>396.2</ele>
        <time>2016-11-23T15:00:54Z</time>
      </trkpt>
      <trkpt lat="45.7441" lon="5.62931">
        <ele>398.12</ele>
        <time>2016-11-23T15:01:12Z</time>
      </trkpt>
      <trkpt lat="45.7442" lon="5.6294">
        <ele>399.57</ele>
        <time>2016-11-23T15:01:21Z</time>
      </trkpt>
      <trkpt lat="45.7443" lon="5.62944">
        <ele>400.05</ele>
        <time>2016-11-23T15:01:27Z</time>
      </trkpt>
      <trkpt lat="45.74439" lon="5.62951">
        <ele>400.53</ele>
        <time>2016-11-23T15:01:32Z</time>
      </trkpt>
      <trkpt lat="45.74448" lon="5.62958">
        <ele>401.49</ele>
        <time>2016-11-23T15:01:36Z</time>
      </trkpt>
      <trkpt lat="45.74457" lon="5.62963">
        <ele>401.01</ele>
        <time>2016-11-23T15:01:39Z</time>
      </trkpt>
      <trkpt lat="45.74469" lon="5.62966">
        <ele>399.57</ele>
        <time>2016-11-23T15:01:42Z</time>
      </trkpt>
      <trkpt lat="45.74479" lon="5.62974">
        <ele>399.08</ele>
        <time>2016-11-23T15:01:45Z</time>
      </trkpt>
      <trkpt lat="45.74491" lon="5.6298">
        <ele>398.12</ele>
        <time>2016-11-23T15:01:48Z</time>
      </trkpt>
      <trkpt lat="45.74501" lon="5.62986">
        <ele>397.64</ele>
        <time>2016-11-23T15:01:51Z</time>
      </trkpt>
      <trkpt lat="45.74513" lon="5.62988">
        <ele>395.72</ele>
        <time>2016-11-23T15:01:55Z</time>
      </trkpt>
      <trkpt lat="45.74526" lon="5.62988">
        <ele>395.24</ele>
        <time>2016-11-23T15:01:59Z</time>
      </trkpt>
      <trkpt lat="45.74539" lon="5.62982">
        <ele>393.32</ele>
        <time>2016-11-23T15:02:02Z</time>
      </trkpt>
      <trkpt lat="45.74552" lon="5.62973">
        <ele>391.87</ele>
        <time>2016-11-23T15:02:05Z</time>
      </trkpt>
      <trkpt lat="45.74563" lon="5.62956">
        <ele>391.39</ele>
        <time>2016-11-23T15:02:08Z</time>
      </trkpt>
      <trkpt lat="45.74574" lon="5.62944">
        <ele>391.39</ele>
        <time>2016-11-23T15:02:11Z</time>
      </trkpt>
      <trkpt lat="45.74585" lon="5.62934">
        <ele>391.39</ele>
        <time>2016-11-23T15:02:14Z</time>
      </trkpt>
      <trkpt lat="45.74596" lon="5.62932">
        <ele>390.91</ele>
        <time>2016-11-23T15:02:17Z</time>
      </trkpt>
      <trkpt lat="45.74606" lon="5.62933">
        <ele>391.39</ele>
        <time>2016-11-23T15:02:20Z</time>
      </trkpt>
      <trkpt lat="45.74618" lon="5.62936">
        <ele>391.87</ele>
        <time>2016-11-23T15:02:24Z</time>
      </trkpt>
      <trkpt lat="45.74628" lon="5.62938">
        <ele>391.87</ele>
        <time>2016-11-23T15:02:30Z</time>
      </trkpt>
      <trkpt lat="45.74639" lon="5.62937">
        <ele>392.84</ele>
        <time>2016-11-23T15:02:37Z</time>
      </trkpt>
      <trkpt lat="45.74653" lon="5.62935">
        <ele>392.36</ele>
        <time>2016-11-23T15:02:42Z</time>
      </trkpt>
      <trkpt lat="45.74662" lon="5.62936">
        <ele>391.39</ele>
        <time>2016-11-23T15:02:45Z</time>
      </trkpt>
      <trkpt lat="45.74668" lon="5.62924">
        <ele>391.39</ele>
        <time>2016-11-23T15:02:48Z</time>
      </trkpt>
      <trkpt lat="45.74671" lon="5.62908">
        <ele>391.39</ele>
        <time>2016-11-23T15:02:51Z</time>
      </trkpt>
      <trkpt lat="45.74678" lon="5.62898">
        <ele>389.47</ele>
        <time>2016-11-23T15:02:55Z</time>
      </trkpt>
      <trkpt lat="45.74687" lon="5.62889">
        <ele>388.03</ele>
        <time>2016-11-23T15:02:59Z</time>
      </trkpt>
      <trkpt lat="45.74694" lon="5.62874">
        <ele>385.15</ele>
        <time>2016-11-23T15:03:03Z</time>
      </trkpt>
      <trkpt lat="45.74691" lon="5.62862">
        <ele>383.7</ele>
        <time>2016-11-23T15:03:06Z</time>
      </trkpt>
      <trkpt lat="45.74679" lon="5.62855">
        <ele>382.74</ele>
        <time>2016-11-23T15:03:09Z</time>
      </trkpt>
      <trkpt lat="45.7467" lon="5.62852">
        <ele>380.34</ele>
        <time>2016-11-23T15:03:13Z</time>
      </trkpt>
      <trkpt lat="45.7466" lon="5.62849">
        <ele>379.38</ele>
        <time>2016-11-23T15:04:24Z</time>
      </trkpt>
      <trkpt lat="45.74663" lon="5.62835">
        <ele>379.38</ele>
        <time>2016-11-23T15:04:30Z</time>
      </trkpt>
      <trkpt lat="45.74669" lon="5.62824">
        <ele>381.78</ele>
        <time>2016-11-23T15:04:37Z</time>
      </trkpt>
      <trkpt lat="45.74675" lon="5.62812">
        <ele>382.74</ele>
        <time>2016-11-23T15:04:44Z</time>
      </trkpt>
      <trkpt lat="45.74684" lon="5.62808">
        <ele>384.66</ele>
        <time>2016-11-23T15:04:51Z</time>
      </trkpt>
      <trkpt lat="45.74694" lon="5.62812">
        <ele>384.18</ele>
        <time>2016-11-23T15:04:57Z</time>
      </trkpt>
      <trkpt lat="45.74703" lon="5.62811">
        <ele>385.15</ele>
        <time>2016-11-23T15:05:03Z</time>
      </trkpt>
      <trkpt lat="45.74713" lon="5.62805">
        <ele>386.11</ele>
        <time>2016-11-23T15:05:10Z</time>
      </trkpt>
      <trkpt lat="45.74723" lon="5.62801">
        <ele>387.07</ele>
        <time>2016-11-23T15:05:17Z</time>
      </trkpt>
      <trkpt lat="45.74733" lon="5.62799">
        <ele>388.99</ele>
        <time>2016-11-23T15:05:37Z</time>
      </trkpt>
      <trkpt lat="45.74743" lon="5.62795">
        <ele>390.91</ele>
        <time>2016-11-23T15:05:52Z</time>
      </trkpt>
      <trkpt lat="45.74754" lon="5.62793">
        <ele>390.91</ele>
        <time>2016-11-23T15:06:01Z</time>
      </trkpt>
      <trkpt lat="45.74764" lon="5.62788">
        <ele>391.39</ele>
        <time>2016-11-23T15:06:05Z</time>
      </trkpt>
      <trkpt lat="45.74776" lon="5.62792">
        <ele>391.39</ele>
        <time>2016-11-23T15:06:10Z</time>
      </trkpt>
      <trkpt lat="45.74788" lon="5.62794">
        <ele>392.84</ele>
        <time>2016-11-23T15:06:16Z</time>
      </trkpt>
      <trkpt lat="45.74799" lon="5.62798">
        <ele>394.28</ele>
        <time>2016-11-23T15:06:23Z</time>
      </trkpt>
      <trkpt lat="45.74811" lon="5.62802">
        <ele>395.72</ele>
        <time>2016-11-23T15:06:32Z</time>
      </trkpt>
      <trkpt lat="45.74822" lon="5.62805">
        <ele>396.2</ele>
        <time>2016-11-23T15:06:39Z</time>
      </trkpt>
      <trkpt lat="45.74834" lon="5.62806">
        <ele>397.16</ele>
        <time>2016-11-23T15:06:45Z</time>
      </trkpt>
      <trkpt lat="45.74846" lon="5.62809">
        <ele>396.68</ele>
        <time>2016-11-23T15:06:49Z</time>
      </trkpt>
      <trkpt lat="45.74858" lon="5.62818">
        <ele>396.2</ele>
        <time>2016-11-23T15:06:53Z</time>
      </trkpt>
      <trkpt lat="45.74869" lon="5.62828">
        <ele>395.24</ele>
        <time>2016-11-23T15:06:56Z</time>
      </trkpt>
      <trkpt lat="45.74879" lon="5.62837">
        <ele>392.36</ele>
        <time>2016-11-23T15:07:00Z</time>
      </trkpt>
      <trkpt lat="45.74891" lon="5.62826">
        <ele>392.84</ele>
        <time>2016-11-23T15:07:46Z</time>
      </trkpt>
      <trkpt lat="45.74901" lon="5.6282">
        <ele>393.32</ele>
        <time>2016-11-23T15:07:57Z</time>
      </trkpt>
      <trkpt lat="45.7491" lon="5.62813">
        <ele>394.28</ele>
        <time>2016-11-23T15:08:01Z</time>
      </trkpt>
      <trkpt lat="45.74916" lon="5.62803">
        <ele>393.32</ele>
        <time>2016-11-23T15:08:04Z</time>
      </trkpt>
      <trkpt lat="45.74924" lon="5.62793">
        <ele>392.84</ele>
        <time>2016-11-23T15:08:07Z</time>
      </trkpt>
      <trkpt lat="45.74935" lon="5.62787">
        <ele>392.84</ele>
        <time>2016-11-23T15:08:11Z</time>
      </trkpt>
      <trkpt lat="45.74942" lon="5.62775">
        <ele>392.84</ele>
        <time>2016-11-23T15:08:15Z</time>
      </trkpt>
      <trkpt lat="45.7495" lon="5.62764">
        <ele>393.32</ele>
        <time>2016-11-23T15:08:18Z</time>
      </trkpt>
      <trkpt lat="45.74959" lon="5.62765">
        <ele>391.39</ele>
        <time>2016-11-23T15:08:21Z</time>
      </trkpt>
      <trkpt lat="45.74972" lon="5.62764">
        <ele>390.91</ele>
        <time>2016-11-23T15:08:25Z</time>
      </trkpt>
      <trkpt lat="45.74984" lon="5.62756">
        <ele>390.91</ele>
        <time>2016-11-23T15:08:29Z</time>
      </trkpt>
      <trkpt lat="45.74994" lon="5.62748">
        <ele>391.39</ele>
        <time>2016-11-23T15:08:32Z</time>
      </trkpt>
      <trkpt lat="45.75005" lon="5.62743">
        <ele>390.91</ele>
        <time>2016-11-23T15:08:36Z</time>
      </trkpt>
      <trkpt lat="45.75018" lon="5.62742">
        <ele>390.91</ele>
        <time>2016-11-23T15:08:40Z</time>
      </trkpt>
      <trkpt lat="45.75029" lon="5.62745">
        <ele>391.39</ele>
        <time>2016-11-23T15:08:44Z</time>
      </trkpt>
      <trkpt lat="45.75044" lon="5.62748">
        <ele>390.43</ele>
        <time>2016-11-23T15:10:17Z</time>
      </trkpt>
      <trkpt lat="45.75054" lon="5.62747">
        <ele>390.43</ele>
        <time>2016-11-23T15:10:21Z</time>
      </trkpt>
      <trkpt lat="45.75067" lon="5.62745">
        <ele>389.47</ele>
        <time>2016-11-23T15:10:24Z</time>
      </trkpt>
      <trkpt lat="45.75077" lon="5.62745">
        <ele>388.99</ele>
        <time>2016-11-23T15:10:26Z</time>
      </trkpt>
      <trkpt lat="45.75088" lon="5.62745">
        <ele>388.51</ele>
        <time>2016-11-23T15:10:28Z</time>
      </trkpt>
      <trkpt lat="45.75099" lon="5.62745">
        <ele>387.55</ele>
        <time>2016-11-23T15:10:30Z</time>
      </trkpt>
      <trkpt lat="45.7511" lon="5.62743">
        <ele>386.59</ele>
        <time>2016-11-23T15:10:32Z</time>
      </trkpt>
      <trkpt lat="45.75121" lon="5.62742">
        <ele>386.59</ele>
        <time>2016-11-23T15:10:34Z</time>
      </trkpt>
      <trkpt lat="45.75131" lon="5.62741">
        <ele>386.59</ele>
        <time>2016-11-23T15:10:36Z</time>
      </trkpt>
      <trkpt lat="45.7514" lon="5.62741">
        <ele>387.07</ele>
        <time>2016-11-23T15:10:38Z</time>
      </trkpt>
      <trkpt lat="45.75153" lon="5.62741">
        <ele>387.55</ele>
        <time>2016-11-23T15:10:41Z</time>
      </trkpt>
      <trkpt lat="45.75163" lon="5.62743">
        <ele>387.55</ele>
        <time>2016-11-23T15:10:44Z</time>
      </trkpt>
      <trkpt lat="45.75175" lon="5.62746">
        <ele>387.55</ele>
        <time>2016-11-23T15:10:47Z</time>
      </trkpt>
      <trkpt lat="45.75187" lon="5.62743">
        <ele>387.55</ele>
        <time>2016-11-23T15:10:50Z</time>
      </trkpt>
      <trkpt lat="45.75198" lon="5.62735">
        <ele>388.99</ele>
        <time>2016-11-23T15:10:53Z</time>
      </trkpt>
      <trkpt lat="45.75207" lon="5.62729">
        <ele>389.47</ele>
        <time>2016-11-23T15:10:56Z</time>
      </trkpt>
      <trkpt lat="45.7522" lon="5.62727">
        <ele>389.95</ele>
        <time>2016-11-23T15:11:00Z</time>
      </trkpt>
      <trkpt lat="45.7523" lon="5.6273">
        <ele>389.95</ele>
        <time>2016-11-23T15:11:04Z</time>
      </trkpt>
      <trkpt lat="45.75239" lon="5.6274">
        <ele>390.91</ele>
        <time>2016-11-23T15:11:13Z</time>
      </trkpt>
      <trkpt lat="45.75241" lon="5.62754">
        <ele>391.87</ele>
        <time>2016-11-23T15:11:18Z</time>
      </trkpt>
      <trkpt lat="45.75244" lon="5.62769">
        <ele>392.84</ele>
        <time>2016-11-23T15:11:24Z</time>
      </trkpt>
      <trkpt lat="45.75248" lon="5.62782">
        <ele>393.8</ele>
        <time>2016-11-23T15:11:31Z</time>
      </trkpt>
      <trkpt lat="45.75254" lon="5.62796">
        <ele>394.28</ele>
        <time>2016-11-23T15:11:39Z</time>
      </trkpt>
      <trkpt lat="45.75258" lon="5.62812">
        <ele>395.24</ele>
        <time>2016-11-23T15:12:05Z</time>
      </trkpt>
      <trkpt lat="45.75257" lon="5.62827">
        <ele>395.72</ele>
        <time>2016-11-23T15:12:13Z</time>
      </trkpt>
      <trkpt lat="45.75256" lon="5.62843">
        <ele>394.76</ele>
        <time>2016-11-23T15:12:17Z</time>
      </trkpt>
      <trkpt lat="45.75256" lon="5.62862">
        <ele>394.76</ele>
        <time>2016-11-23T15:12:20Z</time>
      </trkpt>
      <trkpt lat="45.75256" lon="5.62879">
        <ele>394.28</ele>
        <time>2016-11-23T15:12:23Z</time>
      </trkpt>
      <trkpt lat="45.75256" lon="5.62895">
        <ele>394.76</ele>
        <time>2016-11-23T15:12:27Z</time>
      </trkpt>
      <trkpt lat="45.7526" lon="5.62909">
        <ele>395.72</ele>
        <time>2016-11-23T15:12:31Z</time>
      </trkpt>
      <trkpt lat="45.75266" lon="5.6292">
        <ele>396.2</ele>
        <time>2016-11-23T15:12:35Z</time>
      </trkpt>
      <trkpt lat="45.75272" lon="5.62933">
        <ele>397.64</ele>
        <time>2016-11-23T15:12:39Z</time>
      </trkpt>
      <trkpt lat="45.75276" lon="5.62949">
        <ele>397.64</ele>
        <time>2016-11-23T15:12:44Z</time>
      </trkpt>
      <trkpt lat="45.7528" lon="5.62962">
        <ele>398.12</ele>
        <time>2016-11-23T15:12:48Z</time>
      </trkpt>
      <trkpt lat="45.75287" lon="5.62976">
        <ele>399.08</ele>
        <time>2016-11-23T15:12:53Z</time>
      </trkpt>
      <trkpt lat="45.75293" lon="5.6299">
        <ele>400.05</ele>
        <time>2016-11-23T15:12:59Z</time>
      </trkpt>
      <trkpt lat="45.753" lon="5.63004">
        <ele>400.53</ele>
        <time>2016-11-23T15:13:05Z</time>
      </trkpt>
      <trkpt lat="45.75305" lon="5.6302">
        <ele>401.01</ele>
        <time>2016-11-23T15:13:10Z</time>
      </trkpt>
      <trkpt lat="45.75309" lon="5.63034">
        <ele>401.49</ele>
        <time>2016-11-23T15:13:14Z</time>
      </trkpt>
      <trkpt lat="45.75309" lon="5.63051">
        <ele>401.01</ele>
        <time>2016-11-23T15:13:18Z</time>
      </trkpt>
      <trkpt lat="45.75303" lon="5.63066">
        <ele>400.05</ele>
        <time>2016-11-23T15:13:21Z</time>
      </trkpt>
      <trkpt lat="45.75303" lon="5.63083">
        <ele>399.08</ele>
        <time>2016-11-23T15:13:24Z</time>
      </trkpt>
      <trkpt lat="45.75309" lon="5.631">
        <ele>400.53</ele>
        <time>2016-11-23T15:13:29Z</time>
      </trkpt>
      <trkpt lat="45.75307" lon="5.63118">
        <ele>399.57</ele>
        <time>2016-11-23T15:13:33Z</time>
      </trkpt>
      <trkpt lat="45.75304" lon="5.63131">
        <ele>399.57</ele>
        <time>2016-11-23T15:13:36Z</time>
      </trkpt>
      <trkpt lat="45.75302" lon="5.63144">
        <ele>399.08</ele>
        <time>2016-11-23T15:13:39Z</time>
      </trkpt>
      <trkpt lat="45.75302" lon="5.63159">
        <ele>398.6</ele>
        <time>2016-11-23T15:13:42Z</time>
      </trkpt>
      <trkpt lat="45.75307" lon="5.63173">
        <ele>399.57</ele>
        <time>2016-11-23T15:13:46Z</time>
      </trkpt>
      <trkpt lat="45.75313" lon="5.63187">
        <ele>400.05</ele>
        <time>2016-11-23T15:13:50Z</time>
      </trkpt>
      <trkpt lat="45.75316" lon="5.63203">
        <ele>400.05</ele>
        <time>2016-11-23T15:13:54Z</time>
      </trkpt>
      <trkpt lat="45.75312" lon="5.63217">
        <ele>401.97</ele>
        <time>2016-11-23T15:14:01Z</time>
      </trkpt>
      <trkpt lat="45.75315" lon="5.63234">
        <ele>402.93</ele>
        <time>2016-11-23T15:14:07Z</time>
      </trkpt>
      <trkpt lat="45.7532" lon="5.63249">
        <ele>402.93</ele>
        <time>2016-11-23T15:14:12Z</time>
      </trkpt>
      <trkpt lat="45.75327" lon="5.63262">
        <ele>403.41</ele>
        <time>2016-11-23T15:14:17Z</time>
      </trkpt>
      <trkpt lat="45.7534" lon="5.63266">
        <ele>401.49</ele>
        <time>2016-11-23T15:14:24Z</time>
      </trkpt>
      <trkpt lat="45.75349" lon="5.63277">
        <ele>400.53</ele>
        <time>2016-11-23T15:14:27Z</time>
      </trkpt>
      <trkpt lat="45.75358" lon="5.63286">
        <ele>399.08</ele>
        <time>2016-11-23T15:14:29Z</time>
      </trkpt>
      <trkpt lat="45.75366" lon="5.63295">
        <ele>397.64</ele>
        <time>2016-11-23T15:14:31Z</time>
      </trkpt>
      <trkpt lat="45.75375" lon="5.63303">
        <ele>398.12</ele>
        <time>2016-11-23T15:14:33Z</time>
      </trkpt>
      <trkpt lat="45.75382" lon="5.63314">
        <ele>397.16</ele>
        <time>2016-11-23T15:14:36Z</time>
      </trkpt>
      <trkpt lat="45.75386" lon="5.63329">
        <ele>398.12</ele>
        <time>2016-11-23T15:14:41Z</time>
      </trkpt>
      <trkpt lat="45.75395" lon="5.63341">
        <ele>396.68</ele>
        <time>2016-11-23T15:14:44Z</time>
      </trkpt>
      <trkpt lat="45.75405" lon="5.63357">
        <ele>394.76</ele>
        <time>2016-11-23T15:14:47Z</time>
      </trkpt>
      <trkpt lat="45.7541" lon="5.63373">
        <ele>394.76</ele>
        <time>2016-11-23T15:14:50Z</time>
      </trkpt>
      <trkpt lat="45.75413" lon="5.63387">
        <ele>395.24</ele>
        <time>2016-11-23T15:14:54Z</time>
      </trkpt>
      <trkpt lat="45.75417" lon="5.63408">
        <ele>395.72</ele>
        <time>2016-11-23T15:14:59Z</time>
      </trkpt>
      <trkpt lat="45.75419" lon="5.63426">
        <ele>397.16</ele>
        <time>2016-11-23T15:15:05Z</time>
      </trkpt>
      <trkpt lat="45.75414" lon="5.63438">
        <ele>396.68</ele>
        <time>2016-11-23T15:15:09Z</time>
      </trkpt>
      <trkpt lat="45.75403" lon="5.63449">
        <ele>395.24</ele>
        <time>2016-11-23T15:15:12Z</time>
      </trkpt>
      <trkpt lat="45.75393" lon="5.63452">
        <ele>394.76</ele>
        <time>2016-11-23T15:15:15Z</time>
      </trkpt>
      <trkpt lat="45.75384" lon="5.63452">
        <ele>394.28</ele>
        <time>2016-11-23T15:15:18Z</time>
      </trkpt>
      <trkpt lat="45.75373" lon="5.6345">
        <ele>393.32</ele>
        <time>2016-11-23T15:15:21Z</time>
      </trkpt>
      <trkpt lat="45.75363" lon="5.63456">
        <ele>390.91</ele>
        <time>2016-11-23T15:15:25Z</time>
      </trkpt>
      <trkpt lat="45.75355" lon="5.6347">
        <ele>388.03</ele>
        <time>2016-11-23T15:15:29Z</time>
      </trkpt>
      <trkpt lat="45.75345" lon="5.63481">
        <ele>384.66</ele>
        <time>2016-11-23T15:15:32Z</time>
      </trkpt>
      <trkpt lat="45.75341" lon="5.63497">
        <ele>380.82</ele>
        <time>2016-11-23T15:15:36Z</time>
      </trkpt>
      <trkpt lat="45.75348" lon="5.63516">
        <ele>376.97</ele>
        <time>2016-11-23T15:15:41Z</time>
      </trkpt>
      <trkpt lat="45.7536" lon="5.6353">
        <ele>375.05</ele>
        <time>2016-11-23T15:15:44Z</time>
      </trkpt>
      <trkpt lat="45.75369" lon="5.63537">
        <ele>374.09</ele>
        <time>2016-11-23T15:15:46Z</time>
      </trkpt>
      <trkpt lat="45.75378" lon="5.6354">
        <ele>373.13</ele>
        <time>2016-11-23T15:15:49Z</time>
      </trkpt>
      <trkpt lat="45.75388" lon="5.63552">
        <ele>372.65</ele>
        <time>2016-11-23T15:15:53Z</time>
      </trkpt>
      <trkpt lat="45.75397" lon="5.63567">
        <ele>370.73</ele>
        <time>2016-11-23T15:15:56Z</time>
      </trkpt>
      <trkpt lat="45.75406" lon="5.63578">
        <ele>368.8</ele>
        <time>2016-11-23T15:15:59Z</time>
      </trkpt>
      <trkpt lat="45.75411" lon="5.63593">
        <ele>367.36</ele>
        <time>2016-11-23T15:16:02Z</time>
      </trkpt>
      <trkpt lat="45.75418" lon="5.6361">
        <ele>364.96</ele>
        <time>2016-11-23T15:16:05Z</time>
      </trkpt>
      <trkpt lat="45.75423" lon="5.63625">
        <ele>362.55</ele>
        <time>2016-11-23T15:16:08Z</time>
      </trkpt>
      <trkpt lat="45.75415" lon="5.63634">
        <ele>361.59</ele>
        <time>2016-11-23T15:16:39Z</time>
      </trkpt>
      <trkpt lat="45.75406" lon="5.63629">
        <ele>362.07</ele>
        <time>2016-11-23T15:16:44Z</time>
      </trkpt>
      <trkpt lat="45.75396" lon="5.63623">
        <ele>362.55</ele>
        <time>2016-11-23T15:16:49Z</time>
      </trkpt>
      <trkpt lat="45.75385" lon="5.63618">
        <ele>362.55</ele>
        <time>2016-11-23T15:16:53Z</time>
      </trkpt>
      <trkpt lat="45.75374" lon="5.63615">
        <ele>363.04</ele>
        <time>2016-11-23T15:16:57Z</time>
      </trkpt>
      <trkpt lat="45.75363" lon="5.63611">
        <ele>363.04</ele>
        <time>2016-11-23T15:17:01Z</time>
      </trkpt>
      <trkpt lat="45.75353" lon="5.63602">
        <ele>363.52</ele>
        <time>2016-11-23T15:17:06Z</time>
      </trkpt>
      <trkpt lat="45.75339" lon="5.63599">
        <ele>363.52</ele>
        <time>2016-11-23T15:17:11Z</time>
      </trkpt>
      <trkpt lat="45.75328" lon="5.63603">
        <ele>363.52</ele>
        <time>2016-11-23T15:17:15Z</time>
      </trkpt>
      <trkpt lat="45.75317" lon="5.63606">
        <ele>364</ele>
        <time>2016-11-23T15:17:19Z</time>
      </trkpt>
      <trkpt lat="45.75304" lon="5.63607">
        <ele>364</ele>
        <time>2016-11-23T15:17:25Z</time>
      </trkpt>
      <trkpt lat="45.75291" lon="5.63606">
        <ele>364.96</ele>
        <time>2016-11-23T15:17:31Z</time>
      </trkpt>
      <trkpt lat="45.75277" lon="5.63608">
        <ele>365.44</ele>
        <time>2016-11-23T15:17:37Z</time>
      </trkpt>
      <trkpt lat="45.75263" lon="5.63614">
        <ele>364</ele>
        <time>2016-11-23T15:17:43Z</time>
      </trkpt>
      <trkpt lat="45.75253" lon="5.6362">
        <ele>362.07</ele>
        <time>2016-11-23T15:17:47Z</time>
      </trkpt>
      <trkpt lat="45.75252" lon="5.63631">
        <ele>362.55</ele>
        <time>2016-11-23T15:18:08Z</time>
      </trkpt>
      <trkpt lat="45.75263" lon="5.63636">
        <ele>363.04</ele>
        <time>2016-11-23T15:18:13Z</time>
      </trkpt>
      <trkpt lat="45.75275" lon="5.63642">
        <ele>362.55</ele>
        <time>2016-11-23T15:18:17Z</time>
      </trkpt>
      <trkpt lat="45.75286" lon="5.63647">
        <ele>361.11</ele>
        <time>2016-11-23T15:18:20Z</time>
      </trkpt>
      <trkpt lat="45.75299" lon="5.63653">
        <ele>360.63</ele>
        <time>2016-11-23T15:18:23Z</time>
      </trkpt>
      <trkpt lat="45.7531" lon="5.63656">
        <ele>359.19</ele>
        <time>2016-11-23T15:18:25Z</time>
      </trkpt>
      <trkpt lat="45.75321" lon="5.63659">
        <ele>359.19</ele>
        <time>2016-11-23T15:18:27Z</time>
      </trkpt>
      <trkpt lat="45.75331" lon="5.63663">
        <ele>358.71</ele>
        <time>2016-11-23T15:18:29Z</time>
      </trkpt>
      <trkpt lat="45.75341" lon="5.63665">
        <ele>358.23</ele>
        <time>2016-11-23T15:18:31Z</time>
      </trkpt>
      <trkpt lat="45.75355" lon="5.63669">
        <ele>359.19</ele>
        <time>2016-11-23T15:18:34Z</time>
      </trkpt>
      <trkpt lat="45.75368" lon="5.63676">
        <ele>358.71</ele>
        <time>2016-11-23T15:18:37Z</time>
      </trkpt>
      <trkpt lat="45.75382" lon="5.63683">
        <ele>358.71</ele>
        <time>2016-11-23T15:18:40Z</time>
      </trkpt>
      <trkpt lat="45.75392" lon="5.63688">
        <ele>357.27</ele>
        <time>2016-11-23T15:18:42Z</time>
      </trkpt>
      <trkpt lat="45.754" lon="5.63695">
        <ele>357.75</ele>
        <time>2016-11-23T15:18:44Z</time>
      </trkpt>
      <trkpt lat="45.75414" lon="5.637">
        <ele>356.79</ele>
        <time>2016-11-23T15:18:47Z</time>
      </trkpt>
      <trkpt lat="45.75425" lon="5.63702">
        <ele>356.79</ele>
        <time>2016-11-23T15:18:49Z</time>
      </trkpt>
      <trkpt lat="45.75439" lon="5.63705">
        <ele>357.27</ele>
        <time>2016-11-23T15:18:52Z</time>
      </trkpt>
      <trkpt lat="45.75453" lon="5.63711">
        <ele>357.27</ele>
        <time>2016-11-23T15:18:55Z</time>
      </trkpt>
      <trkpt lat="45.75462" lon="5.63718">
        <ele>356.79</ele>
        <time>2016-11-23T15:18:57Z</time>
      </trkpt>
      <trkpt lat="45.75471" lon="5.63726">
        <ele>354.86</ele>
        <time>2016-11-23T15:18:59Z</time>
      </trkpt>
      <trkpt lat="45.75483" lon="5.6373">
        <ele>353.9</ele>
        <time>2016-11-23T15:19:01Z</time>
      </trkpt>
      <trkpt lat="45.75499" lon="5.63732">
        <ele>352.94</ele>
        <time>2016-11-23T15:19:03Z</time>
      </trkpt>
      <trkpt lat="45.75515" lon="5.63735">
        <ele>353.9</ele>
        <time>2016-11-23T15:19:05Z</time>
      </trkpt>
      <trkpt lat="45.75528" lon="5.63736">
        <ele>353.9</ele>
        <time>2016-11-23T15:19:08Z</time>
      </trkpt>
      <trkpt lat="45.75528" lon="5.63738">
        <ele>353.9</ele>
        <time>2016-11-23T15:19:34Z</time>
      </trkpt>
      <trkpt lat="45.7552" lon="5.63742">
        <ele>352.94</ele>
        <time>2016-11-23T15:19:41Z</time>
      </trkpt>
      <trkpt lat="45.75514" lon="5.63753">
        <ele>353.42</ele>
        <time>2016-11-23T15:19:47Z</time>
      </trkpt>
      <trkpt lat="45.75508" lon="5.63764">
        <ele>354.38</ele>
        <time>2016-11-23T15:19:52Z</time>
      </trkpt>
      <trkpt lat="45.75504" lon="5.63777">
        <ele>353.9</ele>
        <time>2016-11-23T15:19:58Z</time>
      </trkpt>
      <trkpt lat="45.75494" lon="5.63786">
        <ele>351.98</ele>
        <time>2016-11-23T15:20:06Z</time>
      </trkpt>
      <trkpt lat="45.75493" lon="5.63813">
        <ele>353.42</ele>
        <time>2016-11-23T15:22:25Z</time>
      </trkpt>
      <trkpt lat="45.75498" lon="5.63828">
        <ele>352.46</ele>
        <time>2016-11-23T15:23:01Z</time>
      </trkpt>
      <trkpt lat="45.75512" lon="5.63818">
        <ele>351.5</ele>
        <time>2016-11-23T15:23:31Z</time>
      </trkpt>
      <trkpt lat="45.75525" lon="5.63809">
        <ele>351.5</ele>
        <time>2016-11-23T15:25:51Z</time>
      </trkpt>
      <trkpt lat="45.75534" lon="5.63801">
        <ele>350.54</ele>
        <time>2016-11-23T15:25:55Z</time>
      </trkpt>
      <trkpt lat="45.75544" lon="5.63792">
        <ele>350.54</ele>
        <time>2016-11-23T15:25:59Z</time>
      </trkpt>
      <trkpt lat="45.75554" lon="5.63784">
        <ele>349.58</ele>
        <time>2016-11-23T15:26:03Z</time>
      </trkpt>
      <trkpt lat="45.75563" lon="5.63777">
        <ele>350.06</ele>
        <time>2016-11-23T15:26:08Z</time>
      </trkpt>
      <trkpt lat="45.75574" lon="5.63771">
        <ele>350.54</ele>
        <time>2016-11-23T15:26:16Z</time>
      </trkpt>
      <trkpt lat="45.75585" lon="5.63765">
        <ele>351.02</ele>
        <time>2016-11-23T15:26:21Z</time>
      </trkpt>
      <trkpt lat="45.75598" lon="5.63766">
        <ele>351.02</ele>
        <time>2016-11-23T15:26:26Z</time>
      </trkpt>
      <trkpt lat="45.7561" lon="5.63769">
        <ele>351.02</ele>
        <time>2016-11-23T15:26:30Z</time>
      </trkpt>
      <trkpt lat="45.75621" lon="5.63773">
        <ele>351.02</ele>
        <time>2016-11-23T15:26:34Z</time>
      </trkpt>
      <trkpt lat="45.75632" lon="5.63781">
        <ele>350.54</ele>
        <time>2016-11-23T15:26:38Z</time>
      </trkpt>
      <trkpt lat="45.75641" lon="5.63794">
        <ele>350.54</ele>
        <time>2016-11-23T15:26:42Z</time>
      </trkpt>
      <trkpt lat="45.7565" lon="5.63808">
        <ele>350.54</ele>
        <time>2016-11-23T15:26:46Z</time>
      </trkpt>
      <trkpt lat="45.75656" lon="5.63821">
        <ele>351.5</ele>
        <time>2016-11-23T15:26:49Z</time>
      </trkpt>
      <trkpt lat="45.75663" lon="5.63834">
        <ele>351.02</ele>
        <time>2016-11-23T15:26:52Z</time>
      </trkpt>
      <trkpt lat="45.7567" lon="5.63847">
        <ele>350.54</ele>
        <time>2016-11-23T15:26:55Z</time>
      </trkpt>
      <trkpt lat="45.75676" lon="5.63863">
        <ele>350.54</ele>
        <time>2016-11-23T15:26:59Z</time>
      </trkpt>
      <trkpt lat="45.75683" lon="5.63875">
        <ele>351.5</ele>
        <time>2016-11-23T15:27:03Z</time>
      </trkpt>
      <trkpt lat="45.75692" lon="5.63887">
        <ele>352.46</ele>
        <time>2016-11-23T15:27:08Z</time>
      </trkpt>
      <trkpt lat="45.75706" lon="5.63892">
        <ele>353.9</ele>
        <time>2016-11-23T15:27:14Z</time>
      </trkpt>
      <trkpt lat="45.7572" lon="5.6389">
        <ele>352.94</ele>
        <time>2016-11-23T15:27:20Z</time>
      </trkpt>
      <trkpt lat="45.75732" lon="5.63886">
        <ele>353.42</ele>
        <time>2016-11-23T15:27:24Z</time>
      </trkpt>
      <trkpt lat="45.75745" lon="5.63884">
        <ele>352.94</ele>
        <time>2016-11-23T15:27:28Z</time>
      </trkpt>
      <trkpt lat="45.75762" lon="5.63889">
        <ele>352.94</ele>
        <time>2016-11-23T15:27:34Z</time>
      </trkpt>
      <trkpt lat="45.75776" lon="5.63892">
        <ele>352.46</ele>
        <time>2016-11-23T15:27:37Z</time>
      </trkpt>
      <trkpt lat="45.7579" lon="5.63894">
        <ele>352.46</ele>
        <time>2016-11-23T15:27:41Z</time>
      </trkpt>
      <trkpt lat="45.75803" lon="5.63895">
        <ele>353.42</ele>
        <time>2016-11-23T15:27:47Z</time>
      </trkpt>
      <trkpt lat="45.75822" lon="5.63893">
        <ele>353.9</ele>
        <time>2016-11-23T15:29:35Z</time>
      </trkpt>
      <trkpt lat="45.75833" lon="5.63893">
        <ele>355.83</ele>
        <time>2016-11-23T15:29:43Z</time>
      </trkpt>
      <trkpt lat="45.75844" lon="5.6389">
        <ele>356.31</ele>
        <time>2016-11-23T15:29:50Z</time>
      </trkpt>
      <trkpt lat="45.75857" lon="5.63892">
        <ele>357.27</ele>
        <time>2016-11-23T15:29:57Z</time>
      </trkpt>
      <trkpt lat="45.7587" lon="5.63895">
        <ele>358.23</ele>
        <time>2016-11-23T15:30:05Z</time>
      </trkpt>
      <trkpt lat="45.75885" lon="5.63895">
        <ele>359.19</ele>
        <time>2016-11-23T15:30:13Z</time>
      </trkpt>
      <trkpt lat="45.75898" lon="5.63895">
        <ele>360.15</ele>
        <time>2016-11-23T15:30:20Z</time>
      </trkpt>
      <trkpt lat="45.7591" lon="5.63891">
        <ele>361.11</ele>
        <time>2016-11-23T15:30:26Z</time>
      </trkpt>
      <trkpt lat="45.75923" lon="5.63887">
        <ele>362.55</ele>
        <time>2016-11-23T15:30:33Z</time>
      </trkpt>
      <trkpt lat="45.75935" lon="5.63884">
        <ele>364.48</ele>
        <time>2016-11-23T15:30:40Z</time>
      </trkpt>
      <trkpt lat="45.75947" lon="5.63886">
        <ele>365.44</ele>
        <time>2016-11-23T15:30:47Z</time>
      </trkpt>
      <trkpt lat="45.75959" lon="5.63893">
        <ele>366.4</ele>
        <time>2016-11-23T15:30:56Z</time>
      </trkpt>
      <trkpt lat="45.75971" lon="5.63896">
        <ele>367.36</ele>
        <time>2016-11-23T15:31:02Z</time>
      </trkpt>
      <trkpt lat="45.75986" lon="5.63902">
        <ele>368.32</ele>
        <time>2016-11-23T15:31:09Z</time>
      </trkpt>
      <trkpt lat="45.75998" lon="5.63905">
        <ele>368.32</ele>
        <time>2016-11-23T15:31:14Z</time>
      </trkpt>
      <trkpt lat="45.76012" lon="5.63905">
        <ele>369.28</ele>
        <time>2016-11-23T15:31:19Z</time>
      </trkpt>
      <trkpt lat="45.76029" lon="5.63906">
        <ele>370.24</ele>
        <time>2016-11-23T15:31:35Z</time>
      </trkpt>
      <trkpt lat="45.76041" lon="5.63904">
        <ele>370.73</ele>
        <time>2016-11-23T15:31:42Z</time>
      </trkpt>
      <trkpt lat="45.76056" lon="5.63905">
        <ele>371.21</ele>
        <time>2016-11-23T15:31:48Z</time>
      </trkpt>
      <trkpt lat="45.76069" lon="5.63903">
        <ele>372.65</ele>
        <time>2016-11-23T15:31:55Z</time>
      </trkpt>
      <trkpt lat="45.76081" lon="5.63906">
        <ele>373.13</ele>
        <time>2016-11-23T15:32:01Z</time>
      </trkpt>
      <trkpt lat="45.76095" lon="5.63911">
        <ele>374.09</ele>
        <time>2016-11-23T15:32:07Z</time>
      </trkpt>
      <trkpt lat="45.76107" lon="5.63917">
        <ele>374.09</ele>
        <time>2016-11-23T15:32:11Z</time>
      </trkpt>
      <trkpt lat="45.76117" lon="5.63923">
        <ele>373.13</ele>
        <time>2016-11-23T15:32:14Z</time>
      </trkpt>
      <trkpt lat="45.76131" lon="5.63928">
        <ele>372.17</ele>
        <time>2016-11-23T15:32:17Z</time>
      </trkpt>
      <trkpt lat="45.76141" lon="5.63932">
        <ele>370.73</ele>
        <time>2016-11-23T15:32:19Z</time>
      </trkpt>
      <trkpt lat="45.76152" lon="5.63936">
        <ele>370.73</ele>
        <time>2016-11-23T15:32:21Z</time>
      </trkpt>
      <trkpt lat="45.76163" lon="5.6394">
        <ele>370.73</ele>
        <time>2016-11-23T15:32:23Z</time>
      </trkpt>
      <trkpt lat="45.76174" lon="5.63944">
        <ele>369.76</ele>
        <time>2016-11-23T15:32:25Z</time>
      </trkpt>
      <trkpt lat="45.76184" lon="5.63951">
        <ele>369.76</ele>
        <time>2016-11-23T15:32:27Z</time>
      </trkpt>
      <trkpt lat="45.76193" lon="5.63956">
        <ele>368.8</ele>
        <time>2016-11-23T15:32:29Z</time>
      </trkpt>
      <trkpt lat="45.76204" lon="5.63961">
        <ele>367.84</ele>
        <time>2016-11-23T15:32:31Z</time>
      </trkpt>
      <trkpt lat="45.76219" lon="5.63971">
        <ele>367.84</ele>
        <time>2016-11-23T15:32:34Z</time>
      </trkpt>
      <trkpt lat="45.76229" lon="5.63979">
        <ele>366.88</ele>
        <time>2016-11-23T15:32:36Z</time>
      </trkpt>
      <trkpt lat="45.76237" lon="5.63987">
        <ele>366.88</ele>
        <time>2016-11-23T15:32:38Z</time>
      </trkpt>
      <trkpt lat="45.76249" lon="5.63998">
        <ele>365.92</ele>
        <time>2016-11-23T15:32:41Z</time>
      </trkpt>
      <trkpt lat="45.76261" lon="5.64005">
        <ele>364.96</ele>
        <time>2016-11-23T15:32:44Z</time>
      </trkpt>
      <trkpt lat="45.76274" lon="5.64006">
        <ele>364</ele>
        <time>2016-11-23T15:32:47Z</time>
      </trkpt>
      <trkpt lat="45.76286" lon="5.64003">
        <ele>364</ele>
        <time>2016-11-23T15:32:51Z</time>
      </trkpt>
      <trkpt lat="45.76297" lon="5.63997">
        <ele>363.52</ele>
        <time>2016-11-23T15:32:54Z</time>
      </trkpt>
      <trkpt lat="45.76308" lon="5.6399">
        <ele>363.04</ele>
        <time>2016-11-23T15:32:57Z</time>
      </trkpt>
      <trkpt lat="45.76327" lon="5.63985">
        <ele>363.04</ele>
        <time>2016-11-23T15:33:27Z</time>
      </trkpt>
      <trkpt lat="45.76328" lon="5.63972">
        <ele>363.04</ele>
        <time>2016-11-23T15:33:30Z</time>
      </trkpt>
      <trkpt lat="45.76327" lon="5.63954">
        <ele>363.52</ele>
        <time>2016-11-23T15:33:33Z</time>
      </trkpt>
      <trkpt lat="45.76327" lon="5.6394">
        <ele>363.04</ele>
        <time>2016-11-23T15:33:35Z</time>
      </trkpt>
      <trkpt lat="45.76328" lon="5.63925">
        <ele>363.04</ele>
        <time>2016-11-23T15:33:37Z</time>
      </trkpt>
      <trkpt lat="45.76328" lon="5.63907">
        <ele>362.55</ele>
        <time>2016-11-23T15:33:39Z</time>
      </trkpt>
      <trkpt lat="45.76329" lon="5.63888">
        <ele>362.07</ele>
        <time>2016-11-23T15:33:41Z</time>
      </trkpt>
      <trkpt lat="45.76332" lon="5.63868">
        <ele>361.59</ele>
        <time>2016-11-23T15:33:43Z</time>
      </trkpt>
      <trkpt lat="45.76338" lon="5.63849">
        <ele>361.11</ele>
        <time>2016-11-23T15:33:45Z</time>
      </trkpt>
      <trkpt lat="45.76346" lon="5.63831">
        <ele>360.15</ele>
        <time>2016-11-23T15:33:47Z</time>
      </trkpt>
      <trkpt lat="45.76353" lon="5.63814">
        <ele>359.19</ele>
        <time>2016-11-23T15:33:49Z</time>
      </trkpt>
      <trkpt lat="45.76362" lon="5.63799">
        <ele>357.75</ele>
        <time>2016-11-23T15:33:51Z</time>
      </trkpt>
      <trkpt lat="45.76371" lon="5.63783">
        <ele>357.27</ele>
        <time>2016-11-23T15:33:53Z</time>
      </trkpt>
      <trkpt lat="45.76379" lon="5.63767">
        <ele>357.27</ele>
        <time>2016-11-23T15:33:55Z</time>
      </trkpt>
      <trkpt lat="45.76388" lon="5.63751">
        <ele>356.79</ele>
        <time>2016-11-23T15:33:57Z</time>
      </trkpt>
      <trkpt lat="45.76396" lon="5.63735">
        <ele>357.27</ele>
        <time>2016-11-23T15:33:59Z</time>
      </trkpt>
      <trkpt lat="45.76405" lon="5.6372">
        <ele>356.79</ele>
        <time>2016-11-23T15:34:01Z</time>
      </trkpt>
      <trkpt lat="45.76413" lon="5.63704">
        <ele>356.31</ele>
        <time>2016-11-23T15:34:03Z</time>
      </trkpt>
      <trkpt lat="45.7642" lon="5.63689">
        <ele>355.83</ele>
        <time>2016-11-23T15:34:05Z</time>
      </trkpt>
      <trkpt lat="45.76429" lon="5.63681">
        <ele>356.79</ele>
        <time>2016-11-23T15:34:07Z</time>
      </trkpt>
      <trkpt lat="45.76437" lon="5.63689">
        <ele>356.79</ele>
        <time>2016-11-23T15:34:09Z</time>
      </trkpt>
      <trkpt lat="45.76442" lon="5.63702">
        <ele>356.79</ele>
        <time>2016-11-23T15:34:11Z</time>
      </trkpt>
      <trkpt lat="45.76446" lon="5.63716">
        <ele>356.79</ele>
        <time>2016-11-23T15:34:13Z</time>
      </trkpt>
      <trkpt lat="45.7645" lon="5.6373">
        <ele>356.79</ele>
        <time>2016-11-23T15:34:15Z</time>
      </trkpt>
      <trkpt lat="45.76453" lon="5.63744">
        <ele>356.31</ele>
        <time>2016-11-23T15:34:17Z</time>
      </trkpt>
      <trkpt lat="45.76455" lon="5.63759">
        <ele>356.79</ele>
        <time>2016-11-23T15:34:19Z</time>
      </trkpt>
      <trkpt lat="45.76459" lon="5.63773">
        <ele>357.27</ele>
        <time>2016-11-23T15:34:21Z</time>
      </trkpt>
      <trkpt lat="45.76463" lon="5.63786">
        <ele>357.27</ele>
        <time>2016-11-23T15:34:23Z</time>
      </trkpt>
      <trkpt lat="45.76467" lon="5.63797">
        <ele>357.75</ele>
        <time>2016-11-23T15:34:25Z</time>
      </trkpt>
      <trkpt lat="45.76476" lon="5.6381">
        <ele>358.23</ele>
        <time>2016-11-23T15:34:28Z</time>
      </trkpt>
      <trkpt lat="45.76487" lon="5.63818">
        <ele>358.23</ele>
        <time>2016-11-23T15:34:31Z</time>
      </trkpt>
      <trkpt lat="45.76498" lon="5.63825">
        <ele>358.71</ele>
        <time>2016-11-23T15:34:34Z</time>
      </trkpt>
      <trkpt lat="45.76508" lon="5.63833">
        <ele>359.67</ele>
        <time>2016-11-23T15:34:37Z</time>
      </trkpt>
      <trkpt lat="45.76517" lon="5.63843">
        <ele>359.67</ele>
        <time>2016-11-23T15:34:40Z</time>
      </trkpt>
      <trkpt lat="45.76523" lon="5.63855">
        <ele>359.67</ele>
        <time>2016-11-23T15:34:43Z</time>
      </trkpt>
      <trkpt lat="45.76527" lon="5.63867">
        <ele>360.15</ele>
        <time>2016-11-23T15:34:46Z</time>
      </trkpt>
      <trkpt lat="45.76533" lon="5.63881">
        <ele>360.63</ele>
        <time>2016-11-23T15:34:50Z</time>
      </trkpt>
      <trkpt lat="45.76539" lon="5.63893">
        <ele>361.11</ele>
        <time>2016-11-23T15:34:54Z</time>
      </trkpt>
      <trkpt lat="45.76547" lon="5.63903">
        <ele>362.55</ele>
        <time>2016-11-23T15:34:58Z</time>
      </trkpt>
      <trkpt lat="45.76554" lon="5.6391">
        <ele>363.04</ele>
        <time>2016-11-23T15:35:02Z</time>
      </trkpt>
      <trkpt lat="45.76563" lon="5.63918">
        <ele>364.48</ele>
        <time>2016-11-23T15:35:07Z</time>
      </trkpt>
      <trkpt lat="45.7657" lon="5.63928">
        <ele>364.96</ele>
        <time>2016-11-23T15:35:12Z</time>
      </trkpt>
      <trkpt lat="45.76576" lon="5.6394">
        <ele>366.4</ele>
        <time>2016-11-23T15:35:18Z</time>
      </trkpt>
      <trkpt lat="45.76579" lon="5.63953">
        <ele>367.84</ele>
        <time>2016-11-23T15:35:25Z</time>
      </trkpt>
      <trkpt lat="45.76582" lon="5.63966">
        <ele>368.32</ele>
        <time>2016-11-23T15:35:31Z</time>
      </trkpt>
      <trkpt lat="45.76585" lon="5.63976">
        <ele>370.24</ele>
        <time>2016-11-23T15:35:58Z</time>
      </trkpt>
      <trkpt lat="45.76576" lon="5.63987">
        <ele>370.24</ele>
        <time>2016-11-23T15:36:09Z</time>
      </trkpt>
      <trkpt lat="45.76566" lon="5.63999">
        <ele>368.8</ele>
        <time>2016-11-23T15:36:12Z</time>
      </trkpt>
      <trkpt lat="45.76558" lon="5.64011">
        <ele>368.32</ele>
        <time>2016-11-23T15:36:14Z</time>
      </trkpt>
      <trkpt lat="45.76551" lon="5.64025">
        <ele>367.84</ele>
        <time>2016-11-23T15:36:16Z</time>
      </trkpt>
      <trkpt lat="45.76548" lon="5.64038">
        <ele>367.84</ele>
        <time>2016-11-23T15:36:18Z</time>
      </trkpt>
      <trkpt lat="45.76546" lon="5.64055">
        <ele>367.36</ele>
        <time>2016-11-23T15:36:21Z</time>
      </trkpt>
      <trkpt lat="45.76543" lon="5.64068">
        <ele>367.36</ele>
        <time>2016-11-23T15:36:23Z</time>
      </trkpt>
      <trkpt lat="45.76537" lon="5.64083">
        <ele>365.92</ele>
        <time>2016-11-23T15:36:25Z</time>
      </trkpt>
      <trkpt lat="45.76528" lon="5.64096">
        <ele>364.96</ele>
        <time>2016-11-23T15:36:27Z</time>
      </trkpt>
      <trkpt lat="45.76517" lon="5.64107">
        <ele>363.52</ele>
        <time>2016-11-23T15:36:29Z</time>
      </trkpt>
      <trkpt lat="45.76509" lon="5.64115">
        <ele>362.07</ele>
        <time>2016-11-23T15:36:31Z</time>
      </trkpt>
      <trkpt lat="45.76506" lon="5.64129">
        <ele>361.11</ele>
        <time>2016-11-23T15:36:34Z</time>
      </trkpt>
      <trkpt lat="45.76509" lon="5.64141">
        <ele>360.63</ele>
        <time>2016-11-23T15:36:37Z</time>
      </trkpt>
      <trkpt lat="45.76517" lon="5.64151">
        <ele>361.59</ele>
        <time>2016-11-23T15:36:40Z</time>
      </trkpt>
      <trkpt lat="45.76525" lon="5.64163">
        <ele>363.04</ele>
        <time>2016-11-23T15:36:48Z</time>
      </trkpt>
      <trkpt lat="45.76533" lon="5.64175">
        <ele>362.55</ele>
        <time>2016-11-23T15:36:51Z</time>
      </trkpt>
      <trkpt lat="45.76543" lon="5.6419">
        <ele>361.59</ele>
        <time>2016-11-23T15:36:54Z</time>
      </trkpt>
      <trkpt lat="45.76552" lon="5.64201">
        <ele>359.67</ele>
        <time>2016-11-23T15:36:56Z</time>
      </trkpt>
      <trkpt lat="45.76563" lon="5.64214">
        <ele>360.63</ele>
        <time>2016-11-23T15:36:59Z</time>
      </trkpt>
      <trkpt lat="45.7657" lon="5.64228">
        <ele>359.67</ele>
        <time>2016-11-23T15:37:02Z</time>
      </trkpt>
      <trkpt lat="45.76577" lon="5.6424">
        <ele>359.19</ele>
        <time>2016-11-23T15:37:05Z</time>
      </trkpt>
      <trkpt lat="45.76584" lon="5.64251">
        <ele>360.63</ele>
        <time>2016-11-23T15:37:10Z</time>
      </trkpt>
      <trkpt lat="45.76592" lon="5.64265">
        <ele>361.11</ele>
        <time>2016-11-23T15:37:15Z</time>
      </trkpt>
      <trkpt lat="45.76599" lon="5.64277">
        <ele>360.15</ele>
        <time>2016-11-23T15:37:18Z</time>
      </trkpt>
      <trkpt lat="45.76608" lon="5.64284">
        <ele>358.71</ele>
        <time>2016-11-23T15:37:21Z</time>
      </trkpt>
      <trkpt lat="45.76615" lon="5.64298">
        <ele>357.27</ele>
        <time>2016-11-23T15:37:25Z</time>
      </trkpt>
      <trkpt lat="45.76616" lon="5.64316">
        <ele>353.9</ele>
        <time>2016-11-23T15:37:28Z</time>
      </trkpt>
      <trkpt lat="45.76615" lon="5.64332">
        <ele>350.54</ele>
        <time>2016-11-23T15:37:31Z</time>
      </trkpt>
      <trkpt lat="45.76611" lon="5.64348">
        <ele>348.62</ele>
        <time>2016-11-23T15:37:34Z</time>
      </trkpt>
      <trkpt lat="45.76604" lon="5.64363">
        <ele>346.21</ele>
        <time>2016-11-23T15:37:37Z</time>
      </trkpt>
      <trkpt lat="45.76589" lon="5.64368">
        <ele>344.29</ele>
        <time>2016-11-23T15:37:40Z</time>
      </trkpt>
      <trkpt lat="45.76579" lon="5.6437">
        <ele>342.85</ele>
        <time>2016-11-23T15:37:42Z</time>
      </trkpt>
      <trkpt lat="45.76569" lon="5.64378">
        <ele>339.48</ele>
        <time>2016-11-23T15:37:45Z</time>
      </trkpt>
      <trkpt lat="45.76551" lon="5.6441">
        <ele>338.04</ele>
        <time>2016-11-23T15:38:05Z</time>
      </trkpt>
      <trkpt lat="45.76549" lon="5.64427">
        <ele>333.23</ele>
        <time>2016-11-23T15:38:10Z</time>
      </trkpt>
      <trkpt lat="45.76559" lon="5.64439">
        <ele>330.35</ele>
        <time>2016-11-23T15:38:14Z</time>
      </trkpt>
      <trkpt lat="45.76568" lon="5.6445">
        <ele>326.5</ele>
        <time>2016-11-23T15:38:17Z</time>
      </trkpt>
      <trkpt lat="45.76577" lon="5.64464">
        <ele>322.66</ele>
        <time>2016-11-23T15:38:21Z</time>
      </trkpt>
      <trkpt lat="45.76586" lon="5.64479">
        <ele>320.26</ele>
        <time>2016-11-23T15:38:25Z</time>
      </trkpt>
      <trkpt lat="45.76604" lon="5.64488">
        <ele>322.18</ele>
        <time>2016-11-23T15:38:37Z</time>
      </trkpt>
      <trkpt lat="45.76617" lon="5.64495">
        <ele>321.22</ele>
        <time>2016-11-23T15:38:44Z</time>
      </trkpt>
      <trkpt lat="45.7663" lon="5.64499">
        <ele>320.74</ele>
        <time>2016-11-23T15:38:49Z</time>
      </trkpt>
      <trkpt lat="45.76643" lon="5.64507">
        <ele>319.3</ele>
        <time>2016-11-23T15:38:53Z</time>
      </trkpt>
      <trkpt lat="45.76655" lon="5.64511">
        <ele>317.85</ele>
        <time>2016-11-23T15:38:56Z</time>
      </trkpt>
      <trkpt lat="45.76667" lon="5.64515">
        <ele>315.93</ele>
        <time>2016-11-23T15:38:59Z</time>
      </trkpt>
      <trkpt lat="45.76681" lon="5.64524">
        <ele>311.6</ele>
        <time>2016-11-23T15:39:02Z</time>
      </trkpt>
      <trkpt lat="45.76702" lon="5.64529">
        <ele>309.2</ele>
        <time>2016-11-23T15:39:15Z</time>
      </trkpt>
      <trkpt lat="45.76717" lon="5.64528">
        <ele>307.28</ele>
        <time>2016-11-23T15:40:07Z</time>
      </trkpt>
      <trkpt lat="45.76731" lon="5.64534">
        <ele>307.28</ele>
        <time>2016-11-23T15:40:19Z</time>
      </trkpt>
      <trkpt lat="45.76742" lon="5.64533">
        <ele>306.8</ele>
        <time>2016-11-23T15:40:24Z</time>
      </trkpt>
      <trkpt lat="45.7675" lon="5.64533">
        <ele>305.84</ele>
        <time>2016-11-23T15:40:29Z</time>
      </trkpt>
      <trkpt lat="45.76759" lon="5.64532">
        <ele>305.84</ele>
        <time>2016-11-23T15:40:34Z</time>
      </trkpt>
      <trkpt lat="45.76769" lon="5.64532">
        <ele>305.36</ele>
        <time>2016-11-23T15:40:42Z</time>
      </trkpt>
      <trkpt lat="45.76778" lon="5.64532">
        <ele>306.32</ele>
        <time>2016-11-23T15:40:48Z</time>
      </trkpt>
      <trkpt lat="45.76789" lon="5.6453">
        <ele>306.32</ele>
        <time>2016-11-23T15:40:55Z</time>
      </trkpt>
      <trkpt lat="45.76798" lon="5.64525">
        <ele>307.28</ele>
        <time>2016-11-23T15:41:02Z</time>
      </trkpt>
      <trkpt lat="45.76808" lon="5.64521">
        <ele>308.24</ele>
        <time>2016-11-23T15:41:10Z</time>
      </trkpt>
      <trkpt lat="45.76817" lon="5.64517">
        <ele>308.72</ele>
        <time>2016-11-23T15:41:17Z</time>
      </trkpt>
      <trkpt lat="45.76826" lon="5.64513">
        <ele>309.2</ele>
        <time>2016-11-23T15:41:25Z</time>
      </trkpt>
      <trkpt lat="45.76836" lon="5.64515">
        <ele>309.2</ele>
        <time>2016-11-23T15:41:34Z</time>
      </trkpt>
      <trkpt lat="45.76847" lon="5.64524">
        <ele>309.2</ele>
        <time>2016-11-23T15:41:52Z</time>
      </trkpt>
      <trkpt lat="45.76853" lon="5.64541">
        <ele>309.68</ele>
        <time>2016-11-23T15:42:43Z</time>
      </trkpt>
      <trkpt lat="45.76841" lon="5.64548">
        <ele>309.2</ele>
        <time>2016-11-23T15:42:49Z</time>
      </trkpt>
      <trkpt lat="45.76831" lon="5.64552">
        <ele>308.72</ele>
        <time>2016-11-23T15:42:53Z</time>
      </trkpt>
      <trkpt lat="45.7682" lon="5.6456">
        <ele>307.76</ele>
        <time>2016-11-23T15:42:56Z</time>
      </trkpt>
      <trkpt lat="45.76808" lon="5.64568">
        <ele>307.28</ele>
        <time>2016-11-23T15:42:59Z</time>
      </trkpt>
      <trkpt lat="45.76799" lon="5.64574">
        <ele>306.8</ele>
        <time>2016-11-23T15:43:01Z</time>
      </trkpt>
      <trkpt lat="45.76789" lon="5.6458">
        <ele>306.8</ele>
        <time>2016-11-23T15:43:03Z</time>
      </trkpt>
      <trkpt lat="45.76778" lon="5.6459">
        <ele>305.36</ele>
        <time>2016-11-23T15:43:06Z</time>
      </trkpt>
      <trkpt lat="45.7677" lon="5.64601">
        <ele>303.91</ele>
        <time>2016-11-23T15:43:09Z</time>
      </trkpt>
      <trkpt lat="45.7676" lon="5.64615">
        <ele>303.43</ele>
        <time>2016-11-23T15:43:12Z</time>
      </trkpt>
      <trkpt lat="45.76749" lon="5.64629">
        <ele>302.47</ele>
        <time>2016-11-23T15:43:15Z</time>
      </trkpt>
      <trkpt lat="45.7674" lon="5.64645">
        <ele>301.03</ele>
        <time>2016-11-23T15:43:18Z</time>
      </trkpt>
      <trkpt lat="45.76731" lon="5.64664">
        <ele>299.59</ele>
        <time>2016-11-23T15:43:21Z</time>
      </trkpt>
      <trkpt lat="45.76725" lon="5.64679">
        <ele>299.59</ele>
        <time>2016-11-23T15:43:24Z</time>
      </trkpt>
      <trkpt lat="45.76711" lon="5.64714">
        <ele>300.07</ele>
        <time>2016-11-23T15:43:54Z</time>
      </trkpt>
      <trkpt lat="45.76701" lon="5.64736">
        <ele>300.07</ele>
        <time>2016-11-23T15:44:16Z</time>
      </trkpt>
      <trkpt lat="45.76688" lon="5.6474">
        <ele>300.55</ele>
        <time>2016-11-23T15:44:21Z</time>
      </trkpt>
      <trkpt lat="45.76678" lon="5.64746">
        <ele>301.99</ele>
        <time>2016-11-23T15:44:26Z</time>
      </trkpt>
      <trkpt lat="45.76666" lon="5.6475">
        <ele>301.03</ele>
        <time>2016-11-23T15:44:30Z</time>
      </trkpt>
      <trkpt lat="45.76654" lon="5.64755">
        <ele>301.51</ele>
        <time>2016-11-23T15:44:33Z</time>
      </trkpt>
      <trkpt lat="45.76643" lon="5.6476">
        <ele>301.03</ele>
        <time>2016-11-23T15:44:36Z</time>
      </trkpt>
      <trkpt lat="45.76632" lon="5.64764">
        <ele>300.55</ele>
        <time>2016-11-23T15:44:39Z</time>
      </trkpt>
      <trkpt lat="45.76621" lon="5.64769">
        <ele>300.07</ele>
        <time>2016-11-23T15:44:41Z</time>
      </trkpt>
      <trkpt lat="45.76609" lon="5.64776">
        <ele>300.07</ele>
        <time>2016-11-23T15:44:44Z</time>
      </trkpt>
      <trkpt lat="45.76598" lon="5.64786">
        <ele>299.59</ele>
        <time>2016-11-23T15:44:47Z</time>
      </trkpt>
      <trkpt lat="45.76585" lon="5.64793">
        <ele>299.59</ele>
        <time>2016-11-23T15:44:50Z</time>
      </trkpt>
      <trkpt lat="45.76573" lon="5.648">
        <ele>299.11</ele>
        <time>2016-11-23T15:44:53Z</time>
      </trkpt>
      <trkpt lat="45.76558" lon="5.64805">
        <ele>299.59</ele>
        <time>2016-11-23T15:44:56Z</time>
      </trkpt>
      <trkpt lat="45.76547" lon="5.64807">
        <ele>298.63</ele>
        <time>2016-11-23T15:44:58Z</time>
      </trkpt>
      <trkpt lat="45.76537" lon="5.64807">
        <ele>298.63</ele>
        <time>2016-11-23T15:45:00Z</time>
      </trkpt>
      <trkpt lat="45.76525" lon="5.64809">
        <ele>298.63</ele>
        <time>2016-11-23T15:45:03Z</time>
      </trkpt>
      <trkpt lat="45.76514" lon="5.64814">
        <ele>298.63</ele>
        <time>2016-11-23T15:45:06Z</time>
      </trkpt>
      <trkpt lat="45.76502" lon="5.64824">
        <ele>298.15</ele>
        <time>2016-11-23T15:45:09Z</time>
      </trkpt>
      <trkpt lat="45.76492" lon="5.6483">
        <ele>297.67</ele>
        <time>2016-11-23T15:45:11Z</time>
      </trkpt>
      <trkpt lat="45.76479" lon="5.64837">
        <ele>298.15</ele>
        <time>2016-11-23T15:45:14Z</time>
      </trkpt>
      <trkpt lat="45.76469" lon="5.64845">
        <ele>298.15</ele>
        <time>2016-11-23T15:45:17Z</time>
      </trkpt>
      <trkpt lat="45.76456" lon="5.64854">
        <ele>297.67</ele>
        <time>2016-11-23T15:45:20Z</time>
      </trkpt>
      <trkpt lat="45.76443" lon="5.64862">
        <ele>297.67</ele>
        <time>2016-11-23T15:45:23Z</time>
      </trkpt>
      <trkpt lat="45.76428" lon="5.64869">
        <ele>297.18</ele>
        <time>2016-11-23T15:45:26Z</time>
      </trkpt>
      <trkpt lat="45.76418" lon="5.64875">
        <ele>296.22</ele>
        <time>2016-11-23T15:45:28Z</time>
      </trkpt>
      <trkpt lat="45.76406" lon="5.64882">
        <ele>295.26</ele>
        <time>2016-11-23T15:45:30Z</time>
      </trkpt>
      <trkpt lat="45.76391" lon="5.64885">
        <ele>293.82</ele>
        <time>2016-11-23T15:45:32Z</time>
      </trkpt>
      <trkpt lat="45.76374" lon="5.64888">
        <ele>292.38</ele>
        <time>2016-11-23T15:45:34Z</time>
      </trkpt>
      <trkpt lat="45.76358" lon="5.64891">
        <ele>291.42</ele>
        <time>2016-11-23T15:45:36Z</time>
      </trkpt>
      <trkpt lat="45.76342" lon="5.64892">
        <ele>290.46</ele>
        <time>2016-11-23T15:45:38Z</time>
      </trkpt>
      <trkpt lat="45.76326" lon="5.64892">
        <ele>290.46</ele>
        <time>2016-11-23T15:45:40Z</time>
      </trkpt>
      <trkpt lat="45.76312" lon="5.64888">
        <ele>289.49</ele>
        <time>2016-11-23T15:45:42Z</time>
      </trkpt>
      <trkpt lat="45.76298" lon="5.64882">
        <ele>289.01</ele>
        <time>2016-11-23T15:45:44Z</time>
      </trkpt>
      <trkpt lat="45.76286" lon="5.64876">
        <ele>289.01</ele>
        <time>2016-11-23T15:45:46Z</time>
      </trkpt>
      <trkpt lat="45.76275" lon="5.64873">
        <ele>288.53</ele>
        <time>2016-11-23T15:45:49Z</time>
      </trkpt>
      <trkpt lat="45.76265" lon="5.64875">
        <ele>288.53</ele>
        <time>2016-11-23T15:46:17Z</time>
      </trkpt>
      <trkpt lat="45.76255" lon="5.64877">
        <ele>288.05</ele>
        <time>2016-11-23T15:46:21Z</time>
      </trkpt>
      <trkpt lat="45.76245" lon="5.64882">
        <ele>287.57</ele>
        <time>2016-11-23T15:46:24Z</time>
      </trkpt>
      <trkpt lat="45.76233" lon="5.64887">
        <ele>287.09</ele>
        <time>2016-11-23T15:46:27Z</time>
      </trkpt>
      <trkpt lat="45.76223" lon="5.64897">
        <ele>285.17</ele>
        <time>2016-11-23T15:46:30Z</time>
      </trkpt>
      <trkpt lat="45.76219" lon="5.64915">
        <ele>284.21</ele>
        <time>2016-11-23T15:46:33Z</time>
      </trkpt>
      <trkpt lat="45.76216" lon="5.64945">
        <ele>283.73</ele>
        <time>2016-11-23T15:46:35Z</time>
      </trkpt>
      <trkpt lat="45.76216" lon="5.64981">
        <ele>282.77</ele>
        <time>2016-11-23T15:46:37Z</time>
      </trkpt>
      <trkpt lat="45.76217" lon="5.64997">
        <ele>281.8</ele>
        <time>2016-11-23T15:46:38Z</time>
      </trkpt>
      <trkpt lat="45.76218" lon="5.65014">
        <ele>281.32</ele>
        <time>2016-11-23T15:46:39Z</time>
      </trkpt>
      <trkpt lat="45.76216" lon="5.6503">
        <ele>280.84</ele>
        <time>2016-11-23T15:46:40Z</time>
      </trkpt>
      <trkpt lat="45.76213" lon="5.65045">
        <ele>279.88</ele>
        <time>2016-11-23T15:46:41Z</time>
      </trkpt>
      <trkpt lat="45.76208" lon="5.65058">
        <ele>278.92</ele>
        <time>2016-11-23T15:46:42Z</time>
      </trkpt>
      <trkpt lat="45.76202" lon="5.65071">
        <ele>277.96</ele>
        <time>2016-11-23T15:46:43Z</time>
      </trkpt>
      <trkpt lat="45.76198" lon="5.65085">
        <ele>277</ele>
        <time>2016-11-23T15:46:44Z</time>
      </trkpt>
      <trkpt lat="45.76195" lon="5.65101">
        <ele>277</ele>
        <time>2016-11-23T15:46:45Z</time>
      </trkpt>
      <trkpt lat="45.76193" lon="5.65118">
        <ele>276.04</ele>
        <time>2016-11-23T15:46:46Z</time>
      </trkpt>
      <trkpt lat="45.76192" lon="5.65134">
        <ele>275.56</ele>
        <time>2016-11-23T15:46:47Z</time>
      </trkpt>
      <trkpt lat="45.76192" lon="5.65151">
        <ele>275.07</ele>
        <time>2016-11-23T15:46:48Z</time>
      </trkpt>
      <trkpt lat="45.76192" lon="5.65167">
        <ele>273.63</ele>
        <time>2016-11-23T15:46:49Z</time>
      </trkpt>
      <trkpt lat="45.76196" lon="5.65182">
        <ele>273.15</ele>
        <time>2016-11-23T15:46:50Z</time>
      </trkpt>
      <trkpt lat="45.76202" lon="5.65196">
        <ele>272.19</ele>
        <time>2016-11-23T15:46:51Z</time>
      </trkpt>
      <trkpt lat="45.7621" lon="5.65208">
        <ele>272.19</ele>
        <time>2016-11-23T15:46:52Z</time>
      </trkpt>
      <trkpt lat="45.76219" lon="5.65219">
        <ele>270.27</ele>
        <time>2016-11-23T15:46:53Z</time>
      </trkpt>
      <trkpt lat="45.76227" lon="5.65231">
        <ele>268.83</ele>
        <time>2016-11-23T15:46:54Z</time>
      </trkpt>
      <trkpt lat="45.76236" lon="5.65242">
        <ele>267.38</ele>
        <time>2016-11-23T15:46:55Z</time>
      </trkpt>
      <trkpt lat="45.76245" lon="5.65253">
        <ele>266.9</ele>
        <time>2016-11-23T15:46:56Z</time>
      </trkpt>
      <trkpt lat="45.76254" lon="5.65265">
        <ele>265.94</ele>
        <time>2016-11-23T15:46:57Z</time>
      </trkpt>
      <trkpt lat="45.76263" lon="5.65276">
        <ele>264.5</ele>
        <time>2016-11-23T15:46:58Z</time>
      </trkpt>
      <trkpt lat="45.76272" lon="5.65286">
        <ele>263.54</ele>
        <time>2016-11-23T15:46:59Z</time>
      </trkpt>
      <trkpt lat="45.76282" lon="5.65296">
        <ele>264.02</ele>
        <time>2016-11-23T15:47:00Z</time>
      </trkpt>
      <trkpt lat="45.7629" lon="5.65305">
        <ele>262.1</ele>
        <time>2016-11-23T15:47:01Z</time>
      </trkpt>
      <trkpt lat="45.76298" lon="5.65313">
        <ele>259.69</ele>
        <time>2016-11-23T15:47:02Z</time>
      </trkpt>
      <trkpt lat="45.76305" lon="5.65323">
        <ele>258.73</ele>
        <time>2016-11-23T15:47:03Z</time>
      </trkpt>
      <trkpt lat="45.7631" lon="5.65334">
        <ele>256.81</ele>
        <time>2016-11-23T15:47:04Z</time>
      </trkpt>
      <trkpt lat="45.76314" lon="5.65358">
        <ele>255.85</ele>
        <time>2016-11-23T15:47:06Z</time>
      </trkpt>
      <trkpt lat="45.76302" lon="5.65379">
        <ele>253.93</ele>
        <time>2016-11-23T15:47:08Z</time>
      </trkpt>
      <trkpt lat="45.76292" lon="5.65387">
        <ele>252.96</ele>
        <time>2016-11-23T15:47:09Z</time>
      </trkpt>
      <trkpt lat="45.76281" lon="5.65394">
        <ele>252</ele>
        <time>2016-11-23T15:47:10Z</time>
      </trkpt>
      <trkpt lat="45.76269" lon="5.65399">
        <ele>251.04</ele>
        <time>2016-11-23T15:47:11Z</time>
      </trkpt>
      <trkpt lat="45.76258" lon="5.65403">
        <ele>250.56</ele>
        <time>2016-11-23T15:47:12Z</time>
      </trkpt>
      <trkpt lat="45.76246" lon="5.65408">
        <ele>250.08</ele>
        <time>2016-11-23T15:47:13Z</time>
      </trkpt>
      <trkpt lat="45.76235" lon="5.65413">
        <ele>249.6</ele>
        <time>2016-11-23T15:47:14Z</time>
      </trkpt>
      <trkpt lat="45.76225" lon="5.65417">
        <ele>248.64</ele>
        <time>2016-11-23T15:47:15Z</time>
      </trkpt>
      <trkpt lat="45.76214" lon="5.65421">
        <ele>247.68</ele>
        <time>2016-11-23T15:47:16Z</time>
      </trkpt>
      <trkpt lat="45.76203" lon="5.65425">
        <ele>247.68</ele>
        <time>2016-11-23T15:47:17Z</time>
      </trkpt>
      <trkpt lat="45.76192" lon="5.6543">
        <ele>247.2</ele>
        <time>2016-11-23T15:47:18Z</time>
      </trkpt>
      <trkpt lat="45.76181" lon="5.65433">
        <ele>247.2</ele>
        <time>2016-11-23T15:47:19Z</time>
      </trkpt>
      <trkpt lat="45.7617" lon="5.65437">
        <ele>247.2</ele>
        <time>2016-11-23T15:47:20Z</time>
      </trkpt>
      <trkpt lat="45.76159" lon="5.65441">
        <ele>245.75</ele>
        <time>2016-11-23T15:47:21Z</time>
      </trkpt>
      <trkpt lat="45.76149" lon="5.65445">
        <ele>245.75</ele>
        <time>2016-11-23T15:47:22Z</time>
      </trkpt>
      <trkpt lat="45.76138" lon="5.6545">
        <ele>245.27</ele>
        <time>2016-11-23T15:47:23Z</time>
      </trkpt>
      <trkpt lat="45.76128" lon="5.65455">
        <ele>245.27</ele>
        <time>2016-11-23T15:47:24Z</time>
      </trkpt>
      <trkpt lat="45.76119" lon="5.65461">
        <ele>244.79</ele>
        <time>2016-11-23T15:47:25Z</time>
      </trkpt>
      <trkpt lat="45.7611" lon="5.65468">
        <ele>244.31</ele>
        <time>2016-11-23T15:47:26Z</time>
      </trkpt>
      <trkpt lat="45.76103" lon="5.65476">
        <ele>243.83</ele>
        <time>2016-11-23T15:47:27Z</time>
      </trkpt>
      <trkpt lat="45.76092" lon="5.65498">
        <ele>243.83</ele>
        <time>2016-11-23T15:47:29Z</time>
      </trkpt>
      <trkpt lat="45.76088" lon="5.6551">
        <ele>243.83</ele>
        <time>2016-11-23T15:47:30Z</time>
      </trkpt>
      <trkpt lat="45.76084" lon="5.65534">
        <ele>243.35</ele>
        <time>2016-11-23T15:47:32Z</time>
      </trkpt>
      <trkpt lat="45.7608" lon="5.65558">
        <ele>243.35</ele>
        <time>2016-11-23T15:47:34Z</time>
      </trkpt>
      <trkpt lat="45.76076" lon="5.6558">
        <ele>242.87</ele>
        <time>2016-11-23T15:47:36Z</time>
      </trkpt>
      <trkpt lat="45.76073" lon="5.65601">
        <ele>241.91</ele>
        <time>2016-11-23T15:47:38Z</time>
      </trkpt>
      <trkpt lat="45.7607" lon="5.65622">
        <ele>242.39</ele>
        <time>2016-11-23T15:47:40Z</time>
      </trkpt>
      <trkpt lat="45.76067" lon="5.65643">
        <ele>242.39</ele>
        <time>2016-11-23T15:47:42Z</time>
      </trkpt>
      <trkpt lat="45.76064" lon="5.65662">
        <ele>242.87</ele>
        <time>2016-11-23T15:47:44Z</time>
      </trkpt>
      <trkpt lat="45.76061" lon="5.65679">
        <ele>242.87</ele>
        <time>2016-11-23T15:47:46Z</time>
      </trkpt>
      <trkpt lat="45.76059" lon="5.65697">
        <ele>242.87</ele>
        <time>2016-11-23T15:47:48Z</time>
      </trkpt>
      <trkpt lat="45.76057" lon="5.65714">
        <ele>242.87</ele>
        <time>2016-11-23T15:47:50Z</time>
      </trkpt>
      <trkpt lat="45.76054" lon="5.65731">
        <ele>242.87</ele>
        <time>2016-11-23T15:47:52Z</time>
      </trkpt>
      <trkpt lat="45.7605" lon="5.65748">
        <ele>242.39</ele>
        <time>2016-11-23T15:47:54Z</time>
      </trkpt>
      <trkpt lat="45.76045" lon="5.65765">
        <ele>242.39</ele>
        <time>2016-11-23T15:47:56Z</time>
      </trkpt>
      <trkpt lat="45.7604" lon="5.65781">
        <ele>242.39</ele>
        <time>2016-11-23T15:47:58Z</time>
      </trkpt>
      <trkpt lat="45.76034" lon="5.65797">
        <ele>242.39</ele>
        <time>2016-11-23T15:48:00Z</time>
      </trkpt>
      <trkpt lat="45.76028" lon="5.65813">
        <ele>241.91</ele>
        <time>2016-11-23T15:48:02Z</time>
      </trkpt>
      <trkpt lat="45.76022" lon="5.65828">
        <ele>241.91</ele>
        <time>2016-11-23T15:48:04Z</time>
      </trkpt>
      <trkpt lat="45.76015" lon="5.65843">
        <ele>241.91</ele>
        <time>2016-11-23T15:48:06Z</time>
      </trkpt>
      <trkpt lat="45.76009" lon="5.65859">
        <ele>241.91</ele>
        <time>2016-11-23T15:48:08Z</time>
      </trkpt>
      <trkpt lat="45.76004" lon="5.65874">
        <ele>241.91</ele>
        <time>2016-11-23T15:48:10Z</time>
      </trkpt>
      <trkpt lat="45.75999" lon="5.65889">
        <ele>242.39</ele>
        <time>2016-11-23T15:48:12Z</time>
      </trkpt>
      <trkpt lat="45.75995" lon="5.65903">
        <ele>242.87</ele>
        <time>2016-11-23T15:48:14Z</time>
      </trkpt>
      <trkpt lat="45.75992" lon="5.65917">
        <ele>242.39</ele>
        <time>2016-11-23T15:48:16Z</time>
      </trkpt>
      <trkpt lat="45.7599" lon="5.6593">
        <ele>242.87</ele>
        <time>2016-11-23T15:48:18Z</time>
      </trkpt>
      <trkpt lat="45.75988" lon="5.65943">
        <ele>242.87</ele>
        <time>2016-11-23T15:48:20Z</time>
      </trkpt>
      <trkpt lat="45.75987" lon="5.65957">
        <ele>243.35</ele>
        <time>2016-11-23T15:48:22Z</time>
      </trkpt>
      <trkpt lat="45.75987" lon="5.65976">
        <ele>243.35</ele>
        <time>2016-11-23T15:48:25Z</time>
      </trkpt>
      <trkpt lat="45.75988" lon="5.65994">
        <ele>243.35</ele>
        <time>2016-11-23T15:48:28Z</time>
      </trkpt>
      <trkpt lat="45.75989" lon="5.66012">
        <ele>243.35</ele>
        <time>2016-11-23T15:48:31Z</time>
      </trkpt>
      <trkpt lat="45.75989" lon="5.6603">
        <ele>243.83</ele>
        <time>2016-11-23T15:48:34Z</time>
      </trkpt>
      <trkpt lat="45.7599" lon="5.66045">
        <ele>243.83</ele>
        <time>2016-11-23T15:48:37Z</time>
      </trkpt>
      <trkpt lat="45.7599" lon="5.66058">
        <ele>243.83</ele>
        <time>2016-11-23T15:48:40Z</time>
      </trkpt>
      <trkpt lat="45.7599" lon="5.66073">
        <ele>244.31</ele>
        <time>2016-11-23T15:48:44Z</time>
      </trkpt>
      <trkpt lat="45.75991" lon="5.66085">
        <ele>244.31</ele>
        <time>2016-11-23T15:48:49Z</time>
      </trkpt>
      <trkpt lat="45.75995" lon="5.66101">
        <ele>245.27</ele>
        <time>2016-11-23T15:48:53Z</time>
      </trkpt>
      <trkpt lat="45.75996" lon="5.66115">
        <ele>245.27</ele>
        <time>2016-11-23T15:48:56Z</time>
      </trkpt>
      <trkpt lat="45.75995" lon="5.6613">
        <ele>245.27</ele>
        <time>2016-11-23T15:48:59Z</time>
      </trkpt>
      <trkpt lat="45.75996" lon="5.66144">
        <ele>245.27</ele>
        <time>2016-11-23T15:49:02Z</time>
      </trkpt>
      <trkpt lat="45.76001" lon="5.6616">
        <ele>245.75</ele>
        <time>2016-11-23T15:49:06Z</time>
      </trkpt>
      <trkpt lat="45.76006" lon="5.66174">
        <ele>246.23</ele>
        <time>2016-11-23T15:49:10Z</time>
      </trkpt>
      <trkpt lat="45.76014" lon="5.66186">
        <ele>246.23</ele>
        <time>2016-11-23T15:49:14Z</time>
      </trkpt>
      <trkpt lat="45.76021" lon="5.66198">
        <ele>246.23</ele>
        <time>2016-11-23T15:49:18Z</time>
      </trkpt>
      <trkpt lat="45.76029" lon="5.66211">
        <ele>247.2</ele>
        <time>2016-11-23T15:49:22Z</time>
      </trkpt>
      <trkpt lat="45.76035" lon="5.66222">
        <ele>246.23</ele>
        <time>2016-11-23T15:49:25Z</time>
      </trkpt>
      <trkpt lat="45.76041" lon="5.66232">
        <ele>247.2</ele>
        <time>2016-11-23T15:49:28Z</time>
      </trkpt>
      <trkpt lat="45.76049" lon="5.66244">
        <ele>248.16</ele>
        <time>2016-11-23T15:49:32Z</time>
      </trkpt>
      <trkpt lat="45.76057" lon="5.66256">
        <ele>248.64</ele>
        <time>2016-11-23T15:49:36Z</time>
      </trkpt>
      <trkpt lat="45.76066" lon="5.66267">
        <ele>249.12</ele>
        <time>2016-11-23T15:49:40Z</time>
      </trkpt>
      <trkpt lat="45.76073" lon="5.66277">
        <ele>249.6</ele>
        <time>2016-11-23T15:49:44Z</time>
      </trkpt>
      <trkpt lat="45.76081" lon="5.66289">
        <ele>249.6</ele>
        <time>2016-11-23T15:49:48Z</time>
      </trkpt>
      <trkpt lat="45.76089" lon="5.66298">
        <ele>249.6</ele>
        <time>2016-11-23T15:49:52Z</time>
      </trkpt>
      <trkpt lat="45.76097" lon="5.66306">
        <ele>250.56</ele>
        <time>2016-11-23T15:49:56Z</time>
      </trkpt>
      <trkpt lat="45.76105" lon="5.66312">
        <ele>251.52</ele>
        <time>2016-11-23T15:50:00Z</time>
      </trkpt>
      <trkpt lat="45.76115" lon="5.66317">
        <ele>251.52</ele>
        <time>2016-11-23T15:50:05Z</time>
      </trkpt>
      <trkpt lat="45.76125" lon="5.66321">
        <ele>251.52</ele>
        <time>2016-11-23T15:50:10Z</time>
      </trkpt>
      <trkpt lat="45.76135" lon="5.66325">
        <ele>252.96</ele>
        <time>2016-11-23T15:50:15Z</time>
      </trkpt>
      <trkpt lat="45.76143" lon="5.66327">
        <ele>253.44</ele>
        <time>2016-11-23T15:50:24Z</time>
      </trkpt>
      <trkpt lat="45.76151" lon="5.66335">
        <ele>253.44</ele>
        <time>2016-11-23T15:51:02Z</time>
      </trkpt>
      <trkpt lat="45.76162" lon="5.66328">
        <ele>253.44</ele>
        <time>2016-11-23T15:51:07Z</time>
      </trkpt>
      <trkpt lat="45.76171" lon="5.66321">
        <ele>252.96</ele>
        <time>2016-11-23T15:51:09Z</time>
      </trkpt>
      <trkpt lat="45.7618" lon="5.66314">
        <ele>252.48</ele>
        <time>2016-11-23T15:51:11Z</time>
      </trkpt>
      <trkpt lat="45.76189" lon="5.66307">
        <ele>252.48</ele>
        <time>2016-11-23T15:51:13Z</time>
      </trkpt>
      <trkpt lat="45.76198" lon="5.663">
        <ele>252</ele>
        <time>2016-11-23T15:51:15Z</time>
      </trkpt>
      <trkpt lat="45.76208" lon="5.66295">
        <ele>251.52</ele>
        <time>2016-11-23T15:51:17Z</time>
      </trkpt>
      <trkpt lat="45.76218" lon="5.66291">
        <ele>251.52</ele>
        <time>2016-11-23T15:51:19Z</time>
      </trkpt>
      <trkpt lat="45.76228" lon="5.66289">
        <ele>251.52</ele>
        <time>2016-11-23T15:51:21Z</time>
      </trkpt>
      <trkpt lat="45.76237" lon="5.6629">
        <ele>251.52</ele>
        <time>2016-11-23T15:51:23Z</time>
      </trkpt>
      <trkpt lat="45.76247" lon="5.66293">
        <ele>252</ele>
        <time>2016-11-23T15:51:25Z</time>
      </trkpt>
      <trkpt lat="45.76256" lon="5.66296">
        <ele>251.52</ele>
        <time>2016-11-23T15:51:27Z</time>
      </trkpt>
      <trkpt lat="45.76268" lon="5.663">
        <ele>252</ele>
        <time>2016-11-23T15:51:30Z</time>
      </trkpt>
      <trkpt lat="45.76279" lon="5.66301">
        <ele>252.48</ele>
        <time>2016-11-23T15:51:33Z</time>
      </trkpt>
      <trkpt lat="45.76291" lon="5.66301">
        <ele>252.48</ele>
        <time>2016-11-23T15:51:36Z</time>
      </trkpt>
      <trkpt lat="45.76301" lon="5.66301">
        <ele>252.96</ele>
        <time>2016-11-23T15:51:39Z</time>
      </trkpt>
      <trkpt lat="45.76312" lon="5.663">
        <ele>252.96</ele>
        <time>2016-11-23T15:51:42Z</time>
      </trkpt>
      <trkpt lat="45.76322" lon="5.66298">
        <ele>252.48</ele>
        <time>2016-11-23T15:51:45Z</time>
      </trkpt>
      <trkpt lat="45.76333" lon="5.66295">
        <ele>253.44</ele>
        <time>2016-11-23T15:51:48Z</time>
      </trkpt>
      <trkpt lat="45.76344" lon="5.66293">
        <ele>252.96</ele>
        <time>2016-11-23T15:51:51Z</time>
      </trkpt>
      <trkpt lat="45.76355" lon="5.66292">
        <ele>252.48</ele>
        <time>2016-11-23T15:51:54Z</time>
      </trkpt>
      <trkpt lat="45.76366" lon="5.6629">
        <ele>252.96</ele>
        <time>2016-11-23T15:51:57Z</time>
      </trkpt>
      <trkpt lat="45.76376" lon="5.6629">
        <ele>253.44</ele>
        <time>2016-11-23T15:52:00Z</time>
      </trkpt>
      <trkpt lat="45.76389" lon="5.66288">
        <ele>253.93</ele>
        <time>2016-11-23T15:52:04Z</time>
      </trkpt>
      <trkpt lat="45.76398" lon="5.66284">
        <ele>253.44</ele>
        <time>2016-11-23T15:52:07Z</time>
      </trkpt>
      <trkpt lat="45.76409" lon="5.66279">
        <ele>253.44</ele>
        <time>2016-11-23T15:52:10Z</time>
      </trkpt>
      <trkpt lat="45.7642" lon="5.66277">
        <ele>253.44</ele>
        <time>2016-11-23T15:52:13Z</time>
      </trkpt>
      <trkpt lat="45.7643" lon="5.66276">
        <ele>253.44</ele>
        <time>2016-11-23T15:52:16Z</time>
      </trkpt>
      <trkpt lat="45.76441" lon="5.66276">
        <ele>253.93</ele>
        <time>2016-11-23T15:52:19Z</time>
      </trkpt>
      <trkpt lat="45.76451" lon="5.66274">
        <ele>254.41</ele>
        <time>2016-11-23T15:52:22Z</time>
      </trkpt>
      <trkpt lat="45.76462" lon="5.66272">
        <ele>253.93</ele>
        <time>2016-11-23T15:52:25Z</time>
      </trkpt>
      <trkpt lat="45.76472" lon="5.66271">
        <ele>254.41</ele>
        <time>2016-11-23T15:52:28Z</time>
      </trkpt>
      <trkpt lat="45.76482" lon="5.66271">
        <ele>254.89</ele>
        <time>2016-11-23T15:52:31Z</time>
      </trkpt>
      <trkpt lat="45.76492" lon="5.6627">
        <ele>255.37</ele>
        <time>2016-11-23T15:52:34Z</time>
      </trkpt>
      <trkpt lat="45.76503" lon="5.6627">
        <ele>255.37</ele>
        <time>2016-11-23T15:52:38Z</time>
      </trkpt>
      <trkpt lat="45.76515" lon="5.66271">
        <ele>255.37</ele>
        <time>2016-11-23T15:52:42Z</time>
      </trkpt>
      <trkpt lat="45.76525" lon="5.6627">
        <ele>255.85</ele>
        <time>2016-11-23T15:52:45Z</time>
      </trkpt>
      <trkpt lat="45.76535" lon="5.6627">
        <ele>255.85</ele>
        <time>2016-11-23T15:52:48Z</time>
      </trkpt>
      <trkpt lat="45.76545" lon="5.66269">
        <ele>255.85</ele>
        <time>2016-11-23T15:52:51Z</time>
      </trkpt>
      <trkpt lat="45.76555" lon="5.66268">
        <ele>255.37</ele>
        <time>2016-11-23T15:52:54Z</time>
      </trkpt>
      <trkpt lat="45.76566" lon="5.66269">
        <ele>256.33</ele>
        <time>2016-11-23T15:52:57Z</time>
      </trkpt>
      <trkpt lat="45.76577" lon="5.66269">
        <ele>256.33</ele>
        <time>2016-11-23T15:53:00Z</time>
      </trkpt>
      <trkpt lat="45.76587" lon="5.6627">
        <ele>256.33</ele>
        <time>2016-11-23T15:53:03Z</time>
      </trkpt>
      <trkpt lat="45.76597" lon="5.6627">
        <ele>256.33</ele>
        <time>2016-11-23T15:53:06Z</time>
      </trkpt>
      <trkpt lat="45.76609" lon="5.66272">
        <ele>257.29</ele>
        <time>2016-11-23T15:53:10Z</time>
      </trkpt>
      <trkpt lat="45.76619" lon="5.66275">
        <ele>257.29</ele>
        <time>2016-11-23T15:53:14Z</time>
      </trkpt>
      <trkpt lat="45.76625" lon="5.66286">
        <ele>258.25</ele>
        <time>2016-11-23T15:53:21Z</time>
      </trkpt>
      <trkpt lat="45.76615" lon="5.66291">
        <ele>259.21</ele>
        <time>2016-11-23T15:53:27Z</time>
      </trkpt>
      <trkpt lat="45.76605" lon="5.66293">
        <ele>259.69</ele>
        <time>2016-11-23T15:53:34Z</time>
      </trkpt>
      <trkpt lat="45.76593" lon="5.66296">
        <ele>261.14</ele>
        <time>2016-11-23T15:53:42Z</time>
      </trkpt>
      <trkpt lat="45.76581" lon="5.66296">
        <ele>262.1</ele>
        <time>2016-11-23T15:53:50Z</time>
      </trkpt>
      <trkpt lat="45.76569" lon="5.66299">
        <ele>263.06</ele>
        <time>2016-11-23T15:53:58Z</time>
      </trkpt>
      <trkpt lat="45.76557" lon="5.66301">
        <ele>263.54</ele>
        <time>2016-11-23T15:54:04Z</time>
      </trkpt>
      <trkpt lat="45.76547" lon="5.66305">
        <ele>264.5</ele>
        <time>2016-11-23T15:54:10Z</time>
      </trkpt>
      <trkpt lat="45.76536" lon="5.66308">
        <ele>264.98</ele>
        <time>2016-11-23T15:54:16Z</time>
      </trkpt>
      <trkpt lat="45.76524" lon="5.66312">
        <ele>265.94</ele>
        <time>2016-11-23T15:54:23Z</time>
      </trkpt>
      <trkpt lat="45.76512" lon="5.66315">
        <ele>266.9</ele>
        <time>2016-11-23T15:54:29Z</time>
      </trkpt>
      <trkpt lat="45.76502" lon="5.66319">
        <ele>267.38</ele>
        <time>2016-11-23T15:54:35Z</time>
      </trkpt>
      <trkpt lat="45.76491" lon="5.66322">
        <ele>268.83</ele>
        <time>2016-11-23T15:54:42Z</time>
      </trkpt>
      <trkpt lat="45.76479" lon="5.66327">
        <ele>269.31</ele>
        <time>2016-11-23T15:54:49Z</time>
      </trkpt>
      <trkpt lat="45.76468" lon="5.66334">
        <ele>269.79</ele>
        <time>2016-11-23T15:54:56Z</time>
      </trkpt>
      <trkpt lat="45.76455" lon="5.6634">
        <ele>270.75</ele>
        <time>2016-11-23T15:55:03Z</time>
      </trkpt>
      <trkpt lat="45.76445" lon="5.66346">
        <ele>271.71</ele>
        <time>2016-11-23T15:55:09Z</time>
      </trkpt>
      <trkpt lat="45.76433" lon="5.66351">
        <ele>272.19</ele>
        <time>2016-11-23T15:55:15Z</time>
      </trkpt>
      <trkpt lat="45.76423" lon="5.66357">
        <ele>273.15</ele>
        <time>2016-11-23T15:55:22Z</time>
      </trkpt>
      <trkpt lat="45.76413" lon="5.66363">
        <ele>274.11</ele>
        <time>2016-11-23T15:55:27Z</time>
      </trkpt>
      <trkpt lat="45.76404" lon="5.6637">
        <ele>275.07</ele>
        <time>2016-11-23T15:55:33Z</time>
      </trkpt>
      <trkpt lat="45.76395" lon="5.66376">
        <ele>276.04</ele>
        <time>2016-11-23T15:55:41Z</time>
      </trkpt>
      <trkpt lat="45.76396" lon="5.6639">
        <ele>277</ele>
        <time>2016-11-23T15:55:51Z</time>
      </trkpt>
      <trkpt lat="45.76404" lon="5.66388">
        <ele>277.48</ele>
        <time>2016-11-23T15:56:33Z</time>
      </trkpt>
      <trkpt lat="45.76414" lon="5.66387">
        <ele>277.96</ele>
        <time>2016-11-23T15:56:40Z</time>
      </trkpt>
      <trkpt lat="45.76423" lon="5.66385">
        <ele>278.44</ele>
        <time>2016-11-23T15:56:45Z</time>
      </trkpt>
      <trkpt lat="45.76431" lon="5.66383">
        <ele>278.92</ele>
        <time>2016-11-23T15:56:50Z</time>
      </trkpt>
      <trkpt lat="45.76442" lon="5.66381">
        <ele>279.4</ele>
        <time>2016-11-23T15:56:56Z</time>
      </trkpt>
      <trkpt lat="45.76452" lon="5.66379">
        <ele>280.36</ele>
        <time>2016-11-23T15:57:01Z</time>
      </trkpt>
      <trkpt lat="45.76463" lon="5.66376">
        <ele>280.84</ele>
        <time>2016-11-23T15:57:06Z</time>
      </trkpt>
      <trkpt lat="45.76475" lon="5.66374">
        <ele>280.84</ele>
        <time>2016-11-23T15:57:11Z</time>
      </trkpt>
      <trkpt lat="45.76486" lon="5.66377">
        <ele>281.32</ele>
        <time>2016-11-23T15:57:16Z</time>
      </trkpt>
      <trkpt lat="45.76494" lon="5.66387">
        <ele>281.32</ele>
        <time>2016-11-23T15:57:20Z</time>
      </trkpt>
      <trkpt lat="45.76503" lon="5.66397">
        <ele>281.32</ele>
        <time>2016-11-23T15:57:24Z</time>
      </trkpt>
      <trkpt lat="45.76511" lon="5.66405">
        <ele>281.8</ele>
        <time>2016-11-23T15:57:28Z</time>
      </trkpt>
      <trkpt lat="45.76515" lon="5.6642">
        <ele>282.28</ele>
        <time>2016-11-23T15:57:32Z</time>
      </trkpt>
      <trkpt lat="45.76518" lon="5.66438">
        <ele>281.8</ele>
        <time>2016-11-23T15:57:36Z</time>
      </trkpt>
      <trkpt lat="45.7652" lon="5.66452">
        <ele>281.8</ele>
        <time>2016-11-23T15:57:39Z</time>
      </trkpt>
      <trkpt lat="45.76521" lon="5.66465">
        <ele>282.28</ele>
        <time>2016-11-23T15:57:42Z</time>
      </trkpt>
      <trkpt lat="45.76522" lon="5.66479">
        <ele>281.32</ele>
        <time>2016-11-23T15:57:45Z</time>
      </trkpt>
      <trkpt lat="45.76522" lon="5.66492">
        <ele>281.32</ele>
        <time>2016-11-23T15:57:48Z</time>
      </trkpt>
      <trkpt lat="45.76521" lon="5.66508">
        <ele>281.8</ele>
        <time>2016-11-23T15:57:52Z</time>
      </trkpt>
      <trkpt lat="45.76519" lon="5.66524">
        <ele>281.32</ele>
        <time>2016-11-23T15:57:56Z</time>
      </trkpt>
      <trkpt lat="45.76515" lon="5.66541">
        <ele>281.8</ele>
        <time>2016-11-23T15:58:00Z</time>
      </trkpt>
      <trkpt lat="45.7651" lon="5.66556">
        <ele>281.8</ele>
        <time>2016-11-23T15:58:04Z</time>
      </trkpt>
      <trkpt lat="45.76505" lon="5.66572">
        <ele>282.77</ele>
        <time>2016-11-23T15:58:08Z</time>
      </trkpt>
      <trkpt lat="45.76501" lon="5.66585">
        <ele>282.77</ele>
        <time>2016-11-23T15:58:11Z</time>
      </trkpt>
      <trkpt lat="45.76496" lon="5.666">
        <ele>283.25</ele>
        <time>2016-11-23T15:58:15Z</time>
      </trkpt>
      <trkpt lat="45.76491" lon="5.66611">
        <ele>283.73</ele>
        <time>2016-11-23T15:58:18Z</time>
      </trkpt>
      <trkpt lat="45.76485" lon="5.66621">
        <ele>283.73</ele>
        <time>2016-11-23T15:58:21Z</time>
      </trkpt>
      <trkpt lat="45.76477" lon="5.66634">
        <ele>284.21</ele>
        <time>2016-11-23T15:58:25Z</time>
      </trkpt>
      <trkpt lat="45.76468" lon="5.66645">
        <ele>284.69</ele>
        <time>2016-11-23T15:58:29Z</time>
      </trkpt>
      <trkpt lat="45.76457" lon="5.66655">
        <ele>284.69</ele>
        <time>2016-11-23T15:58:33Z</time>
      </trkpt>
      <trkpt lat="45.76448" lon="5.66662">
        <ele>285.17</ele>
        <time>2016-11-23T15:58:36Z</time>
      </trkpt>
      <trkpt lat="45.7644" lon="5.66668">
        <ele>285.17</ele>
        <time>2016-11-23T15:58:39Z</time>
      </trkpt>
      <trkpt lat="45.76432" lon="5.66675">
        <ele>285.17</ele>
        <time>2016-11-23T15:58:42Z</time>
      </trkpt>
      <trkpt lat="45.76424" lon="5.66681">
        <ele>285.65</ele>
        <time>2016-11-23T15:58:45Z</time>
      </trkpt>
      <trkpt lat="45.76416" lon="5.66689">
        <ele>286.13</ele>
        <time>2016-11-23T15:58:48Z</time>
      </trkpt>
      <trkpt lat="45.76406" lon="5.66698">
        <ele>286.13</ele>
        <time>2016-11-23T15:58:52Z</time>
      </trkpt>
      <trkpt lat="45.76396" lon="5.66709">
        <ele>287.09</ele>
        <time>2016-11-23T15:58:56Z</time>
      </trkpt>
      <trkpt lat="45.76389" lon="5.66718">
        <ele>286.61</ele>
        <time>2016-11-23T15:58:59Z</time>
      </trkpt>
      <trkpt lat="45.76382" lon="5.66728">
        <ele>287.57</ele>
        <time>2016-11-23T15:59:02Z</time>
      </trkpt>
      <trkpt lat="45.76376" lon="5.66737">
        <ele>287.57</ele>
        <time>2016-11-23T15:59:05Z</time>
      </trkpt>
      <trkpt lat="45.76369" lon="5.66747">
        <ele>287.57</ele>
        <time>2016-11-23T15:59:08Z</time>
      </trkpt>
      <trkpt lat="45.76364" lon="5.66758">
        <ele>288.05</ele>
        <time>2016-11-23T15:59:11Z</time>
      </trkpt>
      <trkpt lat="45.76358" lon="5.66768">
        <ele>288.05</ele>
        <time>2016-11-23T15:59:14Z</time>
      </trkpt>
      <trkpt lat="45.76352" lon="5.66778">
        <ele>288.05</ele>
        <time>2016-11-23T15:59:17Z</time>
      </trkpt>
      <trkpt lat="45.76344" lon="5.66787">
        <ele>288.05</ele>
        <time>2016-11-23T15:59:20Z</time>
      </trkpt>
      <trkpt lat="45.76337" lon="5.66796">
        <ele>288.05</ele>
        <time>2016-11-23T15:59:23Z</time>
      </trkpt>
      <trkpt lat="45.76327" lon="5.66805">
        <ele>288.05</ele>
        <time>2016-11-23T15:59:26Z</time>
      </trkpt>
      <trkpt lat="45.76316" lon="5.6681">
        <ele>289.01</ele>
        <time>2016-11-23T15:59:29Z</time>
      </trkpt>
      <trkpt lat="45.76307" lon="5.66813">
        <ele>288.53</ele>
        <time>2016-11-23T15:59:32Z</time>
      </trkpt>
      <trkpt lat="45.76297" lon="5.66817">
        <ele>289.01</ele>
        <time>2016-11-23T15:59:35Z</time>
      </trkpt>
      <trkpt lat="45.76287" lon="5.66819">
        <ele>289.97</ele>
        <time>2016-11-23T15:59:38Z</time>
      </trkpt>
      <trkpt lat="45.76279" lon="5.66823">
        <ele>290.46</ele>
        <time>2016-11-23T15:59:41Z</time>
      </trkpt>
      <trkpt lat="45.76268" lon="5.66828">
        <ele>291.9</ele>
        <time>2016-11-23T15:59:45Z</time>
      </trkpt>
      <trkpt lat="45.76257" lon="5.66832">
        <ele>292.38</ele>
        <time>2016-11-23T15:59:49Z</time>
      </trkpt>
      <trkpt lat="45.76246" lon="5.66835">
        <ele>291.9</ele>
        <time>2016-11-23T15:59:53Z</time>
      </trkpt>
      <trkpt lat="45.76235" lon="5.66839">
        <ele>292.38</ele>
        <time>2016-11-23T15:59:57Z</time>
      </trkpt>
      <trkpt lat="45.76223" lon="5.66842">
        <ele>292.38</ele>
        <time>2016-11-23T16:00:01Z</time>
      </trkpt>
      <trkpt lat="45.76213" lon="5.66844">
        <ele>292.38</ele>
        <time>2016-11-23T16:00:04Z</time>
      </trkpt>
      <trkpt lat="45.76204" lon="5.66848">
        <ele>292.86</ele>
        <time>2016-11-23T16:00:07Z</time>
      </trkpt>
      <trkpt lat="45.76194" lon="5.66851">
        <ele>292.86</ele>
        <time>2016-11-23T16:00:10Z</time>
      </trkpt>
      <trkpt lat="45.76183" lon="5.66855">
        <ele>292.38</ele>
        <time>2016-11-23T16:00:13Z</time>
      </trkpt>
      <trkpt lat="45.76171" lon="5.66862">
        <ele>292.86</ele>
        <time>2016-11-23T16:00:16Z</time>
      </trkpt>
      <trkpt lat="45.76162" lon="5.66869">
        <ele>291.9</ele>
        <time>2016-11-23T16:00:18Z</time>
      </trkpt>
      <trkpt lat="45.76154" lon="5.66877">
        <ele>291.9</ele>
        <time>2016-11-23T16:00:20Z</time>
      </trkpt>
      <trkpt lat="45.76145" lon="5.66885">
        <ele>291.9</ele>
        <time>2016-11-23T16:00:22Z</time>
      </trkpt>
      <trkpt lat="45.76137" lon="5.66893">
        <ele>291.9</ele>
        <time>2016-11-23T16:00:24Z</time>
      </trkpt>
      <trkpt lat="45.76128" lon="5.66901">
        <ele>291.9</ele>
        <time>2016-11-23T16:00:26Z</time>
      </trkpt>
      <trkpt lat="45.7612" lon="5.6691">
        <ele>291.42</ele>
        <time>2016-11-23T16:00:28Z</time>
      </trkpt>
      <trkpt lat="45.76111" lon="5.66919">
        <ele>291.9</ele>
        <time>2016-11-23T16:00:30Z</time>
      </trkpt>
      <trkpt lat="45.76103" lon="5.66928">
        <ele>291.42</ele>
        <time>2016-11-23T16:00:32Z</time>
      </trkpt>
      <trkpt lat="45.76095" lon="5.66938">
        <ele>291.42</ele>
        <time>2016-11-23T16:00:34Z</time>
      </trkpt>
      <trkpt lat="45.76087" lon="5.66948">
        <ele>291.42</ele>
        <time>2016-11-23T16:00:36Z</time>
      </trkpt>
      <trkpt lat="45.76079" lon="5.6696">
        <ele>290.94</ele>
        <time>2016-11-23T16:00:38Z</time>
      </trkpt>
      <trkpt lat="45.7607" lon="5.66972">
        <ele>290.46</ele>
        <time>2016-11-23T16:00:40Z</time>
      </trkpt>
      <trkpt lat="45.7606" lon="5.66983">
        <ele>289.97</ele>
        <time>2016-11-23T16:00:42Z</time>
      </trkpt>
      <trkpt lat="45.7605" lon="5.66994">
        <ele>289.01</ele>
        <time>2016-11-23T16:00:44Z</time>
      </trkpt>
      <trkpt lat="45.76037" lon="5.67002">
        <ele>288.53</ele>
        <time>2016-11-23T16:00:46Z</time>
      </trkpt>
      <trkpt lat="45.76023" lon="5.6701">
        <ele>288.05</ele>
        <time>2016-11-23T16:00:48Z</time>
      </trkpt>
      <trkpt lat="45.76008" lon="5.67019">
        <ele>288.05</ele>
        <time>2016-11-23T16:00:50Z</time>
      </trkpt>
      <trkpt lat="45.75993" lon="5.67027">
        <ele>287.57</ele>
        <time>2016-11-23T16:00:52Z</time>
      </trkpt>
      <trkpt lat="45.75979" lon="5.67038">
        <ele>287.57</ele>
        <time>2016-11-23T16:00:54Z</time>
      </trkpt>
      <trkpt lat="45.75967" lon="5.67051">
        <ele>287.57</ele>
        <time>2016-11-23T16:00:56Z</time>
      </trkpt>
      <trkpt lat="45.75955" lon="5.67065">
        <ele>287.09</ele>
        <time>2016-11-23T16:00:58Z</time>
      </trkpt>
      <trkpt lat="45.75945" lon="5.6708">
        <ele>287.09</ele>
        <time>2016-11-23T16:01:00Z</time>
      </trkpt>
      <trkpt lat="45.75936" lon="5.67094">
        <ele>287.57</ele>
        <time>2016-11-23T16:01:02Z</time>
      </trkpt>
      <trkpt lat="45.75927" lon="5.67107">
        <ele>288.05</ele>
        <time>2016-11-23T16:01:04Z</time>
      </trkpt>
      <trkpt lat="45.75919" lon="5.67118">
        <ele>288.05</ele>
        <time>2016-11-23T16:01:06Z</time>
      </trkpt>
      <trkpt lat="45.75913" lon="5.67129">
        <ele>289.01</ele>
        <time>2016-11-23T16:01:08Z</time>
      </trkpt>
      <trkpt lat="45.75907" lon="5.67139">
        <ele>289.97</ele>
        <time>2016-11-23T16:01:10Z</time>
      </trkpt>
      <trkpt lat="45.75899" lon="5.67152">
        <ele>290.46</ele>
        <time>2016-11-23T16:01:13Z</time>
      </trkpt>
      <trkpt lat="45.75891" lon="5.67163">
        <ele>290.94</ele>
        <time>2016-11-23T16:01:16Z</time>
      </trkpt>
      <trkpt lat="45.75885" lon="5.67174">
        <ele>291.9</ele>
        <time>2016-11-23T16:01:19Z</time>
      </trkpt>
      <trkpt lat="45.75878" lon="5.67184">
        <ele>291.9</ele>
        <time>2016-11-23T16:01:22Z</time>
      </trkpt>
      <trkpt lat="45.75872" lon="5.67195">
        <ele>292.86</ele>
        <time>2016-11-23T16:01:25Z</time>
      </trkpt>
      <trkpt lat="45.75867" lon="5.67205">
        <ele>292.86</ele>
        <time>2016-11-23T16:01:28Z</time>
      </trkpt>
      <trkpt lat="45.75861" lon="5.67218">
        <ele>292.86</ele>
        <time>2016-11-23T16:01:31Z</time>
      </trkpt>
      <trkpt lat="45.75855" lon="5.67231">
        <ele>293.34</ele>
        <time>2016-11-23T16:01:34Z</time>
      </trkpt>
      <trkpt lat="45.7585" lon="5.67246">
        <ele>292.86</ele>
        <time>2016-11-23T16:01:37Z</time>
      </trkpt>
      <trkpt lat="45.75845" lon="5.67261">
        <ele>293.34</ele>
        <time>2016-11-23T16:01:40Z</time>
      </trkpt>
      <trkpt lat="45.75841" lon="5.67277">
        <ele>293.34</ele>
        <time>2016-11-23T16:01:43Z</time>
      </trkpt>
      <trkpt lat="45.75835" lon="5.67293">
        <ele>293.34</ele>
        <time>2016-11-23T16:01:46Z</time>
      </trkpt>
      <trkpt lat="45.75827" lon="5.67301">
        <ele>292.86</ele>
        <time>2016-11-23T16:01:48Z</time>
      </trkpt>
      <trkpt lat="45.75816" lon="5.67305">
        <ele>292.38</ele>
        <time>2016-11-23T16:01:50Z</time>
      </trkpt>
      <trkpt lat="45.75804" lon="5.67305">
        <ele>292.38</ele>
        <time>2016-11-23T16:01:52Z</time>
      </trkpt>
      <trkpt lat="45.75791" lon="5.67304">
        <ele>291.9</ele>
        <time>2016-11-23T16:01:54Z</time>
      </trkpt>
      <trkpt lat="45.75777" lon="5.67303">
        <ele>290.94</ele>
        <time>2016-11-23T16:01:56Z</time>
      </trkpt>
      <trkpt lat="45.75764" lon="5.673">
        <ele>290.46</ele>
        <time>2016-11-23T16:01:58Z</time>
      </trkpt>
      <trkpt lat="45.75754" lon="5.67298">
        <ele>289.01</ele>
        <time>2016-11-23T16:02:01Z</time>
      </trkpt>
      <trkpt lat="45.75743" lon="5.67295">
        <ele>288.53</ele>
        <time>2016-11-23T16:02:14Z</time>
      </trkpt>
      <trkpt lat="45.75736" lon="5.67302">
        <ele>289.01</ele>
        <time>2016-11-23T16:02:17Z</time>
      </trkpt>
      <trkpt lat="45.75728" lon="5.67316">
        <ele>289.97</ele>
        <time>2016-11-23T16:02:21Z</time>
      </trkpt>
      <trkpt lat="45.75722" lon="5.67328">
        <ele>289.49</ele>
        <time>2016-11-23T16:02:24Z</time>
      </trkpt>
      <trkpt lat="45.75714" lon="5.67339">
        <ele>290.46</ele>
        <time>2016-11-23T16:02:27Z</time>
      </trkpt>
      <trkpt lat="45.75707" lon="5.67349">
        <ele>290.94</ele>
        <time>2016-11-23T16:02:30Z</time>
      </trkpt>
      <trkpt lat="45.757" lon="5.67359">
        <ele>291.9</ele>
        <time>2016-11-23T16:02:33Z</time>
      </trkpt>
      <trkpt lat="45.75693" lon="5.67369">
        <ele>292.38</ele>
        <time>2016-11-23T16:02:36Z</time>
      </trkpt>
      <trkpt lat="45.75685" lon="5.67381">
        <ele>293.34</ele>
        <time>2016-11-23T16:02:40Z</time>
      </trkpt>
      <trkpt lat="45.75679" lon="5.67391">
        <ele>293.34</ele>
        <time>2016-11-23T16:02:43Z</time>
      </trkpt>
      <trkpt lat="45.75671" lon="5.67402">
        <ele>293.82</ele>
        <time>2016-11-23T16:02:46Z</time>
      </trkpt>
      <trkpt lat="45.75664" lon="5.67412">
        <ele>294.78</ele>
        <time>2016-11-23T16:02:49Z</time>
      </trkpt>
      <trkpt lat="45.75657" lon="5.67422">
        <ele>295.26</ele>
        <time>2016-11-23T16:02:52Z</time>
      </trkpt>
      <trkpt lat="45.7565" lon="5.67433">
        <ele>295.74</ele>
        <time>2016-11-23T16:02:55Z</time>
      </trkpt>
      <trkpt lat="45.75642" lon="5.67444">
        <ele>295.74</ele>
        <time>2016-11-23T16:02:58Z</time>
      </trkpt>
      <trkpt lat="45.75635" lon="5.67455">
        <ele>296.22</ele>
        <time>2016-11-23T16:03:01Z</time>
      </trkpt>
      <trkpt lat="45.75629" lon="5.67465">
        <ele>296.22</ele>
        <time>2016-11-23T16:03:04Z</time>
      </trkpt>
      <trkpt lat="45.75622" lon="5.67477">
        <ele>296.22</ele>
        <time>2016-11-23T16:03:07Z</time>
      </trkpt>
      <trkpt lat="45.75615" lon="5.6749">
        <ele>296.7</ele>
        <time>2016-11-23T16:03:10Z</time>
      </trkpt>
      <trkpt lat="45.75608" lon="5.67504">
        <ele>296.22</ele>
        <time>2016-11-23T16:03:13Z</time>
      </trkpt>
      <trkpt lat="45.75602" lon="5.6752">
        <ele>296.22</ele>
        <time>2016-11-23T16:03:16Z</time>
      </trkpt>
      <trkpt lat="45.75595" lon="5.67536">
        <ele>295.74</ele>
        <time>2016-11-23T16:03:19Z</time>
      </trkpt>
      <trkpt lat="45.7559" lon="5.67552">
        <ele>296.22</ele>
        <time>2016-11-23T16:03:22Z</time>
      </trkpt>
      <trkpt lat="45.75585" lon="5.67569">
        <ele>295.74</ele>
        <time>2016-11-23T16:03:25Z</time>
      </trkpt>
      <trkpt lat="45.7558" lon="5.67587">
        <ele>295.26</ele>
        <time>2016-11-23T16:03:28Z</time>
      </trkpt>
      <trkpt lat="45.75576" lon="5.67599">
        <ele>296.22</ele>
        <time>2016-11-23T16:03:30Z</time>
      </trkpt>
      <trkpt lat="45.75572" lon="5.67613">
        <ele>295.26</ele>
        <time>2016-11-23T16:03:32Z</time>
      </trkpt>
      <trkpt lat="45.75568" lon="5.67625">
        <ele>295.26</ele>
        <time>2016-11-23T16:03:34Z</time>
      </trkpt>
      <trkpt lat="45.75564" lon="5.67639">
        <ele>295.26</ele>
        <time>2016-11-23T16:03:36Z</time>
      </trkpt>
      <trkpt lat="45.7556" lon="5.67652">
        <ele>295.26</ele>
        <time>2016-11-23T16:03:38Z</time>
      </trkpt>
      <trkpt lat="45.75556" lon="5.67664">
        <ele>295.26</ele>
        <time>2016-11-23T16:03:40Z</time>
      </trkpt>
      <trkpt lat="45.7555" lon="5.6768">
        <ele>295.26</ele>
        <time>2016-11-23T16:03:43Z</time>
      </trkpt>
      <trkpt lat="45.75544" lon="5.67697">
        <ele>294.78</ele>
        <time>2016-11-23T16:03:46Z</time>
      </trkpt>
      <trkpt lat="45.75541" lon="5.67709">
        <ele>295.26</ele>
        <time>2016-11-23T16:03:48Z</time>
      </trkpt>
      <trkpt lat="45.75538" lon="5.67722">
        <ele>295.74</ele>
        <time>2016-11-23T16:03:50Z</time>
      </trkpt>
      <trkpt lat="45.75535" lon="5.67736">
        <ele>295.74</ele>
        <time>2016-11-23T16:03:52Z</time>
      </trkpt>
      <trkpt lat="45.75534" lon="5.6775">
        <ele>295.74</ele>
        <time>2016-11-23T16:03:54Z</time>
      </trkpt>
      <trkpt lat="45.75534" lon="5.67764">
        <ele>295.26</ele>
        <time>2016-11-23T16:03:56Z</time>
      </trkpt>
      <trkpt lat="45.75535" lon="5.67778">
        <ele>296.22</ele>
        <time>2016-11-23T16:03:58Z</time>
      </trkpt>
      <trkpt lat="45.75536" lon="5.67797">
        <ele>296.7</ele>
        <time>2016-11-23T16:04:01Z</time>
      </trkpt>
      <trkpt lat="45.75537" lon="5.67816">
        <ele>296.7</ele>
        <time>2016-11-23T16:04:04Z</time>
      </trkpt>
      <trkpt lat="45.75538" lon="5.67829">
        <ele>296.22</ele>
        <time>2016-11-23T16:04:06Z</time>
      </trkpt>
      <trkpt lat="45.75537" lon="5.67848">
        <ele>296.7</ele>
        <time>2016-11-23T16:04:09Z</time>
      </trkpt>
      <trkpt lat="45.75537" lon="5.67866">
        <ele>297.67</ele>
        <time>2016-11-23T16:04:12Z</time>
      </trkpt>
      <trkpt lat="45.75535" lon="5.67882">
        <ele>297.67</ele>
        <time>2016-11-23T16:04:15Z</time>
      </trkpt>
      <trkpt lat="45.75533" lon="5.67897">
        <ele>298.15</ele>
        <time>2016-11-23T16:04:18Z</time>
      </trkpt>
      <trkpt lat="45.75531" lon="5.67911">
        <ele>298.63</ele>
        <time>2016-11-23T16:04:21Z</time>
      </trkpt>
      <trkpt lat="45.75528" lon="5.67926">
        <ele>300.07</ele>
        <time>2016-11-23T16:04:25Z</time>
      </trkpt>
      <trkpt lat="45.75525" lon="5.67942">
        <ele>301.03</ele>
        <time>2016-11-23T16:04:29Z</time>
      </trkpt>
      <trkpt lat="45.7552" lon="5.67957">
        <ele>301.03</ele>
        <time>2016-11-23T16:04:33Z</time>
      </trkpt>
      <trkpt lat="45.75515" lon="5.6797">
        <ele>301.99</ele>
        <time>2016-11-23T16:04:37Z</time>
      </trkpt>
      <trkpt lat="45.7551" lon="5.67983">
        <ele>302.47</ele>
        <time>2016-11-23T16:04:41Z</time>
      </trkpt>
      <trkpt lat="45.75504" lon="5.67995">
        <ele>303.43</ele>
        <time>2016-11-23T16:04:45Z</time>
      </trkpt>
      <trkpt lat="45.75499" lon="5.68009">
        <ele>303.91</ele>
        <time>2016-11-23T16:04:49Z</time>
      </trkpt>
      <trkpt lat="45.75496" lon="5.68026">
        <ele>303.43</ele>
        <time>2016-11-23T16:04:53Z</time>
      </trkpt>
      <trkpt lat="45.75486" lon="5.68036">
        <ele>303.43</ele>
        <time>2016-11-23T16:05:09Z</time>
      </trkpt>
      <trkpt lat="45.7548" lon="5.68048">
        <ele>303.91</ele>
        <time>2016-11-23T16:05:13Z</time>
      </trkpt>
      <trkpt lat="45.75481" lon="5.68063">
        <ele>304.39</ele>
        <time>2016-11-23T16:05:16Z</time>
      </trkpt>
      <trkpt lat="45.75489" lon="5.68074">
        <ele>304.39</ele>
        <time>2016-11-23T16:05:19Z</time>
      </trkpt>
      <trkpt lat="45.75497" lon="5.68081">
        <ele>303.91</ele>
        <time>2016-11-23T16:05:21Z</time>
      </trkpt>
      <trkpt lat="45.75506" lon="5.68088">
        <ele>303.91</ele>
        <time>2016-11-23T16:05:23Z</time>
      </trkpt>
      <trkpt lat="45.75515" lon="5.68096">
        <ele>303.91</ele>
        <time>2016-11-23T16:05:25Z</time>
      </trkpt>
      <trkpt lat="45.75524" lon="5.68104">
        <ele>303.91</ele>
        <time>2016-11-23T16:05:27Z</time>
      </trkpt>
      <trkpt lat="45.75533" lon="5.68112">
        <ele>303.91</ele>
        <time>2016-11-23T16:05:29Z</time>
      </trkpt>
      <trkpt lat="45.75542" lon="5.6812">
        <ele>303.43</ele>
        <time>2016-11-23T16:05:31Z</time>
      </trkpt>
      <trkpt lat="45.75552" lon="5.68128">
        <ele>303.43</ele>
        <time>2016-11-23T16:05:33Z</time>
      </trkpt>
      <trkpt lat="45.75561" lon="5.68136">
        <ele>303.43</ele>
        <time>2016-11-23T16:05:35Z</time>
      </trkpt>
      <trkpt lat="45.75571" lon="5.68144">
        <ele>302.95</ele>
        <time>2016-11-23T16:05:37Z</time>
      </trkpt>
      <trkpt lat="45.75581" lon="5.68151">
        <ele>303.43</ele>
        <time>2016-11-23T16:05:39Z</time>
      </trkpt>
      <trkpt lat="45.75592" lon="5.68157">
        <ele>303.43</ele>
        <time>2016-11-23T16:05:41Z</time>
      </trkpt>
      <trkpt lat="45.75602" lon="5.68165">
        <ele>302.95</ele>
        <time>2016-11-23T16:05:43Z</time>
      </trkpt>
      <trkpt lat="45.75606" lon="5.68178">
        <ele>302.47</ele>
        <time>2016-11-23T16:05:45Z</time>
      </trkpt>
      <trkpt lat="45.75604" lon="5.68193">
        <ele>301.99</ele>
        <time>2016-11-23T16:05:47Z</time>
      </trkpt>
      <trkpt lat="45.75601" lon="5.6821">
        <ele>301.51</ele>
        <time>2016-11-23T16:05:49Z</time>
      </trkpt>
      <trkpt lat="45.75598" lon="5.68229">
        <ele>301.51</ele>
        <time>2016-11-23T16:05:51Z</time>
      </trkpt>
      <trkpt lat="45.75594" lon="5.68248">
        <ele>301.51</ele>
        <time>2016-11-23T16:05:53Z</time>
      </trkpt>
      <trkpt lat="45.7559" lon="5.68267">
        <ele>300.55</ele>
        <time>2016-11-23T16:05:55Z</time>
      </trkpt>
      <trkpt lat="45.75586" lon="5.68286">
        <ele>300.07</ele>
        <time>2016-11-23T16:05:57Z</time>
      </trkpt>
      <trkpt lat="45.75583" lon="5.68304">
        <ele>299.59</ele>
        <time>2016-11-23T16:05:59Z</time>
      </trkpt>
      <trkpt lat="45.7558" lon="5.68321">
        <ele>299.59</ele>
        <time>2016-11-23T16:06:01Z</time>
      </trkpt>
      <trkpt lat="45.75577" lon="5.68338">
        <ele>300.07</ele>
        <time>2016-11-23T16:06:03Z</time>
      </trkpt>
      <trkpt lat="45.75574" lon="5.68353">
        <ele>300.07</ele>
        <time>2016-11-23T16:06:05Z</time>
      </trkpt>
      <trkpt lat="45.75574" lon="5.68367">
        <ele>300.07</ele>
        <time>2016-11-23T16:06:07Z</time>
      </trkpt>
      <trkpt lat="45.75577" lon="5.6838">
        <ele>300.07</ele>
        <time>2016-11-23T16:06:09Z</time>
      </trkpt>
      <trkpt lat="45.75583" lon="5.68394">
        <ele>299.59</ele>
        <time>2016-11-23T16:06:11Z</time>
      </trkpt>
      <trkpt lat="45.7559" lon="5.68409">
        <ele>299.59</ele>
        <time>2016-11-23T16:06:13Z</time>
      </trkpt>
      <trkpt lat="45.75597" lon="5.68426">
        <ele>299.11</ele>
        <time>2016-11-23T16:06:15Z</time>
      </trkpt>
      <trkpt lat="45.75605" lon="5.68444">
        <ele>298.15</ele>
        <time>2016-11-23T16:06:17Z</time>
      </trkpt>
      <trkpt lat="45.75612" lon="5.68463">
        <ele>297.67</ele>
        <time>2016-11-23T16:06:19Z</time>
      </trkpt>
      <trkpt lat="45.75619" lon="5.68483">
        <ele>296.7</ele>
        <time>2016-11-23T16:06:21Z</time>
      </trkpt>
      <trkpt lat="45.75626" lon="5.68503">
        <ele>296.22</ele>
        <time>2016-11-23T16:06:23Z</time>
      </trkpt>
      <trkpt lat="45.75632" lon="5.68523">
        <ele>296.22</ele>
        <time>2016-11-23T16:06:25Z</time>
      </trkpt>
      <trkpt lat="45.75639" lon="5.68543">
        <ele>296.22</ele>
        <time>2016-11-23T16:06:27Z</time>
      </trkpt>
      <trkpt lat="45.75646" lon="5.68562">
        <ele>295.74</ele>
        <time>2016-11-23T16:06:29Z</time>
      </trkpt>
      <trkpt lat="45.75651" lon="5.6858">
        <ele>295.26</ele>
        <time>2016-11-23T16:06:31Z</time>
      </trkpt>
      <trkpt lat="45.75656" lon="5.68597">
        <ele>295.74</ele>
        <time>2016-11-23T16:06:33Z</time>
      </trkpt>
      <trkpt lat="45.7566" lon="5.68611">
        <ele>295.26</ele>
        <time>2016-11-23T16:06:35Z</time>
      </trkpt>
      <trkpt lat="45.75666" lon="5.68624">
        <ele>296.22</ele>
        <time>2016-11-23T16:06:38Z</time>
      </trkpt>
      <trkpt lat="45.75677" lon="5.68625">
        <ele>295.74</ele>
        <time>2016-11-23T16:06:41Z</time>
      </trkpt>
      <trkpt lat="45.75685" lon="5.68625">
        <ele>295.26</ele>
        <time>2016-11-23T16:06:43Z</time>
      </trkpt>
      <trkpt lat="45.75696" lon="5.68625">
        <ele>295.74</ele>
        <time>2016-11-23T16:06:45Z</time>
      </trkpt>
      <trkpt lat="45.75707" lon="5.68625">
        <ele>294.78</ele>
        <time>2016-11-23T16:06:47Z</time>
      </trkpt>
      <trkpt lat="45.75717" lon="5.68625">
        <ele>294.78</ele>
        <time>2016-11-23T16:06:49Z</time>
      </trkpt>
      <trkpt lat="45.75729" lon="5.68625">
        <ele>294.78</ele>
        <time>2016-11-23T16:06:51Z</time>
      </trkpt>
      <trkpt lat="45.75742" lon="5.68625">
        <ele>294.78</ele>
        <time>2016-11-23T16:06:53Z</time>
      </trkpt>
      <trkpt lat="45.75754" lon="5.68626">
        <ele>293.82</ele>
        <time>2016-11-23T16:06:55Z</time>
      </trkpt>
      <trkpt lat="45.75766" lon="5.68626">
        <ele>294.3</ele>
        <time>2016-11-23T16:06:57Z</time>
      </trkpt>
      <trkpt lat="45.75779" lon="5.68627">
        <ele>293.34</ele>
        <time>2016-11-23T16:06:59Z</time>
      </trkpt>
      <trkpt lat="45.7579" lon="5.68628">
        <ele>293.34</ele>
        <time>2016-11-23T16:07:01Z</time>
      </trkpt>
      <trkpt lat="45.75801" lon="5.68628">
        <ele>293.34</ele>
        <time>2016-11-23T16:07:03Z</time>
      </trkpt>
      <trkpt lat="45.75813" lon="5.68627">
        <ele>292.38</ele>
        <time>2016-11-23T16:07:05Z</time>
      </trkpt>
      <trkpt lat="45.75824" lon="5.68626">
        <ele>292.86</ele>
        <time>2016-11-23T16:07:07Z</time>
      </trkpt>
      <trkpt lat="45.75833" lon="5.68633">
        <ele>291.9</ele>
        <time>2016-11-23T16:07:10Z</time>
      </trkpt>
      <trkpt lat="45.75829" lon="5.68661">
        <ele>290.94</ele>
        <time>2016-11-23T16:07:13Z</time>
      </trkpt>
      <trkpt lat="45.75826" lon="5.6868">
        <ele>291.42</ele>
        <time>2016-11-23T16:07:15Z</time>
      </trkpt>
      <trkpt lat="45.75824" lon="5.68698">
        <ele>290.94</ele>
        <time>2016-11-23T16:07:17Z</time>
      </trkpt>
      <trkpt lat="45.75823" lon="5.68715">
        <ele>290.94</ele>
        <time>2016-11-23T16:07:19Z</time>
      </trkpt>
      <trkpt lat="45.75822" lon="5.68734">
        <ele>290.46</ele>
        <time>2016-11-23T16:07:21Z</time>
      </trkpt>
      <trkpt lat="45.75818" lon="5.68752">
        <ele>289.01</ele>
        <time>2016-11-23T16:07:23Z</time>
      </trkpt>
      <trkpt lat="45.75813" lon="5.6877">
        <ele>287.57</ele>
        <time>2016-11-23T16:07:25Z</time>
      </trkpt>
      <trkpt lat="45.75807" lon="5.68786">
        <ele>287.57</ele>
        <time>2016-11-23T16:07:27Z</time>
      </trkpt>
      <trkpt lat="45.75802" lon="5.68801">
        <ele>288.05</ele>
        <time>2016-11-23T16:07:29Z</time>
      </trkpt>
      <trkpt lat="45.75798" lon="5.68816">
        <ele>287.09</ele>
        <time>2016-11-23T16:07:32Z</time>
      </trkpt>
      <trkpt lat="45.75794" lon="5.68829">
        <ele>287.09</ele>
        <time>2016-11-23T16:07:36Z</time>
      </trkpt>
      <trkpt lat="45.75788" lon="5.68845">
        <ele>287.09</ele>
        <time>2016-11-23T16:07:41Z</time>
      </trkpt>
      <trkpt lat="45.75783" lon="5.68859">
        <ele>288.53</ele>
        <time>2016-11-23T16:07:44Z</time>
      </trkpt>
      <trkpt lat="45.75789" lon="5.68871">
        <ele>289.49</ele>
        <time>2016-11-23T16:07:47Z</time>
      </trkpt>
      <trkpt lat="45.75793" lon="5.68883">
        <ele>289.01</ele>
        <time>2016-11-23T16:07:50Z</time>
      </trkpt>
      <trkpt lat="45.75796" lon="5.68894">
        <ele>289.49</ele>
        <time>2016-11-23T16:07:53Z</time>
      </trkpt>
      <trkpt lat="45.75807" lon="5.68899">
        <ele>289.01</ele>
        <time>2016-11-23T16:07:56Z</time>
      </trkpt>
      <trkpt lat="45.75817" lon="5.68907">
        <ele>288.05</ele>
        <time>2016-11-23T16:07:59Z</time>
      </trkpt>
      <trkpt lat="45.75816" lon="5.68917">
        <ele>288.05</ele>
        <time>2016-11-23T16:08:03Z</time>
      </trkpt>
      <trkpt lat="45.75805" lon="5.6893">
        <ele>289.01</ele>
        <time>2016-11-23T16:08:10Z</time>
      </trkpt>
      <trkpt lat="45.75795" lon="5.68935">
        <ele>288.53</ele>
        <time>2016-11-23T16:08:20Z</time>
      </trkpt>
      <trkpt lat="45.75793" lon="5.68929">
        <ele>288.53</ele>
        <time>2016-11-23T16:09:56Z</time>
      </trkpt>
    </trkseg>
  </trk>
</gpx>